<?xml version="1.0" encoding="UTF-8" standalone="no" ?><gpx xmlns="http://www.topografix.com/GPX/1/1" xmlns:gpxx="http://www.garmin.com/xmlschemas/GpxExtensions/v3" xmlns:gpxtrkx="http://www.garmin.com/xmlschemas/TrackStatsExtension/v1" xmlns:wptx1="http://www.garmin.com/xmlschemas/WaypointExtension/v1" xmlns:gpxtpx="http://www.garmin.com/xmlschemas/TrackPointExtension/v1" creator="eTrex 20" version="1.1" xmlns:xsi="http://www.w3.org/2001/XMLSchema-instance" xsi:schemaLocation="http://www.topografix.com/GPX/1/1 http://www.topografix.com/GPX/1/1/gpx.xsd http://www.garmin.com/xmlschemas/GpxExtensions/v3 http://www8.garmin.com/xmlschemas/GpxExtensionsv3.xsd http://www.garmin.com/xmlschemas/TrackStatsExtension/v1 http://www8.garmin.com/xmlschemas/TrackStatsExtension.xsd http://www.garmin.com/xmlschemas/WaypointExtension/v1 http://www8.garmin.com/xmlschemas/WaypointExtensionv1.xsd http://www.garmin.com/xmlschemas/TrackPointExtension/v1 http://www.garmin.com/xmlschemas/TrackPointExtensionv1.xsd"><metadata><link href="http://www.garmin.com"><text>Garmin International</text></link><time>2015-06-12T08:12:07Z</time></metadata><trk><name>Текущий трек: 07 ИЮН 2015 07:41</name><extensions><gpxx:TrackExtension><gpxx:DisplayColor>Cyan</gpxx:DisplayColor></gpxx:TrackExtension><gpxtrkx:TrackStatsExtension><gpxtrkx:Distance>477867</gpxtrkx:Distance></gpxtrkx:TrackStatsExtension></extensions><trkseg><trkpt lat="59.7221877147" lon="29.4906932395"><ele>13.12</ele><time>2015-06-07T03:41:34Z</time></trkpt><trkpt lat="59.9572496396" lon="30.3581010271"><ele>8.79</ele><time>2015-06-07T03:41:57Z</time></trkpt><trkpt lat="59.9572680797" lon="30.3580194712"><ele>13.60</ele><time>2015-06-07T03:42:25Z</time></trkpt><trkpt lat="59.9572638888" lon="30.3580849338"><ele>15.52</ele><time>2015-06-07T03:42:48Z</time></trkpt><trkpt lat="59.9572472088" lon="30.3581455350"><ele>16.00</ele><time>2015-06-07T03:43:06Z</time></trkpt><trkpt lat="59.9572161119" lon="30.3582684975"><ele>14.08</ele><time>2015-06-07T03:43:30Z</time></trkpt><trkpt lat="59.9572340492" lon="30.3582976665"><ele>14.56</ele><time>2015-06-07T03:44:02Z</time></trkpt><trkpt lat="59.9571898766" lon="30.3582063876"><ele>17.44</ele><time>2015-06-07T03:44:27Z</time></trkpt><trkpt lat="59.9572487175" lon="30.3581737820"><ele>15.04</ele><time>2015-06-07T03:44:50Z</time></trkpt><trkpt lat="59.9573094025" lon="30.3580592014"><ele>12.15</ele><time>2015-06-07T03:45:15Z</time></trkpt><trkpt lat="59.9573249929" lon="30.3580586147"><ele>10.23</ele><time>2015-06-07T03:45:43Z</time></trkpt><trkpt lat="59.9572171178" lon="30.3581481334"><ele>12.63</ele><time>2015-06-07T03:46:19Z</time></trkpt><trkpt lat="59.9572049640" lon="30.3582096566"><ele>9.27</ele><time>2015-06-07T03:46:46Z</time></trkpt><trkpt lat="59.9572141003" lon="30.3582002688"><ele>7.35</ele><time>2015-06-07T03:47:15Z</time></trkpt><trkpt lat="59.9571868591" lon="30.3582056332"><ele>6.39</ele><time>2015-06-07T03:47:41Z</time></trkpt><trkpt lat="59.9572275113" lon="30.3581679985"><ele>8.79</ele><time>2015-06-07T03:48:07Z</time></trkpt><trkpt lat="59.9572459515" lon="30.3581800684"><ele>7.83</ele><time>2015-06-07T03:48:20Z</time></trkpt><trkpt lat="59.9573212210" lon="30.3582365625"><ele>8.31</ele><time>2015-06-07T03:48:25Z</time></trkpt><trkpt lat="59.9577014241" lon="30.3585171886"><ele>9.27</ele><time>2015-06-07T03:48:36Z</time></trkpt><trkpt lat="59.9586460646" lon="30.3588641156"><ele>7.35</ele><time>2015-06-07T03:48:55Z</time></trkpt><trkpt lat="59.9596447684" lon="30.3592121322"><ele>4.94</ele><time>2015-06-07T03:49:18Z</time></trkpt><trkpt lat="59.9605727289" lon="30.3595678601"><ele>3.50</ele><time>2015-06-07T03:49:37Z</time></trkpt><trkpt lat="59.9615073949" lon="30.3599161282"><ele>4.46</ele><time>2015-06-07T03:49:59Z</time></trkpt><trkpt lat="59.9623030890" lon="30.3600653261"><ele>5.42</ele><time>2015-06-07T03:50:15Z</time></trkpt><trkpt lat="59.9633159582" lon="30.3600108437"><ele>3.02</ele><time>2015-06-07T03:50:36Z</time></trkpt><trkpt lat="59.9641136639" lon="30.3598251846"><ele>3.02</ele><time>2015-06-07T03:50:55Z</time></trkpt><trkpt lat="59.9647725653" lon="30.3592309915"><ele>3.02</ele><time>2015-06-07T03:51:07Z</time></trkpt><trkpt lat="59.9656365719" lon="30.3581709322"><ele>3.50</ele><time>2015-06-07T03:51:16Z</time></trkpt><trkpt lat="59.9672301393" lon="30.3562827408"><ele>2.54</ele><time>2015-06-07T03:51:31Z</time></trkpt><trkpt lat="59.9681539088" lon="30.3552515991"><ele>0.14</ele><time>2015-06-07T03:51:44Z</time></trkpt><trkpt lat="59.9690966215" lon="30.3541490436"><ele>-2.75</ele><time>2015-06-07T03:52:01Z</time></trkpt><trkpt lat="59.9701478798" lon="30.3529231902"><ele>-4.67</ele><time>2015-06-07T03:52:12Z</time></trkpt><trkpt lat="59.9721300323" lon="30.3506324161"><ele>-6.11</ele><time>2015-06-07T03:52:28Z</time></trkpt><trkpt lat="59.9747358821" lon="30.3476461954"><ele>-6.59</ele><time>2015-06-07T03:52:47Z</time></trkpt><trkpt lat="59.9773648661" lon="30.3448002879"><ele>-1.79</ele><time>2015-06-07T03:53:05Z</time></trkpt><trkpt lat="59.9796194304" lon="30.3422155604"><ele>-0.34</ele><time>2015-06-07T03:53:20Z</time></trkpt><trkpt lat="59.9814912770" lon="30.3406941611"><ele>-0.82</ele><time>2015-06-07T03:53:32Z</time></trkpt><trkpt lat="59.9837389681" lon="30.3396761790"><ele>-0.82</ele><time>2015-06-07T03:53:46Z</time></trkpt><trkpt lat="59.9851597007" lon="30.3390796389"><ele>0.62</ele><time>2015-06-07T03:53:57Z</time></trkpt><trkpt lat="59.9869034719" lon="30.3385099210"><ele>3.02</ele><time>2015-06-07T03:54:15Z</time></trkpt><trkpt lat="59.9879987352" lon="30.3388122562"><ele>5.91</ele><time>2015-06-07T03:54:27Z</time></trkpt><trkpt lat="59.9889874645" lon="30.3400563821"><ele>9.75</ele><time>2015-06-07T03:54:41Z</time></trkpt><trkpt lat="59.9896270037" lon="30.3418735787"><ele>10.71</ele><time>2015-06-07T03:54:56Z</time></trkpt><trkpt lat="59.9898700789" lon="30.3439613432"><ele>13.12</ele><time>2015-06-07T03:55:09Z</time></trkpt><trkpt lat="59.9900573306" lon="30.3478035238"><ele>16.96</ele><time>2015-06-07T03:55:27Z</time></trkpt><trkpt lat="59.9902587477" lon="30.3524086252"><ele>21.77</ele><time>2015-06-07T03:55:50Z</time></trkpt><trkpt lat="59.9903506134" lon="30.3542621154"><ele>22.25</ele><time>2015-06-07T03:56:02Z</time></trkpt><trkpt lat="59.9903854821" lon="30.3550261259"><ele>22.73</ele><time>2015-06-07T03:56:14Z</time></trkpt><trkpt lat="59.9904049281" lon="30.3551587276"><ele>24.17</ele><time>2015-06-07T03:56:29Z</time></trkpt><trkpt lat="59.9904216081" lon="30.3554703668"><ele>27.53</ele><time>2015-06-07T03:56:52Z</time></trkpt><trkpt lat="59.9904787727" lon="30.3566942085"><ele>28.50</ele><time>2015-06-07T03:57:01Z</time></trkpt><trkpt lat="59.9906382803" lon="30.3593727294"><ele>28.98</ele><time>2015-06-07T03:57:12Z</time></trkpt><trkpt lat="59.9909281265" lon="30.3636359330"><ele>28.98</ele><time>2015-06-07T03:57:27Z</time></trkpt><trkpt lat="59.9912434537" lon="30.3694212064"><ele>29.94</ele><time>2015-06-07T03:57:45Z</time></trkpt><trkpt lat="59.9916037917" lon="30.3767039906"><ele>28.02</ele><time>2015-06-07T03:58:06Z</time></trkpt><trkpt lat="59.9920862541" lon="30.3850805294"><ele>28.98</ele><time>2015-06-07T03:58:29Z</time></trkpt><trkpt lat="59.9920768663" lon="30.3906319477"><ele>30.42</ele><time>2015-06-07T03:58:44Z</time></trkpt><trkpt lat="59.9917445239" lon="30.3962648381"><ele>31.86</ele><time>2015-06-07T03:59:00Z</time></trkpt><trkpt lat="59.9913647398" lon="30.3994979896"><ele>32.34</ele><time>2015-06-07T03:59:12Z</time></trkpt><trkpt lat="59.9908075109" lon="30.4041043483"><ele>31.38</ele><time>2015-06-07T03:59:29Z</time></trkpt><trkpt lat="59.9900378846" lon="30.4101212136"><ele>28.50</ele><time>2015-06-07T03:59:51Z</time></trkpt><trkpt lat="59.9894630536" lon="30.4147232976"><ele>27.53</ele><time>2015-06-07T04:00:08Z</time></trkpt><trkpt lat="59.9887670204" lon="30.4203578644"><ele>24.17</ele><time>2015-06-07T04:00:30Z</time></trkpt><trkpt lat="59.9884988833" lon="30.4224905558"><ele>23.21</ele><time>2015-06-07T04:00:42Z</time></trkpt><trkpt lat="59.9882579036" lon="30.4241660982"><ele>21.29</ele><time>2015-06-07T04:00:57Z</time></trkpt><trkpt lat="59.9880760163" lon="30.4253068753"><ele>19.84</ele><time>2015-06-07T04:01:15Z</time></trkpt><trkpt lat="59.9880641978" lon="30.4253028519"><ele>21.29</ele><time>2015-06-07T04:01:33Z</time></trkpt><trkpt lat="59.9880000763" lon="30.4256771877"><ele>23.69</ele><time>2015-06-07T04:01:49Z</time></trkpt><trkpt lat="59.9878430832" lon="30.4269978404"><ele>25.13</ele><time>2015-06-07T04:01:58Z</time></trkpt><trkpt lat="59.9874812365" lon="30.4297996592"><ele>28.02</ele><time>2015-06-07T04:02:12Z</time></trkpt><trkpt lat="59.9869783223" lon="30.4334796499"><ele>28.02</ele><time>2015-06-07T04:02:31Z</time></trkpt><trkpt lat="59.9865598977" lon="30.4366964567"><ele>31.86</ele><time>2015-06-07T04:02:50Z</time></trkpt><trkpt lat="59.9862003978" lon="30.4390449822"><ele>34.74</ele><time>2015-06-07T04:03:08Z</time></trkpt><trkpt lat="59.9860012438" lon="30.4407982249"><ele>34.74</ele><time>2015-06-07T04:03:18Z</time></trkpt><trkpt lat="59.9855649658" lon="30.4445290938"><ele>35.23</ele><time>2015-06-07T04:03:33Z</time></trkpt><trkpt lat="59.9850693438" lon="30.4486529902"><ele>35.71</ele><time>2015-06-07T04:03:47Z</time></trkpt><trkpt lat="59.9844647571" lon="30.4533738457"><ele>36.19</ele><time>2015-06-07T04:04:01Z</time></trkpt><trkpt lat="59.9842995498" lon="30.4571571015"><ele>35.71</ele><time>2015-06-07T04:04:11Z</time></trkpt><trkpt lat="59.9841365218" lon="30.4642091319"><ele>35.71</ele><time>2015-06-07T04:04:29Z</time></trkpt><trkpt lat="59.9839941971" lon="30.4701579362"><ele>34.74</ele><time>2015-06-07T04:04:44Z</time></trkpt><trkpt lat="59.9838357791" lon="30.4765415937"><ele>32.82</ele><time>2015-06-07T04:05:00Z</time></trkpt><trkpt lat="59.9837226234" lon="30.4815495294"><ele>31.38</ele><time>2015-06-07T04:05:13Z</time></trkpt><trkpt lat="59.9835223798" lon="30.4878714122"><ele>31.38</ele><time>2015-06-07T04:05:29Z</time></trkpt><trkpt lat="59.9830967467" lon="30.4922398925"><ele>31.86</ele><time>2015-06-07T04:05:41Z</time></trkpt><trkpt lat="59.9828282744" lon="30.4952538572"><ele>31.86</ele><time>2015-06-07T04:05:51Z</time></trkpt><trkpt lat="59.9825406075" lon="30.4982972424"><ele>32.82</ele><time>2015-06-07T04:06:05Z</time></trkpt><trkpt lat="59.9821595661" lon="30.5027906969"><ele>31.38</ele><time>2015-06-07T04:06:27Z</time></trkpt><trkpt lat="59.9818334263" lon="30.5072795413"><ele>28.98</ele><time>2015-06-07T04:06:52Z</time></trkpt><trkpt lat="59.9815267324" lon="30.5108892079"><ele>29.94</ele><time>2015-06-07T04:07:13Z</time></trkpt><trkpt lat="59.9812599365" lon="30.5130027048"><ele>24.65</ele><time>2015-06-07T04:07:31Z</time></trkpt><trkpt lat="59.9811264966" lon="30.5140366964"><ele>20.81</ele><time>2015-06-07T04:07:44Z</time></trkpt><trkpt lat="59.9810746964" lon="30.5143791810"><ele>19.36</ele><time>2015-06-07T04:07:55Z</time></trkpt><trkpt lat="59.9810386542" lon="30.5146219209"><ele>18.88</ele><time>2015-06-07T04:08:22Z</time></trkpt><trkpt lat="59.9809257500" lon="30.5156653002"><ele>20.81</ele><time>2015-06-07T04:08:35Z</time></trkpt><trkpt lat="59.9807204772" lon="30.5176078901"><ele>21.29</ele><time>2015-06-07T04:08:49Z</time></trkpt><trkpt lat="59.9802157190" lon="30.5210298859"><ele>17.92</ele><time>2015-06-07T04:09:07Z</time></trkpt><trkpt lat="59.9799300637" lon="30.5249034986"><ele>10.71</ele><time>2015-06-07T04:09:27Z</time></trkpt><trkpt lat="59.9798747431" lon="30.5250482541"><ele>10.71</ele><time>2015-06-07T04:09:28Z</time></trkpt><trkpt lat="59.9791216291" lon="30.5275319796"><ele>8.79</ele><time>2015-06-07T04:09:43Z</time></trkpt><trkpt lat="59.9784957524" lon="30.5310713220"><ele>8.31</ele><time>2015-06-07T04:10:04Z</time></trkpt><trkpt lat="59.9780832790" lon="30.5350797158"><ele>5.91</ele><time>2015-06-07T04:10:30Z</time></trkpt><trkpt lat="59.9778321572" lon="30.5375537183"><ele>6.87</ele><time>2015-06-07T04:10:43Z</time></trkpt><trkpt lat="59.9776682910" lon="30.5406535137"><ele>7.35</ele><time>2015-06-07T04:10:55Z</time></trkpt><trkpt lat="59.9780657608" lon="30.5436516367"><ele>7.35</ele><time>2015-06-07T04:11:07Z</time></trkpt><trkpt lat="59.9788272567" lon="30.5462098774"><ele>6.87</ele><time>2015-06-07T04:11:19Z</time></trkpt><trkpt lat="59.9796066899" lon="30.5479053687"><ele>5.91</ele><time>2015-06-07T04:11:30Z</time></trkpt><trkpt lat="59.9801495858" lon="30.5490310583"><ele>4.94</ele><time>2015-06-07T04:11:42Z</time></trkpt><trkpt lat="59.9803183973" lon="30.5493704416"><ele>7.35</ele><time>2015-06-07T04:11:52Z</time></trkpt><trkpt lat="59.9803572055" lon="30.5494996067"><ele>12.15</ele><time>2015-06-07T04:12:18Z</time></trkpt><trkpt lat="59.9806146137" lon="30.5501985736"><ele>11.19</ele><time>2015-06-07T04:12:28Z</time></trkpt><trkpt lat="59.9812335335" lon="30.5517950747"><ele>9.27</ele><time>2015-06-07T04:12:39Z</time></trkpt><trkpt lat="59.9821743183" lon="30.5536065716"><ele>5.91</ele><time>2015-06-07T04:12:48Z</time></trkpt><trkpt lat="59.9836763553" lon="30.5566985719"><ele>0.62</ele><time>2015-06-07T04:13:05Z</time></trkpt><trkpt lat="59.9846560322" lon="30.5587576702"><ele>-0.82</ele><time>2015-06-07T04:13:17Z</time></trkpt><trkpt lat="59.9855344556" lon="30.5605516490"><ele>-3.23</ele><time>2015-06-07T04:13:30Z</time></trkpt><trkpt lat="59.9860033393" lon="30.5614818726"><ele>-5.15</ele><time>2015-06-07T04:13:42Z</time></trkpt><trkpt lat="59.9860950373" lon="30.5615925137"><ele>-3.71</ele><time>2015-06-07T04:13:54Z</time></trkpt><trkpt lat="59.9860461708" lon="30.5615855567"><ele>-3.23</ele><time>2015-06-07T04:14:10Z</time></trkpt><trkpt lat="59.9862937722" lon="30.5623235833"><ele>-3.71</ele><time>2015-06-07T04:14:22Z</time></trkpt><trkpt lat="59.9869003706" lon="30.5637211818"><ele>-6.59</ele><time>2015-06-07T04:14:31Z</time></trkpt><trkpt lat="59.9882880785" lon="30.5666177161"><ele>-9.00</ele><time>2015-06-07T04:14:45Z</time></trkpt><trkpt lat="59.9896658957" lon="30.5690163653"><ele>-9.96</ele><time>2015-06-07T04:14:57Z</time></trkpt><trkpt lat="59.9909709580" lon="30.5714015197"><ele>-7.55</ele><time>2015-06-07T04:15:08Z</time></trkpt><trkpt lat="59.9927438982" lon="30.5746002216"><ele>-5.63</ele><time>2015-06-07T04:15:22Z</time></trkpt><trkpt lat="59.9949822854" lon="30.5784797017"><ele>-2.27</ele><time>2015-06-07T04:15:39Z</time></trkpt><trkpt lat="59.9970745761" lon="30.5822140072"><ele>0.14</ele><time>2015-06-07T04:15:55Z</time></trkpt><trkpt lat="59.9989512004" lon="30.5854450632"><ele>5.91</ele><time>2015-06-07T04:16:08Z</time></trkpt><trkpt lat="60.0012071896" lon="30.5895081069"><ele>5.42</ele><time>2015-06-07T04:16:24Z</time></trkpt><trkpt lat="60.0038016401" lon="30.5941567104"><ele>4.94</ele><time>2015-06-07T04:16:42Z</time></trkpt><trkpt lat="60.0049395673" lon="30.5969438609"><ele>5.91</ele><time>2015-06-07T04:16:52Z</time></trkpt><trkpt lat="60.0055570621" lon="30.5993116647"><ele>9.75</ele><time>2015-06-07T04:17:01Z</time></trkpt><trkpt lat="60.0062056538" lon="30.6019560713"><ele>11.19</ele><time>2015-06-07T04:17:14Z</time></trkpt><trkpt lat="60.0066346396" lon="30.6036834139"><ele>13.60</ele><time>2015-06-07T04:17:26Z</time></trkpt><trkpt lat="60.0068595260" lon="30.6046035793"><ele>17.92</ele><time>2015-06-07T04:17:39Z</time></trkpt><trkpt lat="60.0068575144" lon="30.6047082692"><ele>21.29</ele><time>2015-06-07T04:17:53Z</time></trkpt><trkpt lat="60.0069442671" lon="30.6050592195"><ele>22.25</ele><time>2015-06-07T04:18:14Z</time></trkpt><trkpt lat="60.0071871746" lon="30.6064136513"><ele>24.17</ele><time>2015-06-07T04:18:23Z</time></trkpt><trkpt lat="60.0079853833" lon="30.6095473934"><ele>26.09</ele><time>2015-06-07T04:18:36Z</time></trkpt><trkpt lat="60.0090901181" lon="30.6140089966"><ele>26.57</ele><time>2015-06-07T04:18:52Z</time></trkpt><trkpt lat="60.0104829390" lon="30.6197353452"><ele>25.61</ele><time>2015-06-07T04:19:11Z</time></trkpt><trkpt lat="60.0116314273" lon="30.6247153692"><ele>25.13</ele><time>2015-06-07T04:19:27Z</time></trkpt><trkpt lat="60.0126782432" lon="30.6295475364"><ele>23.21</ele><time>2015-06-07T04:19:42Z</time></trkpt><trkpt lat="60.0132282637" lon="30.6336436048"><ele>22.25</ele><time>2015-06-07T04:19:54Z</time></trkpt><trkpt lat="60.0136196986" lon="30.6391588971"><ele>20.32</ele><time>2015-06-07T04:20:11Z</time></trkpt><trkpt lat="60.0138007477" lon="30.6415696163"><ele>20.32</ele><time>2015-06-07T04:20:21Z</time></trkpt><trkpt lat="60.0140273105" lon="30.6447437592"><ele>18.88</ele><time>2015-06-07T04:20:37Z</time></trkpt><trkpt lat="60.0141252950" lon="30.6462147832"><ele>17.44</ele><time>2015-06-07T04:20:49Z</time></trkpt><trkpt lat="60.0141693000" lon="30.6468828209"><ele>12.63</ele><time>2015-06-07T04:21:02Z</time></trkpt><trkpt lat="60.0141606666" lon="30.6469104812"><ele>11.19</ele><time>2015-06-07T04:21:29Z</time></trkpt><trkpt lat="60.0141969603" lon="30.6476735696"><ele>10.71</ele><time>2015-06-07T04:21:41Z</time></trkpt><trkpt lat="60.0142185017" lon="30.6481644139"><ele>10.71</ele><time>2015-06-07T04:21:44Z</time></trkpt><trkpt lat="60.0144310668" lon="30.6507366523"><ele>8.79</ele><time>2015-06-07T04:21:55Z</time></trkpt><trkpt lat="60.0148023013" lon="30.6547884643"><ele>8.79</ele><time>2015-06-07T04:22:09Z</time></trkpt><trkpt lat="60.0151400082" lon="30.6588023063"><ele>4.94</ele><time>2015-06-07T04:22:22Z</time></trkpt><trkpt lat="60.0154389068" lon="30.6626857258"><ele>1.58</ele><time>2015-06-07T04:22:35Z</time></trkpt><trkpt lat="60.0158628635" lon="30.6679958291"><ele>-0.34</ele><time>2015-06-07T04:22:54Z</time></trkpt><trkpt lat="60.0164429750" lon="30.6715854630"><ele>2.06</ele><time>2015-06-07T04:23:08Z</time></trkpt><trkpt lat="60.0172511581" lon="30.6750633661"><ele>3.98</ele><time>2015-06-07T04:23:23Z</time></trkpt><trkpt lat="60.0181621872" lon="30.6778335012"><ele>3.02</ele><time>2015-06-07T04:23:37Z</time></trkpt><trkpt lat="60.0187340006" lon="30.6792844925"><ele>3.98</ele><time>2015-06-07T04:23:49Z</time></trkpt><trkpt lat="60.0190011319" lon="30.6798666157"><ele>3.50</ele><time>2015-06-07T04:24:00Z</time></trkpt><trkpt lat="60.0189914089" lon="30.6798848882"><ele>0.14</ele><time>2015-06-07T04:24:13Z</time></trkpt><trkpt lat="60.0189396087" lon="30.6798948627"><ele>-2.27</ele><time>2015-06-07T04:24:35Z</time></trkpt><trkpt lat="60.0191239268" lon="30.6806377508"><ele>-1.79</ele><time>2015-06-07T04:24:46Z</time></trkpt><trkpt lat="60.0197140127" lon="30.6820640154"><ele>-1.79</ele><time>2015-06-07T04:24:55Z</time></trkpt><trkpt lat="60.0208959449" lon="30.6846194062"><ele>0.14</ele><time>2015-06-07T04:25:07Z</time></trkpt><trkpt lat="60.0224946253" lon="30.6882398855"><ele>2.54</ele><time>2015-06-07T04:25:24Z</time></trkpt><trkpt lat="60.0237816665" lon="30.6914680079"><ele>3.02</ele><time>2015-06-07T04:25:40Z</time></trkpt><trkpt lat="60.0243511330" lon="30.6941832416"><ele>3.02</ele><time>2015-06-07T04:25:52Z</time></trkpt><trkpt lat="60.0245707389" lon="30.6974815205"><ele>4.46</ele><time>2015-06-07T04:26:04Z</time></trkpt><trkpt lat="60.0243163481" lon="30.7008042745"><ele>7.35</ele><time>2015-06-07T04:26:15Z</time></trkpt><trkpt lat="60.0235685986" lon="30.7061007991"><ele>12.15</ele><time>2015-06-07T04:26:32Z</time></trkpt><trkpt lat="60.0229556300" lon="30.7104225084"><ele>12.15</ele><time>2015-06-07T04:26:45Z</time></trkpt><trkpt lat="60.0221592654" lon="30.7159216236"><ele>14.56</ele><time>2015-06-07T04:27:01Z</time></trkpt><trkpt lat="60.0215372443" lon="30.7203830592"><ele>16.96</ele><time>2015-06-07T04:27:14Z</time></trkpt><trkpt lat="60.0205866527" lon="30.7271531224"><ele>22.25</ele><time>2015-06-07T04:27:33Z</time></trkpt><trkpt lat="60.0196424313" lon="30.7336437330"><ele>26.57</ele><time>2015-06-07T04:27:51Z</time></trkpt><trkpt lat="60.0184350181" lon="30.7421545498"><ele>31.86</ele><time>2015-06-07T04:28:15Z</time></trkpt><trkpt lat="60.0179231353" lon="30.7456564251"><ele>33.78</ele><time>2015-06-07T04:28:27Z</time></trkpt><trkpt lat="60.0177054573" lon="30.7472526748"><ele>35.23</ele><time>2015-06-07T04:28:37Z</time></trkpt><trkpt lat="60.0174601190" lon="30.7488582283"><ele>39.55</ele><time>2015-06-07T04:28:53Z</time></trkpt><trkpt lat="60.0174631365" lon="30.7487989683"><ele>42.92</ele><time>2015-06-07T04:29:07Z</time></trkpt><trkpt lat="60.0173918903" lon="30.7492348272"><ele>45.80</ele><time>2015-06-07T04:29:27Z</time></trkpt><trkpt lat="60.0172380824" lon="30.7507806178"><ele>48.68</ele><time>2015-06-07T04:29:37Z</time></trkpt><trkpt lat="60.0168255251" lon="30.7534681913"><ele>50.13</ele><time>2015-06-07T04:29:47Z</time></trkpt><trkpt lat="60.0160812121" lon="30.7585334592"><ele>49.16</ele><time>2015-06-07T04:30:03Z</time></trkpt><trkpt lat="60.0152832549" lon="30.7641204167"><ele>46.76</ele><time>2015-06-07T04:30:19Z</time></trkpt><trkpt lat="60.0142674521" lon="30.7714007702"><ele>43.40</ele><time>2015-06-07T04:30:38Z</time></trkpt><trkpt lat="60.0132141821" lon="30.7777857687"><ele>39.07</ele><time>2015-06-07T04:30:55Z</time></trkpt><trkpt lat="60.0120428111" lon="30.7819183823"><ele>37.15</ele><time>2015-06-07T04:31:07Z</time></trkpt><trkpt lat="60.0108817499" lon="30.7858142909"><ele>34.74</ele><time>2015-06-07T04:31:20Z</time></trkpt><trkpt lat="60.0089670718" lon="30.7924588770"><ele>30.90</ele><time>2015-06-07T04:31:45Z</time></trkpt><trkpt lat="60.0084202364" lon="30.7943733037"><ele>29.46</ele><time>2015-06-07T04:31:55Z</time></trkpt><trkpt lat="60.0080804341" lon="30.7955320179"><ele>29.46</ele><time>2015-06-07T04:32:06Z</time></trkpt><trkpt lat="60.0077826250" lon="30.7965613995"><ele>28.50</ele><time>2015-06-07T04:32:25Z</time></trkpt><trkpt lat="60.0077509414" lon="30.7966271136"><ele>28.50</ele><time>2015-06-07T04:32:37Z</time></trkpt><trkpt lat="60.0076760910" lon="30.7969242521"><ele>29.94</ele><time>2015-06-07T04:33:03Z</time></trkpt><trkpt lat="60.0073395576" lon="30.7981250435"><ele>31.86</ele><time>2015-06-07T04:33:23Z</time></trkpt><trkpt lat="60.0067442749" lon="30.8000830561"><ele>31.38</ele><time>2015-06-07T04:33:41Z</time></trkpt><trkpt lat="60.0057324953" lon="30.8028886467"><ele>31.38</ele><time>2015-06-07T04:34:06Z</time></trkpt><trkpt lat="60.0049191993" lon="30.8045030013"><ele>32.82</ele><time>2015-06-07T04:34:19Z</time></trkpt><trkpt lat="60.0039152149" lon="30.8072498348"><ele>33.30</ele><time>2015-06-07T04:34:33Z</time></trkpt><trkpt lat="60.0025664829" lon="30.8115395252"><ele>33.78</ele><time>2015-06-07T04:34:53Z</time></trkpt><trkpt lat="60.0012950320" lon="30.8156206738"><ele>34.74</ele><time>2015-06-07T04:35:09Z</time></trkpt><trkpt lat="59.9995267019" lon="30.8215192705"><ele>34.26</ele><time>2015-06-07T04:35:30Z</time></trkpt><trkpt lat="59.9983213842" lon="30.8253992535"><ele>34.74</ele><time>2015-06-07T04:35:44Z</time></trkpt><trkpt lat="59.9970779289" lon="30.8294644766"><ele>33.78</ele><time>2015-06-07T04:35:59Z</time></trkpt><trkpt lat="59.9959481321" lon="30.8320393134"><ele>34.74</ele><time>2015-06-07T04:36:10Z</time></trkpt><trkpt lat="59.9945512041" lon="30.8339695819"><ele>35.71</ele><time>2015-06-07T04:36:21Z</time></trkpt><trkpt lat="59.9931522645" lon="30.8358254191"><ele>36.67</ele><time>2015-06-07T04:36:32Z</time></trkpt><trkpt lat="59.9916603696" lon="30.8378499839"><ele>37.15</ele><time>2015-06-07T04:36:44Z</time></trkpt><trkpt lat="59.9897513911" lon="30.8405446820"><ele>36.19</ele><time>2015-06-07T04:36:59Z</time></trkpt><trkpt lat="59.9866913259" lon="30.8448461909"><ele>35.23</ele><time>2015-06-07T04:37:25Z</time></trkpt><trkpt lat="59.9856500421" lon="30.8469612803"><ele>36.19</ele><time>2015-06-07T04:37:36Z</time></trkpt><trkpt lat="59.9845767394" lon="30.8498440683"><ele>34.26</ele><time>2015-06-07T04:37:49Z</time></trkpt><trkpt lat="59.9839408882" lon="30.8519480936"><ele>34.26</ele><time>2015-06-07T04:38:00Z</time></trkpt><trkpt lat="59.9829692580" lon="30.8550667483"><ele>34.74</ele><time>2015-06-07T04:38:18Z</time></trkpt><trkpt lat="59.9818802811" lon="30.8585596550"><ele>34.26</ele><time>2015-06-07T04:38:39Z</time></trkpt><trkpt lat="59.9805306271" lon="30.8627313282"><ele>32.82</ele><time>2015-06-07T04:39:05Z</time></trkpt><trkpt lat="59.9799360149" lon="30.8646299131"><ele>32.82</ele><time>2015-06-07T04:39:20Z</time></trkpt><trkpt lat="59.9794086255" lon="30.8663610276"><ele>31.38</ele><time>2015-06-07T04:39:38Z</time></trkpt><trkpt lat="59.9788661487" lon="30.8679322153"><ele>28.50</ele><time>2015-06-07T04:39:56Z</time></trkpt><trkpt lat="59.9787471257" lon="30.8682513982"><ele>27.05</ele><time>2015-06-07T04:40:09Z</time></trkpt><trkpt lat="59.9787589442" lon="30.8682872728"><ele>22.25</ele><time>2015-06-07T04:40:44Z</time></trkpt><trkpt lat="59.9786858540" lon="30.8683022764"><ele>17.44</ele><time>2015-06-07T04:41:21Z</time></trkpt><trkpt lat="59.9786308687" lon="30.8683410846"><ele>16.00</ele><time>2015-06-07T04:41:58Z</time></trkpt><trkpt lat="59.9785991851" lon="30.8684777096"><ele>24.17</ele><time>2015-06-07T04:42:29Z</time></trkpt><trkpt lat="59.9783657491" lon="30.8692884073"><ele>25.13</ele><time>2015-06-07T04:42:39Z</time></trkpt><trkpt lat="59.9779102765" lon="30.8709434979"><ele>26.57</ele><time>2015-06-07T04:42:49Z</time></trkpt><trkpt lat="59.9767566752" lon="30.8748358861"><ele>26.09</ele><time>2015-06-07T04:43:05Z</time></trkpt><trkpt lat="59.9757775851" lon="30.8780872263"><ele>28.50</ele><time>2015-06-07T04:43:17Z</time></trkpt><trkpt lat="59.9753258005" lon="30.8815590944"><ele>30.90</ele><time>2015-06-07T04:43:28Z</time></trkpt><trkpt lat="59.9752262235" lon="30.8856324479"><ele>33.30</ele><time>2015-06-07T04:43:40Z</time></trkpt><trkpt lat="59.9753455818" lon="30.8924425766"><ele>31.86</ele><time>2015-06-07T04:43:59Z</time></trkpt><trkpt lat="59.9754847214" lon="30.9007728472"><ele>28.98</ele><time>2015-06-07T04:44:21Z</time></trkpt><trkpt lat="59.9756199215" lon="30.9094383102"><ele>27.53</ele><time>2015-06-07T04:44:44Z</time></trkpt><trkpt lat="59.9757758249" lon="30.9199610353"><ele>26.09</ele><time>2015-06-07T04:45:13Z</time></trkpt><trkpt lat="59.9758874718" lon="30.9267215431"><ele>24.65</ele><time>2015-06-07T04:45:33Z</time></trkpt><trkpt lat="59.9759614002" lon="30.9306265879"><ele>22.73</ele><time>2015-06-07T04:45:47Z</time></trkpt><trkpt lat="59.9759928323" lon="30.9324452095"><ele>23.21</ele><time>2015-06-07T04:45:58Z</time></trkpt><trkpt lat="59.9760287907" lon="30.9337219410"><ele>23.21</ele><time>2015-06-07T04:46:11Z</time></trkpt><trkpt lat="59.9760349933" lon="30.9337896667"><ele>24.17</ele><time>2015-06-07T04:46:25Z</time></trkpt><trkpt lat="59.9759968556" lon="30.9337216895"><ele>23.69</ele><time>2015-06-07T04:47:09Z</time></trkpt><trkpt lat="59.9759780802" lon="30.9342955146"><ele>23.21</ele><time>2015-06-07T04:47:24Z</time></trkpt><trkpt lat="59.9759905692" lon="30.9359601606"><ele>23.21</ele><time>2015-06-07T04:47:34Z</time></trkpt><trkpt lat="59.9758161418" lon="30.9387034737"><ele>24.65</ele><time>2015-06-07T04:47:44Z</time></trkpt><trkpt lat="59.9756563827" lon="30.9424260445"><ele>24.17</ele><time>2015-06-07T04:47:57Z</time></trkpt><trkpt lat="59.9754686281" lon="30.9488562215"><ele>23.69</ele><time>2015-06-07T04:48:17Z</time></trkpt><trkpt lat="59.9750795402" lon="30.9536131192"><ele>25.61</ele><time>2015-06-07T04:48:31Z</time></trkpt><trkpt lat="59.9743118417" lon="30.9564249963"><ele>27.05</ele><time>2015-06-07T04:48:40Z</time></trkpt><trkpt lat="59.9731805362" lon="30.9611130785"><ele>29.46</ele><time>2015-06-07T04:48:54Z</time></trkpt><trkpt lat="59.9726746883" lon="30.9653712530"><ele>30.42</ele><time>2015-06-07T04:49:05Z</time></trkpt><trkpt lat="59.9725446850" lon="30.9698091354"><ele>31.38</ele><time>2015-06-07T04:49:17Z</time></trkpt><trkpt lat="59.9723244924" lon="30.9757141024"><ele>33.30</ele><time>2015-06-07T04:49:33Z</time></trkpt><trkpt lat="59.9722840916" lon="30.9781180322"><ele>31.38</ele><time>2015-06-07T04:49:42Z</time></trkpt><trkpt lat="59.9722393323" lon="30.9797220770"><ele>31.38</ele><time>2015-06-07T04:49:52Z</time></trkpt><trkpt lat="59.9721837603" lon="30.9816012159"><ele>32.82</ele><time>2015-06-07T04:50:12Z</time></trkpt><trkpt lat="59.9721825030" lon="30.9817049000"><ele>33.30</ele><time>2015-06-07T04:50:24Z</time></trkpt><trkpt lat="59.9721775576" lon="30.9821455367"><ele>32.82</ele><time>2015-06-07T04:50:45Z</time></trkpt><trkpt lat="59.9721519090" lon="30.9833895788"><ele>33.30</ele><time>2015-06-07T04:50:53Z</time></trkpt><trkpt lat="59.9720673356" lon="30.9863146953"><ele>33.30</ele><time>2015-06-07T04:51:05Z</time></trkpt><trkpt lat="59.9719125219" lon="30.9912662208"><ele>34.74</ele><time>2015-06-07T04:51:22Z</time></trkpt><trkpt lat="59.9717333168" lon="30.9955478646"><ele>32.34</ele><time>2015-06-07T04:51:35Z</time></trkpt><trkpt lat="59.9715363421" lon="31.0008178186"><ele>30.90</ele><time>2015-06-07T04:51:50Z</time></trkpt><trkpt lat="59.9713143893" lon="31.0075843614"><ele>27.53</ele><time>2015-06-07T04:52:08Z</time></trkpt><trkpt lat="59.9711119663" lon="31.0146176163"><ele>27.05</ele><time>2015-06-07T04:52:27Z</time></trkpt><trkpt lat="59.9706918653" lon="31.0183416959"><ele>26.57</ele><time>2015-06-07T04:52:37Z</time></trkpt><trkpt lat="59.9700815789" lon="31.0209657345"><ele>26.09</ele><time>2015-06-07T04:52:46Z</time></trkpt><trkpt lat="59.9695148785" lon="31.0225676838"><ele>25.13</ele><time>2015-06-07T04:52:55Z</time></trkpt><trkpt lat="59.9689467531" lon="31.0238325968"><ele>24.65</ele><time>2015-06-07T04:53:07Z</time></trkpt><trkpt lat="59.9685855769" lon="31.0245318152"><ele>24.17</ele><time>2015-06-07T04:53:22Z</time></trkpt><trkpt lat="59.9685310107" lon="31.0246879701"><ele>22.73</ele><time>2015-06-07T04:53:37Z</time></trkpt><trkpt lat="59.9685952999" lon="31.0245074239"><ele>20.81</ele><time>2015-06-07T04:54:05Z</time></trkpt><trkpt lat="59.9686404783" lon="31.0244386084"><ele>21.77</ele><time>2015-06-07T04:54:37Z</time></trkpt><trkpt lat="59.9686343595" lon="31.0244516004"><ele>23.69</ele><time>2015-06-07T04:55:06Z</time></trkpt><trkpt lat="59.9682312738" lon="31.0250402614"><ele>26.09</ele><time>2015-06-07T04:55:21Z</time></trkpt><trkpt lat="59.9675101787" lon="31.0259572417"><ele>25.13</ele><time>2015-06-07T04:55:39Z</time></trkpt><trkpt lat="59.9664182682" lon="31.0270771477"><ele>25.13</ele><time>2015-06-07T04:56:05Z</time></trkpt><trkpt lat="59.9661764503" lon="31.0272875335"><ele>25.13</ele><time>2015-06-07T04:56:10Z</time></trkpt><trkpt lat="59.9652866274" lon="31.0279795434"><ele>18.40</ele><time>2015-06-07T04:56:29Z</time></trkpt><trkpt lat="59.9647218548" lon="31.0282212775"><ele>19.36</ele><time>2015-06-07T04:56:46Z</time></trkpt><trkpt lat="59.9642839003" lon="31.0284454934"><ele>21.77</ele><time>2015-06-07T04:57:00Z</time></trkpt><trkpt lat="59.9634587858" lon="31.0286277160"><ele>23.21</ele><time>2015-06-07T04:57:20Z</time></trkpt><trkpt lat="59.9626434781" lon="31.0287670232"><ele>25.13</ele><time>2015-06-07T04:57:41Z</time></trkpt><trkpt lat="59.9618763663" lon="31.0287086014"><ele>20.32</ele><time>2015-06-07T04:58:00Z</time></trkpt><trkpt lat="59.9613669142" lon="31.0285790171"><ele>16.96</ele><time>2015-06-07T04:58:15Z</time></trkpt><trkpt lat="59.9608338252" lon="31.0284361895"><ele>7.83</ele><time>2015-06-07T04:58:30Z</time></trkpt><trkpt lat="59.9605132174" lon="31.0283061024"><ele>4.46</ele><time>2015-06-07T04:58:46Z</time></trkpt><trkpt lat="59.9604579806" lon="31.0281519592"><ele>16.00</ele><time>2015-06-07T04:59:01Z</time></trkpt><trkpt lat="59.9603105430" lon="31.0280784499"><ele>17.44</ele><time>2015-06-07T04:59:15Z</time></trkpt><trkpt lat="59.9601455871" lon="31.0279631149"><ele>18.40</ele><time>2015-06-07T04:59:30Z</time></trkpt><trkpt lat="59.9601332657" lon="31.0279564932"><ele>18.40</ele><time>2015-06-07T04:59:31Z</time></trkpt><trkpt lat="59.9599674717" lon="31.0278554074"><ele>21.29</ele><time>2015-06-07T04:59:44Z</time></trkpt><trkpt lat="59.9598598480" lon="31.0277938005"><ele>21.29</ele><time>2015-06-07T04:59:56Z</time></trkpt><trkpt lat="59.9598525558" lon="31.0278009251"><ele>20.81</ele><time>2015-06-07T04:59:57Z</time></trkpt><trkpt lat="59.9597818963" lon="31.0280824732"><ele>16.00</ele><time>2015-06-07T05:00:11Z</time></trkpt><trkpt lat="59.9597948883" lon="31.0281917732"><ele>15.52</ele><time>2015-06-07T05:00:18Z</time></trkpt><trkpt lat="59.9600135721" lon="31.0283103772"><ele>17.44</ele><time>2015-06-07T05:00:37Z</time></trkpt><trkpt lat="59.9601706490" lon="31.0283983871"><ele>16.00</ele><time>2015-06-07T05:00:49Z</time></trkpt><trkpt lat="59.9602513667" lon="31.0284655262"><ele>14.56</ele><time>2015-06-07T05:00:56Z</time></trkpt><trkpt lat="59.9604421388" lon="31.0286186635"><ele>14.56</ele><time>2015-06-07T05:01:12Z</time></trkpt><trkpt lat="59.9606283009" lon="31.0287461523"><ele>12.63</ele><time>2015-06-07T05:01:28Z</time></trkpt><trkpt lat="59.9608003814" lon="31.0288811848"><ele>15.04</ele><time>2015-06-07T05:01:42Z</time></trkpt><trkpt lat="59.9609312229" lon="31.0288769938"><ele>16.48</ele><time>2015-06-07T05:01:52Z</time></trkpt><trkpt lat="59.9610638246" lon="31.0288096033"><ele>16.96</ele><time>2015-06-07T05:02:03Z</time></trkpt><trkpt lat="59.9611355737" lon="31.0288812686"><ele>16.48</ele><time>2015-06-07T05:02:09Z</time></trkpt><trkpt lat="59.9613017030" lon="31.0289109405"><ele>11.67</ele><time>2015-06-07T05:02:24Z</time></trkpt><trkpt lat="59.9614507332" lon="31.0289860424"><ele>5.91</ele><time>2015-06-07T05:02:38Z</time></trkpt><trkpt lat="59.9614603724" lon="31.0289971065"><ele>5.42</ele><time>2015-06-07T05:02:39Z</time></trkpt><trkpt lat="59.9614976719" lon="31.0290518403"><ele>6.39</ele><time>2015-06-07T05:02:43Z</time></trkpt><trkpt lat="59.9614931457" lon="31.0293429438"><ele>13.12</ele><time>2015-06-07T05:02:58Z</time></trkpt><trkpt lat="59.9614501465" lon="31.0294056404"><ele>15.52</ele><time>2015-06-07T05:03:09Z</time></trkpt><trkpt lat="59.9613131862" lon="31.0293234140"><ele>17.44</ele><time>2015-06-07T05:03:24Z</time></trkpt><trkpt lat="59.9611540139" lon="31.0292702727"><ele>19.84</ele><time>2015-06-07T05:03:37Z</time></trkpt><trkpt lat="59.9610002898" lon="31.0292661656"><ele>24.17</ele><time>2015-06-07T05:03:50Z</time></trkpt><trkpt lat="59.9609083403" lon="31.0293219890"><ele>23.69</ele><time>2015-06-07T05:03:58Z</time></trkpt><trkpt lat="59.9608477391" lon="31.0296040401"><ele>21.29</ele><time>2015-06-07T05:04:10Z</time></trkpt><trkpt lat="59.9608215038" lon="31.0299780406"><ele>17.44</ele><time>2015-06-07T05:04:24Z</time></trkpt><trkpt lat="59.9608292151" lon="31.0300715826"><ele>17.44</ele><time>2015-06-07T05:04:27Z</time></trkpt></trkseg><trkseg><trkpt lat="59.9609541893" lon="31.0292910598"><ele>5.42</ele><time>2015-06-07T06:53:18Z</time></trkpt><trkpt lat="59.9536652025" lon="31.0355095938"><ele>2.54</ele><time>2015-06-07T06:53:38Z</time></trkpt><trkpt lat="59.9536496960" lon="31.0355115216"><ele>0.62</ele><time>2015-06-07T06:53:52Z</time></trkpt><trkpt lat="59.9536650348" lon="31.0355033912"><ele>0.62</ele><time>2015-06-07T06:54:11Z</time></trkpt><trkpt lat="59.9536617659" lon="31.0354959313"><ele>5.42</ele><time>2015-06-07T06:54:29Z</time></trkpt><trkpt lat="59.9536863249" lon="31.0354775749"><ele>9.27</ele><time>2015-06-07T06:54:53Z</time></trkpt><trkpt lat="59.9537051842" lon="31.0354652535"><ele>7.35</ele><time>2015-06-07T06:55:19Z</time></trkpt><trkpt lat="59.9537060224" lon="31.0354723781"><ele>7.83</ele><time>2015-06-07T06:55:43Z</time></trkpt><trkpt lat="59.9536885042" lon="31.0354568716"><ele>7.35</ele><time>2015-06-07T06:56:01Z</time></trkpt><trkpt lat="59.9536781944" lon="31.0355039779"><ele>8.31</ele><time>2015-06-07T06:56:20Z</time></trkpt><trkpt lat="59.9536926951" lon="31.0354652535"><ele>8.31</ele><time>2015-06-07T06:56:38Z</time></trkpt><trkpt lat="59.9536709022" lon="31.0354924947"><ele>8.31</ele><time>2015-06-07T06:56:58Z</time></trkpt><trkpt lat="59.9536786135" lon="31.0354700312"><ele>8.31</ele><time>2015-06-07T06:57:20Z</time></trkpt><trkpt lat="59.9536902644" lon="31.0354683548"><ele>8.79</ele><time>2015-06-07T06:57:44Z</time></trkpt><trkpt lat="59.9536949582" lon="31.0354701988"><ele>8.79</ele><time>2015-06-07T06:58:06Z</time></trkpt><trkpt lat="59.9537056871" lon="31.0354588833"><ele>8.79</ele><time>2015-06-07T06:58:28Z</time></trkpt><trkpt lat="59.9536975566" lon="31.0354655888"><ele>8.31</ele><time>2015-06-07T06:58:49Z</time></trkpt><trkpt lat="59.9536868278" lon="31.0354597215"><ele>8.31</ele><time>2015-06-07T06:59:10Z</time></trkpt><trkpt lat="59.9537022505" lon="31.0354490764"><ele>9.75</ele><time>2015-06-07T06:59:28Z</time></trkpt><trkpt lat="59.9536962993" lon="31.0354436282"><ele>9.75</ele><time>2015-06-07T06:59:48Z</time></trkpt><trkpt lat="59.9536782783" lon="31.0354715399"><ele>8.79</ele><time>2015-06-07T07:00:11Z</time></trkpt><trkpt lat="59.9536999874" lon="31.0354720429"><ele>9.75</ele><time>2015-06-07T07:00:37Z</time></trkpt><trkpt lat="59.9536973052" lon="31.0354861245"><ele>7.35</ele><time>2015-06-07T07:00:59Z</time></trkpt><trkpt lat="59.9536926113" lon="31.0354823526"><ele>7.83</ele><time>2015-06-07T07:01:21Z</time></trkpt><trkpt lat="59.9536895100" lon="31.0354653373"><ele>8.79</ele><time>2015-06-07T07:01:46Z</time></trkpt><trkpt lat="59.9536911864" lon="31.0354696121"><ele>7.35</ele><time>2015-06-07T07:02:07Z</time></trkpt><trkpt lat="59.9536770210" lon="31.0354743060"><ele>7.35</ele><time>2015-06-07T07:02:33Z</time></trkpt><trkpt lat="59.9536839779" lon="31.0354546923"><ele>4.94</ele><time>2015-06-07T07:03:00Z</time></trkpt><trkpt lat="59.9536926113" lon="31.0354534350"><ele>6.87</ele><time>2015-06-07T07:03:34Z</time></trkpt><trkpt lat="59.9536832236" lon="31.0354458913"><ele>8.31</ele><time>2015-06-07T07:04:11Z</time></trkpt><trkpt lat="59.9536892585" lon="31.0354895610"><ele>8.31</ele><time>2015-06-07T07:04:44Z</time></trkpt><trkpt lat="59.9536953773" lon="31.0354720429"><ele>8.79</ele><time>2015-06-07T07:05:13Z</time></trkpt><trkpt lat="59.9536949582" lon="31.0354936682"><ele>9.27</ele><time>2015-06-07T07:05:40Z</time></trkpt><trkpt lat="59.9536971375" lon="31.0354690254"><ele>8.79</ele><time>2015-06-07T07:06:11Z</time></trkpt><trkpt lat="59.9537097104" lon="31.0354778264"><ele>8.79</ele><time>2015-06-07T07:06:40Z</time></trkpt><trkpt lat="59.9536931980" lon="31.0354691092"><ele>7.35</ele><time>2015-06-07T07:07:07Z</time></trkpt><trkpt lat="59.9536937848" lon="31.0354733840"><ele>6.39</ele><time>2015-06-07T07:07:34Z</time></trkpt><trkpt lat="59.9536924437" lon="31.0354910698"><ele>6.87</ele><time>2015-06-07T07:08:04Z</time></trkpt><trkpt lat="59.9536772724" lon="31.0354790837"><ele>6.39</ele><time>2015-06-07T07:08:25Z</time></trkpt><trkpt lat="59.9536954612" lon="31.0354774911"><ele>8.31</ele><time>2015-06-07T07:08:57Z</time></trkpt><trkpt lat="59.9536797032" lon="31.0354854539"><ele>8.31</ele><time>2015-06-07T07:09:27Z</time></trkpt><trkpt lat="59.9536902644" lon="31.0354833584"><ele>8.31</ele><time>2015-06-07T07:09:56Z</time></trkpt><trkpt lat="59.9536899291" lon="31.0354787484"><ele>6.39</ele><time>2015-06-07T07:10:21Z</time></trkpt><trkpt lat="59.9536883365" lon="31.0354625713"><ele>8.31</ele><time>2015-06-07T07:10:42Z</time></trkpt><trkpt lat="59.9536838941" lon="31.0354805924"><ele>9.27</ele><time>2015-06-07T07:11:06Z</time></trkpt><trkpt lat="59.9536832236" lon="31.0354318097"><ele>8.79</ele><time>2015-06-07T07:11:37Z</time></trkpt><trkpt lat="59.9536881689" lon="31.0354553629"><ele>9.75</ele><time>2015-06-07T07:11:58Z</time></trkpt><trkpt lat="59.9536905997" lon="31.0354453046"><ele>8.79</ele><time>2015-06-07T07:12:26Z</time></trkpt><trkpt lat="59.9536799546" lon="31.0354414489"><ele>9.75</ele><time>2015-06-07T07:12:49Z</time></trkpt><trkpt lat="59.9537014123" lon="31.0354629904"><ele>8.79</ele><time>2015-06-07T07:13:17Z</time></trkpt><trkpt lat="59.9536899291" lon="31.0354730487"><ele>7.35</ele><time>2015-06-07T07:13:42Z</time></trkpt><trkpt lat="59.9536879174" lon="31.0354628228"><ele>7.83</ele><time>2015-06-07T07:14:03Z</time></trkpt><trkpt lat="59.9536714051" lon="31.0354554467"><ele>6.87</ele><time>2015-06-07T07:14:27Z</time></trkpt><trkpt lat="59.9536796194" lon="31.0354703665"><ele>4.94</ele><time>2015-06-07T07:14:58Z</time></trkpt><trkpt lat="59.9536873307" lon="31.0354697797"><ele>2.06</ele><time>2015-06-07T07:15:23Z</time></trkpt><trkpt lat="59.9536788650" lon="31.0354664270"><ele>5.91</ele><time>2015-06-07T07:15:50Z</time></trkpt><trkpt lat="59.9536815472" lon="31.0354989488"><ele>5.91</ele><time>2015-06-07T07:16:17Z</time></trkpt><trkpt lat="59.9536864925" lon="31.0354644991"><ele>5.91</ele><time>2015-06-07T07:16:52Z</time></trkpt><trkpt lat="59.9536731653" lon="31.0354600567"><ele>5.42</ele><time>2015-06-07T07:17:16Z</time></trkpt><trkpt lat="59.9536807928" lon="31.0354986973"><ele>2.54</ele><time>2015-06-07T07:17:50Z</time></trkpt><trkpt lat="59.9536883365" lon="31.0354903154"><ele>0.62</ele><time>2015-06-07T07:18:17Z</time></trkpt><trkpt lat="59.9537019152" lon="31.0354915727"><ele>1.10</ele><time>2015-06-07T07:18:40Z</time></trkpt><trkpt lat="59.9536765181" lon="31.0354836937"><ele>2.06</ele><time>2015-06-07T07:19:04Z</time></trkpt><trkpt lat="59.9536631908" lon="31.0355122760"><ele>5.42</ele><time>2015-06-07T07:19:32Z</time></trkpt><trkpt lat="59.9536752608" lon="31.0355209094"><ele>6.39</ele><time>2015-06-07T07:19:55Z</time></trkpt><trkpt lat="59.9536946230" lon="31.0354835261"><ele>3.98</ele><time>2015-06-07T07:20:26Z</time></trkpt><trkpt lat="59.9536861572" lon="31.0354878847"><ele>5.91</ele><time>2015-06-07T07:20:51Z</time></trkpt><trkpt lat="59.9536825530" lon="31.0355111863"><ele>4.46</ele><time>2015-06-07T07:21:18Z</time></trkpt><trkpt lat="59.9536934495" lon="31.0354830232"><ele>6.39</ele><time>2015-06-07T07:21:47Z</time></trkpt><trkpt lat="59.9536745064" lon="31.0354906507"><ele>9.27</ele><time>2015-06-07T07:22:19Z</time></trkpt><trkpt lat="59.9536785297" lon="31.0355039779"><ele>7.83</ele><time>2015-06-07T07:22:46Z</time></trkpt><trkpt lat="59.9536733329" lon="31.0355059057"><ele>5.42</ele><time>2015-06-07T07:23:13Z</time></trkpt><trkpt lat="59.9536916893" lon="31.0354773235"><ele>5.91</ele><time>2015-06-07T07:23:39Z</time></trkpt><trkpt lat="59.9536989816" lon="31.0354589671"><ele>6.39</ele><time>2015-06-07T07:23:59Z</time></trkpt><trkpt lat="59.9537051003" lon="31.0354745574"><ele>5.91</ele><time>2015-06-07T07:24:22Z</time></trkpt><trkpt lat="59.9537031725" lon="31.0354821850"><ele>6.87</ele><time>2015-06-07T07:24:46Z</time></trkpt><trkpt lat="59.9537028372" lon="31.0354628228"><ele>7.35</ele><time>2015-06-07T07:25:05Z</time></trkpt><trkpt lat="59.9537273124" lon="31.0354132019"><ele>7.35</ele><time>2015-06-07T07:25:26Z</time></trkpt><trkpt lat="59.9537371192" lon="31.0354181472"><ele>6.39</ele><time>2015-06-07T07:25:52Z</time></trkpt><trkpt lat="59.9537642766" lon="31.0353992041"><ele>5.91</ele><time>2015-06-07T07:26:16Z</time></trkpt><trkpt lat="59.9537958764" lon="31.0354092624"><ele>5.91</ele><time>2015-06-07T07:26:32Z</time></trkpt><trkpt lat="59.9539036676" lon="31.0353686940"><ele>7.35</ele><time>2015-06-07T07:26:56Z</time></trkpt><trkpt lat="59.9539249577" lon="31.0352115333"><ele>6.87</ele><time>2015-06-07T07:27:18Z</time></trkpt><trkpt lat="59.9539917614" lon="31.0349523649"><ele>7.35</ele><time>2015-06-07T07:27:35Z</time></trkpt><trkpt lat="59.9540175777" lon="31.0347679630"><ele>7.83</ele><time>2015-06-07T07:27:48Z</time></trkpt><trkpt lat="59.9539580662" lon="31.0345956311"><ele>7.83</ele><time>2015-06-07T07:27:56Z</time></trkpt><trkpt lat="59.9538182560" lon="31.0345127340"><ele>7.35</ele><time>2015-06-07T07:28:14Z</time></trkpt><trkpt lat="59.9537635222" lon="31.0345350299"><ele>6.39</ele><time>2015-06-07T07:28:30Z</time></trkpt><trkpt lat="59.9538011570" lon="31.0345584154"><ele>5.42</ele><time>2015-06-07T07:28:51Z</time></trkpt><trkpt lat="59.9538349360" lon="31.0345434956"><ele>5.91</ele><time>2015-06-07T07:29:07Z</time></trkpt><trkpt lat="59.9538599141" lon="31.0345887579"><ele>6.39</ele><time>2015-06-07T07:29:25Z</time></trkpt><trkpt lat="59.9539020751" lon="31.0346032586"><ele>6.39</ele><time>2015-06-07T07:29:42Z</time></trkpt><trkpt lat="59.9538959563" lon="31.0345663782"><ele>5.91</ele><time>2015-06-07T07:30:01Z</time></trkpt><trkpt lat="59.9538957048" lon="31.0345205292"><ele>6.39</ele><time>2015-06-07T07:30:19Z</time></trkpt><trkpt lat="59.9538813718" lon="31.0344884265"><ele>5.91</ele><time>2015-06-07T07:30:38Z</time></trkpt><trkpt lat="59.9538801983" lon="31.0344258975"><ele>5.91</ele><time>2015-06-07T07:31:00Z</time></trkpt><trkpt lat="59.9538734090" lon="31.0343744326"><ele>6.39</ele><time>2015-06-07T07:31:24Z</time></trkpt><trkpt lat="59.9538626801" lon="31.0343381390"><ele>6.39</ele><time>2015-06-07T07:31:44Z</time></trkpt><trkpt lat="59.9538408872" lon="31.0343208723"><ele>5.42</ele><time>2015-06-07T07:32:04Z</time></trkpt><trkpt lat="59.9537843931" lon="31.0343658831"><ele>5.91</ele><time>2015-06-07T07:32:27Z</time></trkpt><trkpt lat="59.9537528772" lon="31.0343330260"><ele>4.94</ele><time>2015-06-07T07:32:52Z</time></trkpt><trkpt lat="59.9536848161" lon="31.0342388973"><ele>5.42</ele><time>2015-06-07T07:33:14Z</time></trkpt><trkpt lat="59.9536134861" lon="31.0342565831"><ele>5.42</ele><time>2015-06-07T07:33:36Z</time></trkpt><trkpt lat="59.9535957165" lon="31.0343324393"><ele>4.94</ele><time>2015-06-07T07:33:56Z</time></trkpt><trkpt lat="59.9535804614" lon="31.0344378836"><ele>5.42</ele><time>2015-06-07T07:34:19Z</time></trkpt><trkpt lat="59.9535875022" lon="31.0344292503"><ele>5.42</ele><time>2015-06-07T07:34:20Z</time></trkpt><trkpt lat="59.9535526335" lon="31.0341616161"><ele>6.39</ele><time>2015-06-07T07:34:28Z</time></trkpt><trkpt lat="59.9531931337" lon="31.0336685088"><ele>6.39</ele><time>2015-06-07T07:34:48Z</time></trkpt><trkpt lat="59.9529142678" lon="31.0333323106"><ele>4.94</ele><time>2015-06-07T07:35:03Z</time></trkpt><trkpt lat="59.9526420236" lon="31.0329390317"><ele>4.46</ele><time>2015-06-07T07:35:20Z</time></trkpt><trkpt lat="59.9523298815" lon="31.0324953776"><ele>4.94</ele><time>2015-06-07T07:35:41Z</time></trkpt><trkpt lat="59.9519520253" lon="31.0320468619"><ele>4.94</ele><time>2015-06-07T07:36:04Z</time></trkpt><trkpt lat="59.9517176673" lon="31.0314337257"><ele>5.91</ele><time>2015-06-07T07:36:27Z</time></trkpt><trkpt lat="59.9513912760" lon="31.0309180710"><ele>5.42</ele><time>2015-06-07T07:36:49Z</time></trkpt><trkpt lat="59.9512082152" lon="31.0304773506"><ele>5.42</ele><time>2015-06-07T07:37:05Z</time></trkpt><trkpt lat="59.9509881902" lon="31.0301285796"><ele>5.42</ele><time>2015-06-07T07:37:22Z</time></trkpt><trkpt lat="59.9506747909" lon="31.0295845941"><ele>5.91</ele><time>2015-06-07T07:37:41Z</time></trkpt><trkpt lat="59.9503301270" lon="31.0290533490"><ele>5.42</ele><time>2015-06-07T07:38:03Z</time></trkpt><trkpt lat="59.9499294721" lon="31.0284029134"><ele>5.91</ele><time>2015-06-07T07:38:28Z</time></trkpt><trkpt lat="59.9495607521" lon="31.0278016794"><ele>6.39</ele><time>2015-06-07T07:38:47Z</time></trkpt><trkpt lat="59.9490740150" lon="31.0271601286"><ele>5.42</ele><time>2015-06-07T07:39:12Z</time></trkpt><trkpt lat="59.9485386629" lon="31.0263071861"><ele>5.91</ele><time>2015-06-07T07:39:36Z</time></trkpt><trkpt lat="59.9480101839" lon="31.0252097435"><ele>5.91</ele><time>2015-06-07T07:39:59Z</time></trkpt><trkpt lat="59.9476435594" lon="31.0241595749"><ele>5.42</ele><time>2015-06-07T07:40:19Z</time></trkpt><trkpt lat="59.9473438226" lon="31.0231112503"><ele>4.94</ele><time>2015-06-07T07:40:39Z</time></trkpt><trkpt lat="59.9471201934" lon="31.0221832898"><ele>4.94</ele><time>2015-06-07T07:40:56Z</time></trkpt><trkpt lat="59.9468913674" lon="31.0209622141"><ele>4.94</ele><time>2015-06-07T07:41:19Z</time></trkpt><trkpt lat="59.9466102384" lon="31.0198600776"><ele>4.46</ele><time>2015-06-07T07:41:41Z</time></trkpt><trkpt lat="59.9463572726" lon="31.0188275110"><ele>3.98</ele><time>2015-06-07T07:42:01Z</time></trkpt><trkpt lat="59.9461427797" lon="31.0178836249"><ele>2.54</ele><time>2015-06-07T07:42:20Z</time></trkpt><trkpt lat="59.9459129479" lon="31.0168431792"><ele>3.02</ele><time>2015-06-07T07:42:42Z</time></trkpt><trkpt lat="59.9456598144" lon="31.0160176456"><ele>2.06</ele><time>2015-06-07T07:43:00Z</time></trkpt><trkpt lat="59.9455059227" lon="31.0150808841"><ele>3.98</ele><time>2015-06-07T07:43:19Z</time></trkpt><trkpt lat="59.9454014841" lon="31.0142196435"><ele>4.46</ele><time>2015-06-07T07:43:37Z</time></trkpt><trkpt lat="59.9451778550" lon="31.0132933594"><ele>4.46</ele><time>2015-06-07T07:43:57Z</time></trkpt><trkpt lat="59.9449017551" lon="31.0123892874"><ele>3.98</ele><time>2015-06-07T07:44:19Z</time></trkpt><trkpt lat="59.9446578417" lon="31.0115536116"><ele>4.94</ele><time>2015-06-07T07:44:39Z</time></trkpt><trkpt lat="59.9443980027" lon="31.0105839092"><ele>5.42</ele><time>2015-06-07T07:45:02Z</time></trkpt><trkpt lat="59.9440838490" lon="31.0096846987"><ele>4.94</ele><time>2015-06-07T07:45:25Z</time></trkpt><trkpt lat="59.9438352417" lon="31.0086978972"><ele>4.46</ele><time>2015-06-07T07:45:49Z</time></trkpt><trkpt lat="59.9435986206" lon="31.0079237446"><ele>4.94</ele><time>2015-06-07T07:46:09Z</time></trkpt><trkpt lat="59.9432998057" lon="31.0071727261"><ele>4.94</ele><time>2015-06-07T07:46:31Z</time></trkpt><trkpt lat="59.9430939462" lon="31.0065226257"><ele>4.94</ele><time>2015-06-07T07:46:51Z</time></trkpt><trkpt lat="59.9430080317" lon="31.0061605275"><ele>4.94</ele><time>2015-06-07T07:47:08Z</time></trkpt><trkpt lat="59.9427869171" lon="31.0057107545"><ele>4.46</ele><time>2015-06-07T07:47:35Z</time></trkpt><trkpt lat="59.9426209554" lon="31.0053971037"><ele>4.46</ele><time>2015-06-07T07:47:55Z</time></trkpt><trkpt lat="59.9424241483" lon="31.0050272103"><ele>5.42</ele><time>2015-06-07T07:48:14Z</time></trkpt><trkpt lat="59.9422381539" lon="31.0044941213"><ele>5.42</ele><time>2015-06-07T07:48:37Z</time></trkpt><trkpt lat="59.9419646524" lon="31.0041089728"><ele>4.94</ele><time>2015-06-07T07:48:54Z</time></trkpt><trkpt lat="59.9414031487" lon="31.0038078949"><ele>4.94</ele><time>2015-06-07T07:49:18Z</time></trkpt><trkpt lat="59.9410719797" lon="31.0036109202"><ele>5.42</ele><time>2015-06-07T07:49:32Z</time></trkpt><trkpt lat="59.9406183511" lon="31.0032769013"><ele>5.91</ele><time>2015-06-07T07:49:51Z</time></trkpt><trkpt lat="59.9401550833" lon="31.0029741470"><ele>5.42</ele><time>2015-06-07T07:50:09Z</time></trkpt><trkpt lat="59.9396723695" lon="31.0027661920"><ele>3.98</ele><time>2015-06-07T07:50:27Z</time></trkpt><trkpt lat="59.9392069224" lon="31.0024723224"><ele>4.94</ele><time>2015-06-07T07:50:45Z</time></trkpt><trkpt lat="59.9390262924" lon="31.0020911973"><ele>4.46</ele><time>2015-06-07T07:50:55Z</time></trkpt><trkpt lat="59.9387152400" lon="31.0015927255"><ele>4.94</ele><time>2015-06-07T07:51:12Z</time></trkpt><trkpt lat="59.9384375475" lon="31.0013185535"><ele>4.94</ele><time>2015-06-07T07:51:25Z</time></trkpt><trkpt lat="59.9380860943" lon="31.0014022887"><ele>5.42</ele><time>2015-06-07T07:51:44Z</time></trkpt><trkpt lat="59.9378064740" lon="31.0014332179"><ele>5.42</ele><time>2015-06-07T07:52:04Z</time></trkpt><trkpt lat="59.9376214854" lon="31.0014451202"><ele>4.46</ele><time>2015-06-07T07:52:23Z</time></trkpt><trkpt lat="59.9373808410" lon="31.0014101677"><ele>4.94</ele><time>2015-06-07T07:52:40Z</time></trkpt><trkpt lat="59.9370324053" lon="31.0013150331"><ele>4.94</ele><time>2015-06-07T07:53:01Z</time></trkpt><trkpt lat="59.9365813751" lon="31.0010734666"><ele>4.94</ele><time>2015-06-07T07:53:21Z</time></trkpt><trkpt lat="59.9363629427" lon="31.0008246917"><ele>4.94</ele><time>2015-06-07T07:53:34Z</time></trkpt><trkpt lat="59.9360982422" lon="31.0000061151"><ele>6.39</ele><time>2015-06-07T07:53:50Z</time></trkpt><trkpt lat="59.9356933124" lon="30.9991049767"><ele>5.42</ele><time>2015-06-07T07:54:09Z</time></trkpt><trkpt lat="59.9352531787" lon="30.9983003978"><ele>5.42</ele><time>2015-06-07T07:54:28Z</time></trkpt><trkpt lat="59.9348412920" lon="30.9978264850"><ele>5.42</ele><time>2015-06-07T07:54:44Z</time></trkpt><trkpt lat="59.9344783556" lon="30.9973773826"><ele>4.94</ele><time>2015-06-07T07:55:04Z</time></trkpt><trkpt lat="59.9338754453" lon="30.9969686810"><ele>4.94</ele><time>2015-06-07T07:55:25Z</time></trkpt><trkpt lat="59.9332907237" lon="30.9966380987"><ele>3.98</ele><time>2015-06-07T07:55:45Z</time></trkpt><trkpt lat="59.9328576308" lon="30.9963476658"><ele>5.91</ele><time>2015-06-07T07:56:00Z</time></trkpt><trkpt lat="59.9323064368" lon="30.9960262198"><ele>5.91</ele><time>2015-06-07T07:56:19Z</time></trkpt><trkpt lat="59.9318265729" lon="30.9958127327"><ele>6.39</ele><time>2015-06-07T07:56:35Z</time></trkpt><trkpt lat="59.9312652368" lon="30.9954836592"><ele>6.39</ele><time>2015-06-07T07:56:54Z</time></trkpt><trkpt lat="59.9309087545" lon="30.9951674100"><ele>4.94</ele><time>2015-06-07T07:57:07Z</time></trkpt><trkpt lat="59.9305603188" lon="30.9947188944"><ele>5.42</ele><time>2015-06-07T07:57:24Z</time></trkpt><trkpt lat="59.9301599152" lon="30.9941227734"><ele>5.91</ele><time>2015-06-07T07:57:45Z</time></trkpt><trkpt lat="59.9297875073" lon="30.9934683144"><ele>6.87</ele><time>2015-06-07T07:58:03Z</time></trkpt><trkpt lat="59.9293472059" lon="30.9930333775"><ele>6.87</ele><time>2015-06-07T07:58:20Z</time></trkpt><trkpt lat="59.9288767297" lon="30.9925150406"><ele>6.87</ele><time>2015-06-07T07:58:37Z</time></trkpt><trkpt lat="59.9282399565" lon="30.9918734059"><ele>5.91</ele><time>2015-06-07T07:58:59Z</time></trkpt><trkpt lat="59.9276375491" lon="30.9913727548"><ele>4.46</ele><time>2015-06-07T07:59:19Z</time></trkpt><trkpt lat="59.9269783124" lon="30.9907555953"><ele>4.46</ele><time>2015-06-07T07:59:42Z</time></trkpt><trkpt lat="59.9266478140" lon="30.9904242586"><ele>3.98</ele><time>2015-06-07T07:59:59Z</time></trkpt><trkpt lat="59.9260236137" lon="30.9902467299"><ele>4.46</ele><time>2015-06-07T08:00:20Z</time></trkpt><trkpt lat="59.9254017603" lon="30.9899736475"><ele>4.94</ele><time>2015-06-07T08:00:41Z</time></trkpt><trkpt lat="59.9249209743" lon="30.9897361044"><ele>4.94</ele><time>2015-06-07T08:00:59Z</time></trkpt><trkpt lat="59.9245641567" lon="30.9899263736"><ele>6.87</ele><time>2015-06-07T08:01:17Z</time></trkpt><trkpt lat="59.9241731409" lon="30.9903235082"><ele>5.91</ele><time>2015-06-07T08:01:39Z</time></trkpt><trkpt lat="59.9237162434" lon="30.9904069919"><ele>5.91</ele><time>2015-06-07T08:02:01Z</time></trkpt><trkpt lat="59.9233124033" lon="30.9901271202"><ele>5.42</ele><time>2015-06-07T08:02:17Z</time></trkpt><trkpt lat="59.9228892010" lon="30.9897921793"><ele>5.91</ele><time>2015-06-07T08:02:33Z</time></trkpt><trkpt lat="59.9223879632" lon="30.9895212762"><ele>5.42</ele><time>2015-06-07T08:02:51Z</time></trkpt><trkpt lat="59.9219545349" lon="30.9892134927"><ele>6.39</ele><time>2015-06-07T08:03:08Z</time></trkpt><trkpt lat="59.9215104617" lon="30.9890458547"><ele>6.87</ele><time>2015-06-07T08:03:25Z</time></trkpt><trkpt lat="59.9209580105" lon="30.9887031186"><ele>6.39</ele><time>2015-06-07T08:03:46Z</time></trkpt><trkpt lat="59.9204879533" lon="30.9883696865"><ele>6.39</ele><time>2015-06-07T08:04:05Z</time></trkpt><trkpt lat="59.9201047327" lon="30.9882279485"><ele>5.91</ele><time>2015-06-07T08:04:21Z</time></trkpt><trkpt lat="59.9197614100" lon="30.9881914873"><ele>6.39</ele><time>2015-06-07T08:04:38Z</time></trkpt><trkpt lat="59.9191830587" lon="30.9881423693"><ele>6.39</ele><time>2015-06-07T08:04:59Z</time></trkpt><trkpt lat="59.9185829982" lon="30.9879920818"><ele>5.91</ele><time>2015-06-07T08:05:20Z</time></trkpt><trkpt lat="59.9180007912" lon="30.9877852164"><ele>5.91</ele><time>2015-06-07T08:05:41Z</time></trkpt><trkpt lat="59.9174388684" lon="30.9876239486"><ele>5.91</ele><time>2015-06-07T08:06:01Z</time></trkpt><trkpt lat="59.9168730900" lon="30.9876683727"><ele>5.42</ele><time>2015-06-07T08:06:21Z</time></trkpt><trkpt lat="59.9164627120" lon="30.9875986353"><ele>4.94</ele><time>2015-06-07T08:06:37Z</time></trkpt><trkpt lat="59.9160317983" lon="30.9876616672"><ele>4.94</ele><time>2015-06-07T08:06:55Z</time></trkpt><trkpt lat="59.9154338334" lon="30.9877577238"><ele>6.39</ele><time>2015-06-07T08:07:21Z</time></trkpt><trkpt lat="59.9149227887" lon="30.9878301434"><ele>5.42</ele><time>2015-06-07T08:07:40Z</time></trkpt><trkpt lat="59.9143707566" lon="30.9881037287"><ele>5.42</ele><time>2015-06-07T08:08:01Z</time></trkpt><trkpt lat="59.9136291258" lon="30.9885840956"><ele>4.94</ele><time>2015-06-07T08:08:29Z</time></trkpt><trkpt lat="59.9133082666" lon="30.9885769710"><ele>5.42</ele><time>2015-06-07T08:08:45Z</time></trkpt><trkpt lat="59.9128245469" lon="30.9887083154"><ele>5.42</ele><time>2015-06-07T08:09:07Z</time></trkpt><trkpt lat="59.9124176893" lon="30.9885524120"><ele>6.39</ele><time>2015-06-07T08:09:25Z</time></trkpt><trkpt lat="59.9120262545" lon="30.9883564431"><ele>5.91</ele><time>2015-06-07T08:09:49Z</time></trkpt><trkpt lat="59.9116188940" lon="30.9883989394"><ele>5.91</ele><time>2015-06-07T08:10:09Z</time></trkpt><trkpt lat="59.9112697877" lon="30.9882771503"><ele>6.39</ele><time>2015-06-07T08:10:30Z</time></trkpt><trkpt lat="59.9109485932" lon="30.9881185647"><ele>5.91</ele><time>2015-06-07T08:10:48Z</time></trkpt><trkpt lat="59.9106073659" lon="30.9881335683"><ele>6.39</ele><time>2015-06-07T08:11:03Z</time></trkpt><trkpt lat="59.9105569907" lon="30.9880843665"><ele>6.87</ele><time>2015-06-07T08:11:06Z</time></trkpt><trkpt lat="59.9105932843" lon="30.9879587218"><ele>7.35</ele><time>2015-06-07T08:11:17Z</time></trkpt><trkpt lat="59.9104292504" lon="30.9882872086"><ele>6.39</ele><time>2015-06-07T08:11:27Z</time></trkpt><trkpt lat="59.9103234708" lon="30.9882700257"><ele>6.39</ele><time>2015-06-07T08:11:31Z</time></trkpt><trkpt lat="59.9100074731" lon="30.9879151359"><ele>6.87</ele><time>2015-06-07T08:11:49Z</time></trkpt><trkpt lat="59.9095939100" lon="30.9878030699"><ele>5.42</ele><time>2015-06-07T08:12:10Z</time></trkpt><trkpt lat="59.9090892356" lon="30.9877086058"><ele>4.94</ele><time>2015-06-07T08:12:34Z</time></trkpt><trkpt lat="59.9087755010" lon="30.9874237049"><ele>4.46</ele><time>2015-06-07T08:12:54Z</time></trkpt><trkpt lat="59.9084037635" lon="30.9873185959"><ele>6.39</ele><time>2015-06-07T08:13:10Z</time></trkpt><trkpt lat="59.9081606884" lon="30.9868654702"><ele>5.91</ele><time>2015-06-07T08:13:25Z</time></trkpt><trkpt lat="59.9077865202" lon="30.9865172021"><ele>4.94</ele><time>2015-06-07T08:13:41Z</time></trkpt><trkpt lat="59.9075482227" lon="30.9864350595"><ele>3.50</ele><time>2015-06-07T08:13:56Z</time></trkpt><trkpt lat="59.9072907306" lon="30.9868470300"><ele>8.31</ele><time>2015-06-07T08:14:11Z</time></trkpt><trkpt lat="59.9068039097" lon="30.9872460086"><ele>8.79</ele><time>2015-06-07T08:14:31Z</time></trkpt><trkpt lat="59.9064558093" lon="30.9871928673"><ele>5.91</ele><time>2015-06-07T08:14:47Z</time></trkpt><trkpt lat="59.9059445132" lon="30.9869044460"><ele>6.39</ele><time>2015-06-07T08:15:11Z</time></trkpt><trkpt lat="59.9055318721" lon="30.9866287652"><ele>5.91</ele><time>2015-06-07T08:15:31Z</time></trkpt><trkpt lat="59.9050655868" lon="30.9863425232"><ele>5.91</ele><time>2015-06-07T08:15:53Z</time></trkpt><trkpt lat="59.9046816118" lon="30.9861232527"><ele>6.39</ele><time>2015-06-07T08:16:10Z</time></trkpt><trkpt lat="59.9042035919" lon="30.9859329835"><ele>6.87</ele><time>2015-06-07T08:16:31Z</time></trkpt><trkpt lat="59.9037487060" lon="30.9855945222"><ele>6.39</ele><time>2015-06-07T08:16:54Z</time></trkpt><trkpt lat="59.9032844324" lon="30.9851921909"><ele>5.91</ele><time>2015-06-07T08:17:18Z</time></trkpt><trkpt lat="59.9028448854" lon="30.9850451723"><ele>5.42</ele><time>2015-06-07T08:17:38Z</time></trkpt><trkpt lat="59.9023696315" lon="30.9848991595"><ele>5.42</ele><time>2015-06-07T08:18:01Z</time></trkpt><trkpt lat="59.9018560722" lon="30.9847720060"><ele>6.39</ele><time>2015-06-07T08:18:24Z</time></trkpt><trkpt lat="59.9014209677" lon="30.9845224768"><ele>5.42</ele><time>2015-06-07T08:18:44Z</time></trkpt><trkpt lat="59.9009597115" lon="30.9843001887"><ele>5.42</ele><time>2015-06-07T08:19:06Z</time></trkpt><trkpt lat="59.9005717970" lon="30.9840939101"><ele>6.39</ele><time>2015-06-07T08:19:27Z</time></trkpt><trkpt lat="59.9002245348" lon="30.9840059001"><ele>5.42</ele><time>2015-06-07T08:19:47Z</time></trkpt><trkpt lat="59.8999471776" lon="30.9837652557"><ele>5.91</ele><time>2015-06-07T08:20:06Z</time></trkpt><trkpt lat="59.8996853270" lon="30.9835921694"><ele>5.91</ele><time>2015-06-07T08:20:23Z</time></trkpt><trkpt lat="59.8993039504" lon="30.9834348410"><ele>5.42</ele><time>2015-06-07T08:20:46Z</time></trkpt><trkpt lat="59.8989784811" lon="30.9833595715"><ele>5.91</ele><time>2015-06-07T08:21:14Z</time></trkpt><trkpt lat="59.8987763934" lon="30.9834122099"><ele>4.46</ele><time>2015-06-07T08:21:35Z</time></trkpt><trkpt lat="59.8986313026" lon="30.9834527783"><ele>3.98</ele><time>2015-06-07T08:21:53Z</time></trkpt><trkpt lat="59.8984524328" lon="30.9835065901"><ele>3.50</ele><time>2015-06-07T08:22:15Z</time></trkpt><trkpt lat="59.8983121198" lon="30.9835573845"><ele>4.46</ele><time>2015-06-07T08:22:31Z</time></trkpt><trkpt lat="59.8980644345" lon="30.9835054167"><ele>4.94</ele><time>2015-06-07T08:22:51Z</time></trkpt><trkpt lat="59.8977217823" lon="30.9834851325"><ele>4.94</ele><time>2015-06-07T08:23:16Z</time></trkpt><trkpt lat="59.8974151723" lon="30.9834451508"><ele>5.42</ele><time>2015-06-07T08:23:42Z</time></trkpt><trkpt lat="59.8971487954" lon="30.9834683686"><ele>5.91</ele><time>2015-06-07T08:24:06Z</time></trkpt><trkpt lat="59.8968466278" lon="30.9834929276"><ele>4.94</ele><time>2015-06-07T08:24:34Z</time></trkpt><trkpt lat="59.8965774849" lon="30.9834487550"><ele>5.42</ele><time>2015-06-07T08:24:58Z</time></trkpt><trkpt lat="59.8962981999" lon="30.9832837153"><ele>5.91</ele><time>2015-06-07T08:25:23Z</time></trkpt><trkpt lat="59.8960509337" lon="30.9831817914"><ele>5.42</ele><time>2015-06-07T08:25:43Z</time></trkpt><trkpt lat="59.8958822060" lon="30.9832047578"><ele>6.39</ele><time>2015-06-07T08:26:00Z</time></trkpt><trkpt lat="59.8957122210" lon="30.9832589887"><ele>6.87</ele><time>2015-06-07T08:26:19Z</time></trkpt><trkpt lat="59.8954779468" lon="30.9832817037"><ele>6.39</ele><time>2015-06-07T08:26:45Z</time></trkpt><trkpt lat="59.8952802178" lon="30.9834064264"><ele>6.39</ele><time>2015-06-07T08:27:10Z</time></trkpt><trkpt lat="59.8951064609" lon="30.9834767506"><ele>6.39</ele><time>2015-06-07T08:27:35Z</time></trkpt><trkpt lat="59.8950903676" lon="30.9834836237"><ele>6.39</ele><time>2015-06-07T08:27:37Z</time></trkpt><trkpt lat="59.8948218115" lon="30.9835581388"><ele>6.87</ele><time>2015-06-07T08:27:49Z</time></trkpt><trkpt lat="59.8943424504" lon="30.9828504547"><ele>6.87</ele><time>2015-06-07T08:28:07Z</time></trkpt><trkpt lat="59.8938358482" lon="30.9820784815"><ele>6.87</ele><time>2015-06-07T08:28:26Z</time></trkpt><trkpt lat="59.8933621030" lon="30.9816924948"><ele>5.91</ele><time>2015-06-07T08:28:48Z</time></trkpt><trkpt lat="59.8928995896" lon="30.9813500103"><ele>5.91</ele><time>2015-06-07T08:29:10Z</time></trkpt><trkpt lat="59.8924954981" lon="30.9809978027"><ele>8.31</ele><time>2015-06-07T08:29:35Z</time></trkpt><trkpt lat="59.8920156341" lon="30.9807906020"><ele>6.87</ele><time>2015-06-07T08:30:05Z</time></trkpt><trkpt lat="59.8915603291" lon="30.9805469401"><ele>4.94</ele><time>2015-06-07T08:30:33Z</time></trkpt><trkpt lat="59.8911618534" lon="30.9803437628"><ele>4.46</ele><time>2015-06-07T08:30:58Z</time></trkpt><trkpt lat="59.8907627072" lon="30.9801850095"><ele>3.50</ele><time>2015-06-07T08:31:21Z</time></trkpt><trkpt lat="59.8903080728" lon="30.9800108336"><ele>2.54</ele><time>2015-06-07T08:31:48Z</time></trkpt><trkpt lat="59.8898535222" lon="30.9798908886"><ele>3.02</ele><time>2015-06-07T08:32:15Z</time></trkpt><trkpt lat="59.8894854728" lon="30.9796103463"><ele>3.02</ele><time>2015-06-07T08:32:39Z</time></trkpt><trkpt lat="59.8892102111" lon="30.9793194942"><ele>3.50</ele><time>2015-06-07T08:32:58Z</time></trkpt><trkpt lat="59.8888362944" lon="30.9789949469"><ele>3.50</ele><time>2015-06-07T08:33:20Z</time></trkpt><trkpt lat="59.8882087413" lon="30.9787175898"><ele>3.50</ele><time>2015-06-07T08:33:47Z</time></trkpt><trkpt lat="59.8877320625" lon="30.9784652945"><ele>3.02</ele><time>2015-06-07T08:34:09Z</time></trkpt><trkpt lat="59.8872809485" lon="30.9784296714"><ele>3.02</ele><time>2015-06-07T08:34:36Z</time></trkpt><trkpt lat="59.8867901880" lon="30.9783718362"><ele>2.54</ele><time>2015-06-07T08:35:06Z</time></trkpt><trkpt lat="59.8863990046" lon="30.9783298429"><ele>2.06</ele><time>2015-06-07T08:35:30Z</time></trkpt><trkpt lat="59.8860680871" lon="30.9782350436"><ele>3.02</ele><time>2015-06-07T08:35:51Z</time></trkpt><trkpt lat="59.8856628221" lon="30.9779925551"><ele>3.02</ele><time>2015-06-07T08:36:18Z</time></trkpt><trkpt lat="59.8852561321" lon="30.9777728654"><ele>3.50</ele><time>2015-06-07T08:36:45Z</time></trkpt><trkpt lat="59.8848215304" lon="30.9775449615"><ele>3.50</ele><time>2015-06-07T08:37:14Z</time></trkpt><trkpt lat="59.8843904492" lon="30.9775892179"><ele>3.50</ele><time>2015-06-07T08:37:41Z</time></trkpt><trkpt lat="59.8840099946" lon="30.9773506690"><ele>3.02</ele><time>2015-06-07T08:38:01Z</time></trkpt><trkpt lat="59.8836375866" lon="30.9770762455"><ele>2.54</ele><time>2015-06-07T08:38:24Z</time></trkpt><trkpt lat="59.8832407035" lon="30.9769667778"><ele>2.06</ele><time>2015-06-07T08:38:47Z</time></trkpt><trkpt lat="59.8828433175" lon="30.9767976310"><ele>2.06</ele><time>2015-06-07T08:39:11Z</time></trkpt><trkpt lat="59.8824171815" lon="30.9765750915"><ele>2.54</ele><time>2015-06-07T08:39:33Z</time></trkpt><trkpt lat="59.8817461263" lon="30.9760171920"><ele>3.02</ele><time>2015-06-07T08:39:57Z</time></trkpt><trkpt lat="59.8811857123" lon="30.9757334646"><ele>2.54</ele><time>2015-06-07T08:40:19Z</time></trkpt><trkpt lat="59.8806529585" lon="30.9752664249"><ele>3.50</ele><time>2015-06-07T08:40:40Z</time></trkpt><trkpt lat="59.8801913671" lon="30.9751174785"><ele>3.50</ele><time>2015-06-07T08:41:03Z</time></trkpt><trkpt lat="59.8796981759" lon="30.9748996329"><ele>3.02</ele><time>2015-06-07T08:41:29Z</time></trkpt><trkpt lat="59.8792642448" lon="30.9745909274"><ele>3.50</ele><time>2015-06-07T08:41:48Z</time></trkpt><trkpt lat="59.8786837980" lon="30.9743892588"><ele>3.02</ele><time>2015-06-07T08:42:20Z</time></trkpt><trkpt lat="59.8782704864" lon="30.9742465150"><ele>2.54</ele><time>2015-06-07T08:42:42Z</time></trkpt><trkpt lat="59.8777803965" lon="30.9740327764"><ele>2.06</ele><time>2015-06-07T08:43:11Z</time></trkpt><trkpt lat="59.8773735389" lon="30.9740063734"><ele>3.02</ele><time>2015-06-07T08:43:35Z</time></trkpt><trkpt lat="59.8769599758" lon="30.9738297667"><ele>3.02</ele><time>2015-06-07T08:43:51Z</time></trkpt><trkpt lat="59.8765658587" lon="30.9737197123"><ele>3.50</ele><time>2015-06-07T08:44:10Z</time></trkpt><trkpt lat="59.8761046026" lon="30.9736840893"><ele>2.54</ele><time>2015-06-07T08:44:34Z</time></trkpt><trkpt lat="59.8757255729" lon="30.9736920521"><ele>3.98</ele><time>2015-06-07T08:44:51Z</time></trkpt><trkpt lat="59.8752359860" lon="30.9734312072"><ele>3.50</ele><time>2015-06-07T08:45:10Z</time></trkpt><trkpt lat="59.8746009730" lon="30.9730281215"><ele>3.50</ele><time>2015-06-07T08:45:36Z</time></trkpt><trkpt lat="59.8742220271" lon="30.9728943463"><ele>3.02</ele><time>2015-06-07T08:45:52Z</time></trkpt><trkpt lat="59.8739614338" lon="30.9723116364"><ele>3.02</ele><time>2015-06-07T08:46:11Z</time></trkpt><trkpt lat="59.8740639444" lon="30.9718811419"><ele>4.46</ele><time>2015-06-07T08:46:22Z</time></trkpt><trkpt lat="59.8743406311" lon="30.9711495694"><ele>3.50</ele><time>2015-06-07T08:46:43Z</time></trkpt><trkpt lat="59.8745987937" lon="30.9705137182"><ele>4.46</ele><time>2015-06-07T08:47:02Z</time></trkpt><trkpt lat="59.8749413621" lon="30.9701583255"><ele>3.98</ele><time>2015-06-07T08:47:20Z</time></trkpt><trkpt lat="59.8750915658" lon="30.9697470255"><ele>3.98</ele><time>2015-06-07T08:47:32Z</time></trkpt><trkpt lat="59.8752557673" lon="30.9696399886"><ele>3.98</ele><time>2015-06-07T08:47:45Z</time></trkpt><trkpt lat="59.8754094914" lon="30.9697995801"><ele>3.98</ele><time>2015-06-07T08:47:58Z</time></trkpt><trkpt lat="59.8752337229" lon="30.9700258914"><ele>3.50</ele><time>2015-06-07T08:48:09Z</time></trkpt><trkpt lat="59.8748344090" lon="30.9700826369"><ele>3.50</ele><time>2015-06-07T08:48:30Z</time></trkpt><trkpt lat="59.8744998872" lon="30.9701688867"><ele>3.98</ele><time>2015-06-07T08:48:53Z</time></trkpt><trkpt lat="59.8742143996" lon="30.9704166558"><ele>4.94</ele><time>2015-06-07T08:49:15Z</time></trkpt><trkpt lat="59.8739362042" lon="30.9707873035"><ele>5.42</ele><time>2015-06-07T08:49:38Z</time></trkpt><trkpt lat="59.8736253195" lon="30.9709614795"><ele>5.42</ele><time>2015-06-07T08:49:59Z</time></trkpt><trkpt lat="59.8733548354" lon="30.9712532535"><ele>5.42</ele><time>2015-06-07T08:50:18Z</time></trkpt><trkpt lat="59.8731323797" lon="30.9715319518"><ele>4.94</ele><time>2015-06-07T08:50:29Z</time></trkpt><trkpt lat="59.8727082554" lon="30.9716259129"><ele>5.91</ele><time>2015-06-07T08:50:54Z</time></trkpt><trkpt lat="59.8723278847" lon="30.9716152679"><ele>4.94</ele><time>2015-06-07T08:51:16Z</time></trkpt><trkpt lat="59.8719719052" lon="30.9716597758"><ele>3.98</ele><time>2015-06-07T08:51:36Z</time></trkpt><trkpt lat="59.8716077954" lon="30.9717554133"><ele>3.50</ele><time>2015-06-07T08:51:54Z</time></trkpt><trkpt lat="59.8712570965" lon="30.9716213867"><ele>2.54</ele><time>2015-06-07T08:52:13Z</time></trkpt><trkpt lat="59.8708950821" lon="30.9714548383"><ele>3.02</ele><time>2015-06-07T08:52:35Z</time></trkpt><trkpt lat="59.8705268651" lon="30.9713490587"><ele>3.02</ele><time>2015-06-07T08:52:56Z</time></trkpt><trkpt lat="59.8702045809" lon="30.9710448794"><ele>2.06</ele><time>2015-06-07T08:53:18Z</time></trkpt><trkpt lat="59.8699008208" lon="30.9707928356"><ele>1.58</ele><time>2015-06-07T08:53:41Z</time></trkpt><trkpt lat="59.8695844878" lon="30.9708064143"><ele>2.54</ele><time>2015-06-07T08:54:02Z</time></trkpt><trkpt lat="59.8692492116" lon="30.9706323221"><ele>2.06</ele><time>2015-06-07T08:54:25Z</time></trkpt><trkpt lat="59.8689334653" lon="30.9706698731"><ele>2.06</ele><time>2015-06-07T08:54:43Z</time></trkpt><trkpt lat="59.8686204851" lon="30.9702959564"><ele>2.54</ele><time>2015-06-07T08:54:59Z</time></trkpt><trkpt lat="59.8680335004" lon="30.9698511288"><ele>2.54</ele><time>2015-06-07T08:55:22Z</time></trkpt><trkpt lat="59.8676762637" lon="30.9695535712"><ele>3.02</ele><time>2015-06-07T08:55:40Z</time></trkpt><trkpt lat="59.8673322704" lon="30.9691247530"><ele>3.02</ele><time>2015-06-07T08:56:00Z</time></trkpt><trkpt lat="59.8668694217" lon="30.9686378483"><ele>3.02</ele><time>2015-06-07T08:56:24Z</time></trkpt><trkpt lat="59.8664826807" lon="30.9682604950"><ele>3.02</ele><time>2015-06-07T08:56:50Z</time></trkpt><trkpt lat="59.8660693690" lon="30.9678771906"><ele>3.02</ele><time>2015-06-07T08:57:18Z</time></trkpt><trkpt lat="59.8656277265" lon="30.9677206166"><ele>3.02</ele><time>2015-06-07T08:57:45Z</time></trkpt><trkpt lat="59.8653385509" lon="30.9673836641"><ele>3.02</ele><time>2015-06-07T08:58:00Z</time></trkpt><trkpt lat="59.8649933003" lon="30.9670606256"><ele>2.54</ele><time>2015-06-07T08:58:23Z</time></trkpt><trkpt lat="59.8645612970" lon="30.9667567816"><ele>2.54</ele><time>2015-06-07T08:58:50Z</time></trkpt><trkpt lat="59.8641301319" lon="30.9665365890"><ele>3.02</ele><time>2015-06-07T08:59:15Z</time></trkpt><trkpt lat="59.8637757450" lon="30.9660071041"><ele>3.02</ele><time>2015-06-07T08:59:38Z</time></trkpt><trkpt lat="59.8634795286" lon="30.9655485302"><ele>3.50</ele><time>2015-06-07T09:00:03Z</time></trkpt><trkpt lat="59.8630421609" lon="30.9653288405"><ele>2.54</ele><time>2015-06-07T09:00:31Z</time></trkpt><trkpt lat="59.8626432661" lon="30.9650915489"><ele>2.54</ele><time>2015-06-07T09:00:57Z</time></trkpt><trkpt lat="59.8622539267" lon="30.9647322167"><ele>2.54</ele><time>2015-06-07T09:01:24Z</time></trkpt><trkpt lat="59.8618543614" lon="30.9644828551"><ele>2.54</ele><time>2015-06-07T09:01:50Z</time></trkpt><trkpt lat="59.8615371902" lon="30.9641815256"><ele>3.02</ele><time>2015-06-07T09:02:14Z</time></trkpt><trkpt lat="59.8611769360" lon="30.9639190044"><ele>3.02</ele><time>2015-06-07T09:02:39Z</time></trkpt><trkpt lat="59.8607936315" lon="30.9637565631"><ele>3.50</ele><time>2015-06-07T09:03:05Z</time></trkpt><trkpt lat="59.8604192119" lon="30.9635142423"><ele>3.02</ele><time>2015-06-07T09:03:32Z</time></trkpt><trkpt lat="59.8601405136" lon="30.9634098876"><ele>4.46</ele><time>2015-06-07T09:03:50Z</time></trkpt><trkpt lat="59.8601224087" lon="30.9634016734"><ele>3.98</ele><time>2015-06-07T09:03:51Z</time></trkpt><trkpt lat="59.8598516732" lon="30.9631488752"><ele>3.98</ele><time>2015-06-07T09:04:10Z</time></trkpt><trkpt lat="59.8594607413" lon="30.9627451189"><ele>3.50</ele><time>2015-06-07T09:04:37Z</time></trkpt><trkpt lat="59.8590776045" lon="30.9623025544"><ele>3.50</ele><time>2015-06-07T09:05:05Z</time></trkpt><trkpt lat="59.8587640375" lon="30.9620409552"><ele>3.02</ele><time>2015-06-07T09:05:28Z</time></trkpt><trkpt lat="59.8584330361" lon="30.9616708104"><ele>4.94</ele><time>2015-06-07T09:05:55Z</time></trkpt><trkpt lat="59.8581646476" lon="30.9612994082"><ele>4.94</ele><time>2015-06-07T09:06:18Z</time></trkpt><trkpt lat="59.8578452133" lon="30.9609361365"><ele>4.94</ele><time>2015-06-07T09:06:43Z</time></trkpt><trkpt lat="59.8574243579" lon="30.9605326317"><ele>3.50</ele><time>2015-06-07T09:07:11Z</time></trkpt><trkpt lat="59.8570286483" lon="30.9600359201"><ele>3.98</ele><time>2015-06-07T09:07:38Z</time></trkpt><trkpt lat="59.8566343635" lon="30.9594345186"><ele>4.46</ele><time>2015-06-07T09:08:08Z</time></trkpt><trkpt lat="59.8562314454" lon="30.9589015972"><ele>4.46</ele><time>2015-06-07T09:08:37Z</time></trkpt><trkpt lat="59.8559569381" lon="30.9585075639"><ele>3.98</ele><time>2015-06-07T09:08:58Z</time></trkpt><trkpt lat="59.8556070775" lon="30.9581157938"><ele>3.50</ele><time>2015-06-07T09:09:19Z</time></trkpt><trkpt lat="59.8553154711" lon="30.9575156495"><ele>3.98</ele><time>2015-06-07T09:09:34Z</time></trkpt><trkpt lat="59.8549539596" lon="30.9570093825"><ele>3.50</ele><time>2015-06-07T09:09:55Z</time></trkpt><trkpt lat="59.8547127284" lon="30.9564910457"><ele>3.98</ele><time>2015-06-07T09:10:15Z</time></trkpt><trkpt lat="59.8544143327" lon="30.9559868742"><ele>3.98</ele><time>2015-06-07T09:10:40Z</time></trkpt><trkpt lat="59.8541006818" lon="30.9555410407"><ele>3.50</ele><time>2015-06-07T09:11:03Z</time></trkpt><trkpt lat="59.8538079858" lon="30.9550490230"><ele>5.91</ele><time>2015-06-07T09:11:26Z</time></trkpt><trkpt lat="59.8535407707" lon="30.9546309337"><ele>4.94</ele><time>2015-06-07T09:11:47Z</time></trkpt><trkpt lat="59.8531180713" lon="30.9541785624"><ele>3.50</ele><time>2015-06-07T09:12:14Z</time></trkpt><trkpt lat="59.8528543767" lon="30.9537183959"><ele>4.46</ele><time>2015-06-07T09:12:34Z</time></trkpt><trkpt lat="59.8525131494" lon="30.9532011487"><ele>4.94</ele><time>2015-06-07T09:12:58Z</time></trkpt><trkpt lat="59.8520796373" lon="30.9526542295"><ele>4.46</ele><time>2015-06-07T09:13:27Z</time></trkpt><trkpt lat="59.8516607936" lon="30.9520949889"><ele>3.98</ele><time>2015-06-07T09:13:54Z</time></trkpt><trkpt lat="59.8513376713" lon="30.9515616484"><ele>3.98</ele><time>2015-06-07T09:14:17Z</time></trkpt><trkpt lat="59.8508645967" lon="30.9509237017"><ele>4.94</ele><time>2015-06-07T09:14:47Z</time></trkpt><trkpt lat="59.8504196014" lon="30.9504020959"><ele>4.94</ele><time>2015-06-07T09:15:13Z</time></trkpt><trkpt lat="59.8500052840" lon="30.9501049574"><ele>3.02</ele><time>2015-06-07T09:15:34Z</time></trkpt><trkpt lat="59.8493104242" lon="30.9498017002"><ele>3.02</ele><time>2015-06-07T09:15:59Z</time></trkpt><trkpt lat="59.8486779258" lon="30.9495346528"><ele>3.50</ele><time>2015-06-07T09:16:23Z</time></trkpt><trkpt lat="59.8481256422" lon="30.9493521787"><ele>2.54</ele><time>2015-06-07T09:16:45Z</time></trkpt><trkpt lat="59.8475084826" lon="30.9490579739"><ele>3.50</ele><time>2015-06-07T09:17:09Z</time></trkpt><trkpt lat="59.8468985315" lon="30.9487895016"><ele>3.50</ele><time>2015-06-07T09:17:34Z</time></trkpt><trkpt lat="59.8463681247" lon="30.9487092867"><ele>3.98</ele><time>2015-06-07T09:17:59Z</time></trkpt><trkpt lat="59.8458248936" lon="30.9484622721"><ele>3.98</ele><time>2015-06-07T09:18:17Z</time></trkpt><trkpt lat="59.8453700915" lon="30.9484090470"><ele>3.50</ele><time>2015-06-07T09:18:34Z</time></trkpt><trkpt lat="59.8448398523" lon="30.9482777026"><ele>2.54</ele><time>2015-06-07T09:18:52Z</time></trkpt><trkpt lat="59.8441121355" lon="30.9481015150"><ele>3.50</ele><time>2015-06-07T09:19:17Z</time></trkpt><trkpt lat="59.8435878474" lon="30.9480137564"><ele>2.54</ele><time>2015-06-07T09:19:39Z</time></trkpt><trkpt lat="59.8429655749" lon="30.9480429254"><ele>2.06</ele><time>2015-06-07T09:20:01Z</time></trkpt><trkpt lat="59.8424666841" lon="30.9479548316"><ele>2.54</ele><time>2015-06-07T09:20:19Z</time></trkpt><trkpt lat="59.8421323299" lon="30.9479570109"><ele>3.50</ele><time>2015-06-07T09:20:36Z</time></trkpt><trkpt lat="59.8417836428" lon="30.9480147623"><ele>3.50</ele><time>2015-06-07T09:20:55Z</time></trkpt><trkpt lat="59.8414101452" lon="30.9481633734"><ele>3.98</ele><time>2015-06-07T09:21:12Z</time></trkpt><trkpt lat="59.8408836778" lon="30.9483503737"><ele>3.50</ele><time>2015-06-07T09:21:32Z</time></trkpt><trkpt lat="59.8404095136" lon="30.9482548200"><ele>3.02</ele><time>2015-06-07T09:21:49Z</time></trkpt><trkpt lat="59.8398026638" lon="30.9483927861"><ele>3.02</ele><time>2015-06-07T09:22:08Z</time></trkpt><trkpt lat="59.8390539922" lon="30.9483882599"><ele>3.50</ele><time>2015-06-07T09:22:31Z</time></trkpt><trkpt lat="59.8386131879" lon="30.9484026767"><ele>3.50</ele><time>2015-06-07T09:22:49Z</time></trkpt><trkpt lat="59.8380947672" lon="30.9483876731"><ele>3.02</ele><time>2015-06-07T09:23:11Z</time></trkpt><trkpt lat="59.8374986462" lon="30.9483764414"><ele>3.02</ele><time>2015-06-07T09:23:36Z</time></trkpt><trkpt lat="59.8369465303" lon="30.9483517148"><ele>2.06</ele><time>2015-06-07T09:23:59Z</time></trkpt><trkpt lat="59.8364790715" lon="30.9484353662"><ele>3.02</ele><time>2015-06-07T09:24:17Z</time></trkpt><trkpt lat="59.8359740619" lon="30.9484036826"><ele>3.98</ele><time>2015-06-07T09:24:34Z</time></trkpt><trkpt lat="59.8354669567" lon="30.9483709093"><ele>3.98</ele><time>2015-06-07T09:24:51Z</time></trkpt><trkpt lat="59.8348203767" lon="30.9482254833"><ele>4.46</ele><time>2015-06-07T09:25:13Z</time></trkpt><trkpt lat="59.8342250939" lon="30.9481766168"><ele>4.94</ele><time>2015-06-07T09:25:33Z</time></trkpt><trkpt lat="59.8337656818" lon="30.9481635410"><ele>3.98</ele><time>2015-06-07T09:25:52Z</time></trkpt><trkpt lat="59.8333576508" lon="30.9480055422"><ele>3.02</ele><time>2015-06-07T09:26:08Z</time></trkpt><trkpt lat="59.8328989930" lon="30.9479591064"><ele>2.54</ele><time>2015-06-07T09:26:29Z</time></trkpt><trkpt lat="59.8323436920" lon="30.9478004370"><ele>3.98</ele><time>2015-06-07T09:26:53Z</time></trkpt><trkpt lat="59.8318390176" lon="30.9474945813"><ele>3.50</ele><time>2015-06-07T09:27:16Z</time></trkpt><trkpt lat="59.8313764203" lon="30.9474167973"><ele>4.94</ele><time>2015-06-07T09:27:39Z</time></trkpt><trkpt lat="59.8309836444" lon="30.9472713713"><ele>3.98</ele><time>2015-06-07T09:28:01Z</time></trkpt><trkpt lat="59.8306254856" lon="30.9471542761"><ele>3.98</ele><time>2015-06-07T09:28:21Z</time></trkpt><trkpt lat="59.8303048778" lon="30.9468401223"><ele>4.46</ele><time>2015-06-07T09:28:36Z</time></trkpt><trkpt lat="59.8300410155" lon="30.9465946164"><ele>4.94</ele><time>2015-06-07T09:28:50Z</time></trkpt><trkpt lat="59.8297420330" lon="30.9464554768"><ele>3.98</ele><time>2015-06-07T09:29:09Z</time></trkpt><trkpt lat="59.8294118699" lon="30.9462742601"><ele>3.98</ele><time>2015-06-07T09:29:28Z</time></trkpt><trkpt lat="59.8291243706" lon="30.9459803905"><ele>3.98</ele><time>2015-06-07T09:29:47Z</time></trkpt><trkpt lat="59.8289098777" lon="30.9457952343"><ele>4.46</ele><time>2015-06-07T09:30:03Z</time></trkpt><trkpt lat="59.8286317661" lon="30.9456359781"><ele>4.94</ele><time>2015-06-07T09:30:23Z</time></trkpt><trkpt lat="59.8283890262" lon="30.9454549290"><ele>4.46</ele><time>2015-06-07T09:30:39Z</time></trkpt><trkpt lat="59.8281988408" lon="30.9452724550"><ele>3.98</ele><time>2015-06-07T09:30:55Z</time></trkpt><trkpt lat="59.8280029558" lon="30.9452438727"><ele>3.98</ele><time>2015-06-07T09:31:10Z</time></trkpt><trkpt lat="59.8277684301" lon="30.9451939166"><ele>3.98</ele><time>2015-06-07T09:31:27Z</time></trkpt><trkpt lat="59.8275240976" lon="30.9450079221"><ele>4.94</ele><time>2015-06-07T09:31:46Z</time></trkpt><trkpt lat="59.8274304718" lon="30.9449872188"><ele>4.46</ele><time>2015-06-07T09:31:52Z</time></trkpt><trkpt lat="59.8271294776" lon="30.9447482508"><ele>5.91</ele><time>2015-06-07T09:32:12Z</time></trkpt><trkpt lat="59.8270453233" lon="30.9447296429"><ele>5.91</ele><time>2015-06-07T09:32:18Z</time></trkpt><trkpt lat="59.8269288987" lon="30.9446640126"><ele>6.39</ele><time>2015-06-07T09:32:27Z</time></trkpt><trkpt lat="59.8267127294" lon="30.9445790201"><ele>5.42</ele><time>2015-06-07T09:32:45Z</time></trkpt><trkpt lat="59.8264539801" lon="30.9444750007"><ele>5.91</ele><time>2015-06-07T09:33:02Z</time></trkpt><trkpt lat="59.8262715898" lon="30.9441714920"><ele>5.91</ele><time>2015-06-07T09:33:19Z</time></trkpt><trkpt lat="59.8261110764" lon="30.9439709131"><ele>5.42</ele><time>2015-06-07T09:33:33Z</time></trkpt><trkpt lat="59.8258579429" lon="30.9438105673"><ele>5.42</ele><time>2015-06-07T09:33:53Z</time></trkpt><trkpt lat="59.8256357387" lon="30.9436374810"><ele>5.42</ele><time>2015-06-07T09:34:11Z</time></trkpt><trkpt lat="59.8254569527" lon="30.9434970003"><ele>5.91</ele><time>2015-06-07T09:34:27Z</time></trkpt><trkpt lat="59.8251656815" lon="30.9433629736"><ele>4.94</ele><time>2015-06-07T09:34:48Z</time></trkpt><trkpt lat="59.8249243665" lon="30.9431546833"><ele>5.91</ele><time>2015-06-07T09:35:08Z</time></trkpt><trkpt lat="59.8246923555" lon="30.9428878874"><ele>5.42</ele><time>2015-06-07T09:35:28Z</time></trkpt><trkpt lat="59.8244572431" lon="30.9427888133"><ele>5.42</ele><time>2015-06-07T09:35:45Z</time></trkpt><trkpt lat="59.8244175967" lon="30.9427680261"><ele>5.91</ele><time>2015-06-07T09:35:48Z</time></trkpt><trkpt lat="59.8243614379" lon="30.9427141305"><ele>5.91</ele><time>2015-06-07T09:35:53Z</time></trkpt><trkpt lat="59.8243099730" lon="30.9425491747"><ele>4.94</ele><time>2015-06-07T09:36:08Z</time></trkpt><trkpt lat="59.8242978193" lon="30.9426158946"><ele>4.94</ele><time>2015-06-07T09:36:25Z</time></trkpt><trkpt lat="59.8243787885" lon="30.9425104503"><ele>4.94</ele><time>2015-06-07T09:36:34Z</time></trkpt><trkpt lat="59.8242471088" lon="30.9421325102"><ele>6.39</ele><time>2015-06-07T09:36:50Z</time></trkpt><trkpt lat="59.8240383156" lon="30.9419703204"><ele>6.87</ele><time>2015-06-07T09:37:06Z</time></trkpt><trkpt lat="59.8238571826" lon="30.9418150038"><ele>6.87</ele><time>2015-06-07T09:37:21Z</time></trkpt><trkpt lat="59.8236398399" lon="30.9417489544"><ele>6.39</ele><time>2015-06-07T09:37:37Z</time></trkpt><trkpt lat="59.8234763090" lon="30.9412989300"><ele>4.94</ele><time>2015-06-07T09:37:49Z</time></trkpt><trkpt lat="59.8233012110" lon="30.9409059864"><ele>5.42</ele><time>2015-06-07T09:38:02Z</time></trkpt><trkpt lat="59.8230271228" lon="30.9406127874"><ele>4.94</ele><time>2015-06-07T09:38:17Z</time></trkpt><trkpt lat="59.8228997178" lon="30.9404539503"><ele>5.42</ele><time>2015-06-07T09:38:29Z</time></trkpt><trkpt lat="59.8227501009" lon="30.9402579814"><ele>5.91</ele><time>2015-06-07T09:38:43Z</time></trkpt><trkpt lat="59.8225368652" lon="30.9400443267"><ele>7.35</ele><time>2015-06-07T09:39:01Z</time></trkpt><trkpt lat="59.8222892638" lon="30.9398355335"><ele>6.87</ele><time>2015-06-07T09:39:13Z</time></trkpt><trkpt lat="59.8220358789" lon="30.9394851699"><ele>6.87</ele><time>2015-06-07T09:39:28Z</time></trkpt><trkpt lat="59.8217710108" lon="30.9390056413"><ele>7.35</ele><time>2015-06-07T09:39:46Z</time></trkpt><trkpt lat="59.8216040432" lon="30.9387344867"><ele>6.39</ele><time>2015-06-07T09:40:00Z</time></trkpt><trkpt lat="59.8213589564" lon="30.9383806866"><ele>7.35</ele><time>2015-06-07T09:40:18Z</time></trkpt><trkpt lat="59.8212322220" lon="30.9379514493"><ele>8.31</ele><time>2015-06-07T09:40:34Z</time></trkpt><trkpt lat="59.8209536076" lon="30.9375719167"><ele>8.31</ele><time>2015-06-07T09:40:51Z</time></trkpt><trkpt lat="59.8205773439" lon="30.9369731136"><ele>8.31</ele><time>2015-06-07T09:41:13Z</time></trkpt><trkpt lat="59.8203720711" lon="30.9365372546"><ele>8.31</ele><time>2015-06-07T09:41:27Z</time></trkpt><trkpt lat="59.8202253040" lon="30.9360158164"><ele>8.31</ele><time>2015-06-07T09:41:40Z</time></trkpt><trkpt lat="59.8200026806" lon="30.9351960663"><ele>8.31</ele><time>2015-06-07T09:41:57Z</time></trkpt><trkpt lat="59.8196886946" lon="30.9341299720"><ele>7.83</ele><time>2015-06-07T09:42:19Z</time></trkpt><trkpt lat="59.8194798175" lon="30.9332619421"><ele>7.35</ele><time>2015-06-07T09:42:37Z</time></trkpt><trkpt lat="59.8192824237" lon="30.9323364124"><ele>6.39</ele><time>2015-06-07T09:42:57Z</time></trkpt><trkpt lat="59.8192073219" lon="30.9320211690"><ele>7.35</ele><time>2015-06-07T09:43:10Z</time></trkpt><trkpt lat="59.8191173002" lon="30.9316365235"><ele>8.31</ele><time>2015-06-07T09:43:26Z</time></trkpt><trkpt lat="59.8190649133" lon="30.9313062765"><ele>8.31</ele><time>2015-06-07T09:43:40Z</time></trkpt><trkpt lat="59.8190833535" lon="30.9309024364"><ele>8.31</ele><time>2015-06-07T09:43:54Z</time></trkpt><trkpt lat="59.8190292902" lon="30.9305640589"><ele>8.79</ele><time>2015-06-07T09:44:09Z</time></trkpt><trkpt lat="59.8189803399" lon="30.9302286990"><ele>10.23</ele><time>2015-06-07T09:44:22Z</time></trkpt><trkpt lat="59.8189781606" lon="30.9300443809"><ele>10.23</ele><time>2015-06-07T09:44:31Z</time></trkpt><trkpt lat="59.8188979458" lon="30.9296204243"><ele>9.75</ele><time>2015-06-07T09:44:49Z</time></trkpt><trkpt lat="59.8188401107" lon="30.9292806219"><ele>8.31</ele><time>2015-06-07T09:45:03Z</time></trkpt><trkpt lat="59.8188516777" lon="30.9289758559"><ele>7.83</ele><time>2015-06-07T09:45:17Z</time></trkpt><trkpt lat="59.8188856244" lon="30.9289667197"><ele>8.31</ele><time>2015-06-07T09:45:22Z</time></trkpt><trkpt lat="59.8189783283" lon="30.9287807252"><ele>8.79</ele><time>2015-06-07T09:45:34Z</time></trkpt><trkpt lat="59.8189603910" lon="30.9286860935"><ele>9.27</ele><time>2015-06-07T09:45:38Z</time></trkpt><trkpt lat="59.8189095967" lon="30.9281837661"><ele>9.27</ele><time>2015-06-07T09:45:54Z</time></trkpt><trkpt lat="59.8188183177" lon="30.9277935885"><ele>8.79</ele><time>2015-06-07T09:46:10Z</time></trkpt><trkpt lat="59.8188908212" lon="30.9274563007"><ele>8.31</ele><time>2015-06-07T09:46:25Z</time></trkpt><trkpt lat="59.8189858720" lon="30.9271052666"><ele>7.35</ele><time>2015-06-07T09:46:41Z</time></trkpt><trkpt lat="59.8188963532" lon="30.9266905300"><ele>8.79</ele><time>2015-06-07T09:46:55Z</time></trkpt><trkpt lat="59.8188800924" lon="30.9263845906"><ele>7.83</ele><time>2015-06-07T09:47:08Z</time></trkpt><trkpt lat="59.8188670166" lon="30.9259731229"><ele>8.31</ele><time>2015-06-07T09:47:23Z</time></trkpt><trkpt lat="59.8190009594" lon="30.9256183170"><ele>7.83</ele><time>2015-06-07T09:47:39Z</time></trkpt><trkpt lat="59.8190367501" lon="30.9251850564"><ele>8.79</ele><time>2015-06-07T09:47:56Z</time></trkpt><trkpt lat="59.8191111814" lon="30.9247744270"><ele>8.31</ele><time>2015-06-07T09:48:11Z</time></trkpt><trkpt lat="59.8191944975" lon="30.9242243227"><ele>8.79</ele><time>2015-06-07T09:48:28Z</time></trkpt><trkpt lat="59.8193015344" lon="30.9236945864"><ele>8.79</ele><time>2015-06-07T09:48:47Z</time></trkpt><trkpt lat="59.8193821684" lon="30.9233844560"><ele>8.31</ele><time>2015-06-07T09:49:04Z</time></trkpt><trkpt lat="59.8194422666" lon="30.9229283128"><ele>8.31</ele><time>2015-06-07T09:49:23Z</time></trkpt><trkpt lat="59.8194969166" lon="30.9222857561"><ele>8.31</ele><time>2015-06-07T09:49:39Z</time></trkpt><trkpt lat="59.8195614573" lon="30.9212123696"><ele>7.83</ele><time>2015-06-07T09:50:01Z</time></trkpt><trkpt lat="59.8195605353" lon="30.9203678928"><ele>7.83</ele><time>2015-06-07T09:50:19Z</time></trkpt><trkpt lat="59.8195801489" lon="30.9194717836"><ele>7.83</ele><time>2015-06-07T09:50:38Z</time></trkpt><trkpt lat="59.8195966613" lon="30.9185392130"><ele>8.31</ele><time>2015-06-07T09:50:57Z</time></trkpt><trkpt lat="59.8195767123" lon="30.9176051337"><ele>8.31</ele><time>2015-06-07T09:51:16Z</time></trkpt><trkpt lat="59.8195817415" lon="30.9166594874"><ele>9.75</ele><time>2015-06-07T09:51:35Z</time></trkpt><trkpt lat="59.8195830826" lon="30.9157536551"><ele>8.31</ele><time>2015-06-07T09:51:54Z</time></trkpt><trkpt lat="59.8195781372" lon="30.9153011162"><ele>7.83</ele><time>2015-06-07T09:52:10Z</time></trkpt><trkpt lat="59.8195736110" lon="30.9148330707"><ele>7.35</ele><time>2015-06-07T09:52:28Z</time></trkpt><trkpt lat="59.8195633013" lon="30.9144438989"><ele>7.83</ele><time>2015-06-07T09:52:47Z</time></trkpt><trkpt lat="59.8195587751" lon="30.9144271351"><ele>7.83</ele><time>2015-06-07T09:52:48Z</time></trkpt><trkpt lat="59.8194472119" lon="30.9139248077"><ele>7.83</ele><time>2015-06-07T09:53:04Z</time></trkpt><trkpt lat="59.8195074778" lon="30.9133494738"><ele>7.83</ele><time>2015-06-07T09:53:22Z</time></trkpt><trkpt lat="59.8195464537" lon="30.9126939252"><ele>8.31</ele><time>2015-06-07T09:53:38Z</time></trkpt><trkpt lat="59.8196006846" lon="30.9121176694"><ele>8.31</ele><time>2015-06-07T09:53:52Z</time></trkpt><trkpt lat="59.8196438514" lon="30.9115433414"><ele>8.31</ele><time>2015-06-07T09:54:09Z</time></trkpt><trkpt lat="59.8196961544" lon="30.9111178759"><ele>8.31</ele><time>2015-06-07T09:54:28Z</time></trkpt><trkpt lat="59.8196850065" lon="30.9106898960"><ele>8.79</ele><time>2015-06-07T09:54:47Z</time></trkpt><trkpt lat="59.8196310271" lon="30.9103094414"><ele>8.31</ele><time>2015-06-07T09:55:04Z</time></trkpt><trkpt lat="59.8195252474" lon="30.9099169169"><ele>8.31</ele><time>2015-06-07T09:55:23Z</time></trkpt><trkpt lat="59.8196088988" lon="30.9094021004"><ele>7.35</ele><time>2015-06-07T09:55:38Z</time></trkpt><trkpt lat="59.8196399119" lon="30.9089308698"><ele>8.79</ele><time>2015-06-07T09:55:57Z</time></trkpt><trkpt lat="59.8196502216" lon="30.9087846894"><ele>9.27</ele><time>2015-06-07T09:56:04Z</time></trkpt><trkpt lat="59.8195208889" lon="30.9083655104"><ele>8.31</ele><time>2015-06-07T09:56:24Z</time></trkpt><trkpt lat="59.8194752913" lon="30.9079725668"><ele>7.83</ele><time>2015-06-07T09:56:36Z</time></trkpt><trkpt lat="59.8194034584" lon="30.9074812196"><ele>7.83</ele><time>2015-06-07T09:56:55Z</time></trkpt><trkpt lat="59.8193325475" lon="30.9067873657"><ele>6.87</ele><time>2015-06-07T09:57:16Z</time></trkpt><trkpt lat="59.8192584515" lon="30.9060868062"><ele>6.87</ele><time>2015-06-07T09:57:37Z</time></trkpt><trkpt lat="59.8192381673" lon="30.9053186048"><ele>6.39</ele><time>2015-06-07T09:57:54Z</time></trkpt><trkpt lat="59.8191017937" lon="30.9044566099"><ele>5.91</ele><time>2015-06-07T09:58:10Z</time></trkpt><trkpt lat="59.8190568667" lon="30.9033191018"><ele>5.91</ele><time>2015-06-07T09:58:30Z</time></trkpt><trkpt lat="59.8188604787" lon="30.9023722820"><ele>5.42</ele><time>2015-06-07T09:58:48Z</time></trkpt><trkpt lat="59.8187179863" lon="30.9016380273"><ele>5.91</ele><time>2015-06-07T09:59:06Z</time></trkpt><trkpt lat="59.8185853008" lon="30.9010801278"><ele>6.39</ele><time>2015-06-07T09:59:24Z</time></trkpt><trkpt lat="59.8184537888" lon="30.9003531653"><ele>6.87</ele><time>2015-06-07T09:59:44Z</time></trkpt><trkpt lat="59.8182537965" lon="30.8996965270"><ele>6.87</ele><time>2015-06-07T10:00:04Z</time></trkpt><trkpt lat="59.8181058560" lon="30.8990951255"><ele>7.35</ele><time>2015-06-07T10:00:22Z</time></trkpt><trkpt lat="59.8179363739" lon="30.8985551633"><ele>6.87</ele><time>2015-06-07T10:00:39Z</time></trkpt><trkpt lat="59.8178900220" lon="30.8979663346"><ele>6.87</ele><time>2015-06-07T10:00:56Z</time></trkpt><trkpt lat="59.8178309295" lon="30.8973853849"><ele>7.35</ele><time>2015-06-07T10:01:15Z</time></trkpt><trkpt lat="59.8176487070" lon="30.8966981526"><ele>6.39</ele><time>2015-06-07T10:01:36Z</time></trkpt><trkpt lat="59.8174757883" lon="30.8961478807"><ele>6.39</ele><time>2015-06-07T10:01:54Z</time></trkpt><trkpt lat="59.8174472898" lon="30.8956947550"><ele>6.87</ele><time>2015-06-07T10:02:08Z</time></trkpt><trkpt lat="59.8173742834" lon="30.8952067606"><ele>6.87</ele><time>2015-06-07T10:02:25Z</time></trkpt><trkpt lat="59.8173867725" lon="30.8946890105"><ele>7.35</ele><time>2015-06-07T10:02:43Z</time></trkpt><trkpt lat="59.8172561824" lon="30.8941141795"><ele>6.87</ele><time>2015-06-07T10:03:03Z</time></trkpt><trkpt lat="59.8172154464" lon="30.8935082518"><ele>6.87</ele><time>2015-06-07T10:03:21Z</time></trkpt><trkpt lat="59.8171286099" lon="30.8927513659"><ele>5.91</ele><time>2015-06-07T10:03:43Z</time></trkpt><trkpt lat="59.8171416856" lon="30.8921631239"><ele>6.39</ele><time>2015-06-07T10:04:02Z</time></trkpt><trkpt lat="59.8171612155" lon="30.8917967509"><ele>6.87</ele><time>2015-06-07T10:04:15Z</time></trkpt><trkpt lat="59.8171242513" lon="30.8913981915"><ele>7.35</ele><time>2015-06-07T10:04:29Z</time></trkpt><trkpt lat="59.8171576951" lon="30.8908247016"><ele>7.35</ele><time>2015-06-07T10:04:51Z</time></trkpt><trkpt lat="59.8171647359" lon="30.8902146667"><ele>7.35</ele><time>2015-06-07T10:05:10Z</time></trkpt><trkpt lat="59.8170458805" lon="30.8897326235"><ele>7.83</ele><time>2015-06-07T10:05:28Z</time></trkpt><trkpt lat="59.8170261830" lon="30.8892621472"><ele>7.35</ele><time>2015-06-07T10:05:47Z</time></trkpt><trkpt lat="59.8169074953" lon="30.8890524320"><ele>6.87</ele><time>2015-06-07T10:06:05Z</time></trkpt><trkpt lat="59.8168807570" lon="30.8890497498"><ele>7.83</ele><time>2015-06-07T10:06:20Z</time></trkpt><trkpt lat="59.8169657495" lon="30.8890898153"><ele>8.31</ele><time>2015-06-07T10:06:36Z</time></trkpt><trkpt lat="59.8170364089" lon="30.8891435433"><ele>8.31</ele><time>2015-06-07T10:06:53Z</time></trkpt><trkpt lat="59.8171181325" lon="30.8891341556"><ele>7.83</ele><time>2015-06-07T10:07:11Z</time></trkpt><trkpt lat="59.8171302024" lon="30.8891241811"><ele>8.31</ele><time>2015-06-07T10:07:13Z</time></trkpt><trkpt lat="59.8172041308" lon="30.8892066590"><ele>7.83</ele><time>2015-06-07T10:07:22Z</time></trkpt><trkpt lat="59.8171914741" lon="30.8892393485"><ele>7.83</ele><time>2015-06-07T10:07:24Z</time></trkpt><trkpt lat="59.8169682641" lon="30.8890389372"><ele>7.35</ele><time>2015-06-07T10:07:42Z</time></trkpt><trkpt lat="59.8168875463" lon="30.8886552975"><ele>6.87</ele><time>2015-06-07T10:07:58Z</time></trkpt><trkpt lat="59.8169173859" lon="30.8881135751"><ele>7.83</ele><time>2015-06-07T10:08:18Z</time></trkpt><trkpt lat="59.8169087525" lon="30.8876880258"><ele>7.35</ele><time>2015-06-07T10:08:29Z</time></trkpt><trkpt lat="59.8169803340" lon="30.8875454497"><ele>7.83</ele><time>2015-06-07T10:08:38Z</time></trkpt><trkpt lat="59.8170277756" lon="30.8876249101"><ele>7.35</ele><time>2015-06-07T10:08:46Z</time></trkpt><trkpt lat="59.8168704472" lon="30.8874093276"><ele>6.39</ele><time>2015-06-07T10:08:58Z</time></trkpt><trkpt lat="59.8168753088" lon="30.8868637495"><ele>7.35</ele><time>2015-06-07T10:09:16Z</time></trkpt><trkpt lat="59.8168924917" lon="30.8862077817"><ele>7.83</ele><time>2015-06-07T10:09:35Z</time></trkpt><trkpt lat="59.8169010412" lon="30.8855999261"><ele>8.31</ele><time>2015-06-07T10:09:52Z</time></trkpt><trkpt lat="59.8169758916" lon="30.8850810025"><ele>7.83</ele><time>2015-06-07T10:10:08Z</time></trkpt><trkpt lat="59.8169081658" lon="30.8845785912"><ele>7.83</ele><time>2015-06-07T10:10:24Z</time></trkpt><trkpt lat="59.8169359937" lon="30.8840383776"><ele>8.31</ele><time>2015-06-07T10:10:42Z</time></trkpt><trkpt lat="59.8169347364" lon="30.8835848328"><ele>8.79</ele><time>2015-06-07T10:10:56Z</time></trkpt><trkpt lat="59.8169482313" lon="30.8831037115"><ele>8.79</ele><time>2015-06-07T10:11:14Z</time></trkpt><trkpt lat="59.8169064894" lon="30.8825514279"><ele>9.27</ele><time>2015-06-07T10:11:35Z</time></trkpt><trkpt lat="59.8168499954" lon="30.8821532037"><ele>8.31</ele><time>2015-06-07T10:11:51Z</time></trkpt><trkpt lat="59.8168949224" lon="30.8817698155"><ele>8.31</ele><time>2015-06-07T10:12:08Z</time></trkpt><trkpt lat="59.8169695213" lon="30.8810214791"><ele>8.31</ele><time>2015-06-07T10:12:28Z</time></trkpt><trkpt lat="59.8169250973" lon="30.8802323230"><ele>8.31</ele><time>2015-06-07T10:12:49Z</time></trkpt><trkpt lat="59.8168365844" lon="30.8796012495"><ele>8.79</ele><time>2015-06-07T10:13:10Z</time></trkpt><trkpt lat="59.8168851156" lon="30.8790519834"><ele>8.31</ele><time>2015-06-07T10:13:29Z</time></trkpt><trkpt lat="59.8168493249" lon="30.8784995321"><ele>7.83</ele><time>2015-06-07T10:13:50Z</time></trkpt><trkpt lat="59.8168393504" lon="30.8780067600"><ele>8.79</ele><time>2015-06-07T10:14:10Z</time></trkpt><trkpt lat="59.8168500792" lon="30.8774030115"><ele>9.27</ele><time>2015-06-07T10:14:30Z</time></trkpt><trkpt lat="59.8169056512" lon="30.8768467885"><ele>8.79</ele><time>2015-06-07T10:14:46Z</time></trkpt><trkpt lat="59.8168327287" lon="30.8763432875"><ele>7.83</ele><time>2015-06-07T10:15:06Z</time></trkpt><trkpt lat="59.8167246860" lon="30.8757422213"><ele>8.31</ele><time>2015-06-07T10:15:29Z</time></trkpt><trkpt lat="59.8166947626" lon="30.8751310129"><ele>7.35</ele><time>2015-06-07T10:15:50Z</time></trkpt><trkpt lat="59.8165465705" lon="30.8745221514"><ele>7.35</ele><time>2015-06-07T10:16:10Z</time></trkpt><trkpt lat="59.8164730612" lon="30.8739527687"><ele>7.35</ele><time>2015-06-07T10:16:29Z</time></trkpt><trkpt lat="59.8164166510" lon="30.8735317457"><ele>6.87</ele><time>2015-06-07T10:16:43Z</time></trkpt><trkpt lat="59.8163659405" lon="30.8730015904"><ele>7.35</ele><time>2015-06-07T10:17:05Z</time></trkpt><trkpt lat="59.8162564728" lon="30.8725275099"><ele>7.35</ele><time>2015-06-07T10:17:25Z</time></trkpt><trkpt lat="59.8162907548" lon="30.8721521683"><ele>6.39</ele><time>2015-06-07T10:17:43Z</time></trkpt><trkpt lat="59.8162738234" lon="30.8716564626"><ele>6.39</ele><time>2015-06-07T10:18:03Z</time></trkpt><trkpt lat="59.8161646072" lon="30.8712703921"><ele>5.42</ele><time>2015-06-07T10:18:23Z</time></trkpt><trkpt lat="59.8161019105" lon="30.8708655462"><ele>6.39</ele><time>2015-06-07T10:18:42Z</time></trkpt><trkpt lat="59.8160048481" lon="30.8704073075"><ele>7.83</ele><time>2015-06-07T10:19:02Z</time></trkpt><trkpt lat="59.8158164229" lon="30.8699380886"><ele>7.35</ele><time>2015-06-07T10:19:25Z</time></trkpt><trkpt lat="59.8157305922" lon="30.8694172371"><ele>7.35</ele><time>2015-06-07T10:19:45Z</time></trkpt><trkpt lat="59.8155626189" lon="30.8687151689"><ele>7.83</ele><time>2015-06-07T10:20:03Z</time></trkpt><trkpt lat="59.8154280894" lon="30.8679424413"><ele>7.35</ele><time>2015-06-07T10:20:21Z</time></trkpt><trkpt lat="59.8153123353" lon="30.8669917658"><ele>7.83</ele><time>2015-06-07T10:20:42Z</time></trkpt><trkpt lat="59.8151237424" lon="30.8660783060"><ele>6.87</ele><time>2015-06-07T10:21:03Z</time></trkpt><trkpt lat="59.8149582837" lon="30.8651876450"><ele>5.91</ele><time>2015-06-07T10:21:23Z</time></trkpt><trkpt lat="59.8148033861" lon="30.8646310028"><ele>6.87</ele><time>2015-06-07T10:21:41Z</time></trkpt><trkpt lat="59.8147025518" lon="30.8640741091"><ele>6.39</ele><time>2015-06-07T10:22:00Z</time></trkpt><trkpt lat="59.8146155477" lon="30.8635185566"><ele>6.39</ele><time>2015-06-07T10:22:19Z</time></trkpt><trkpt lat="59.8144651763" lon="30.8629135508"><ele>7.35</ele><time>2015-06-07T10:22:39Z</time></trkpt><trkpt lat="59.8143881466" lon="30.8623950463"><ele>8.31</ele><time>2015-06-07T10:22:55Z</time></trkpt><trkpt lat="59.8143059202" lon="30.8617457002"><ele>9.27</ele><time>2015-06-07T10:23:13Z</time></trkpt><trkpt lat="59.8141837958" lon="30.8610958513"><ele>8.79</ele><time>2015-06-07T10:23:31Z</time></trkpt><trkpt lat="59.8141037486" lon="30.8605084475"><ele>9.75</ele><time>2015-06-07T10:23:47Z</time></trkpt><trkpt lat="59.8139883298" lon="30.8596753702"><ele>10.23</ele><time>2015-06-07T10:24:06Z</time></trkpt><trkpt lat="59.8138649482" lon="30.8591588773"><ele>10.71</ele><time>2015-06-07T10:24:22Z</time></trkpt><trkpt lat="59.8137229588" lon="30.8584705554"><ele>10.71</ele><time>2015-06-07T10:24:44Z</time></trkpt><trkpt lat="59.8135993257" lon="30.8578577545"><ele>10.23</ele><time>2015-06-07T10:25:04Z</time></trkpt><trkpt lat="59.8134897742" lon="30.8570691850"><ele>10.23</ele><time>2015-06-07T10:25:23Z</time></trkpt><trkpt lat="59.8133905325" lon="30.8562412206"><ele>10.71</ele><time>2015-06-07T10:25:45Z</time></trkpt><trkpt lat="59.8133733496" lon="30.8554510586"><ele>12.15</ele><time>2015-06-07T10:26:09Z</time></trkpt><trkpt lat="59.8133721761" lon="30.8551755454"><ele>13.12</ele><time>2015-06-07T10:26:16Z</time></trkpt><trkpt lat="59.8133429233" lon="30.8544996288"><ele>12.15</ele><time>2015-06-07T10:26:36Z</time></trkpt><trkpt lat="59.8133118264" lon="30.8540942799"><ele>13.12</ele><time>2015-06-07T10:26:50Z</time></trkpt><trkpt lat="59.8132689949" lon="30.8535823133"><ele>13.12</ele><time>2015-06-07T10:27:08Z</time></trkpt><trkpt lat="59.8131981678" lon="30.8530873619"><ele>12.63</ele><time>2015-06-07T10:27:27Z</time></trkpt><trkpt lat="59.8131120857" lon="30.8526869584"><ele>11.67</ele><time>2015-06-07T10:27:40Z</time></trkpt><trkpt lat="59.8132426757" lon="30.8525572903"><ele>11.19</ele><time>2015-06-07T10:27:56Z</time></trkpt><trkpt lat="59.8132003471" lon="30.8520536218"><ele>10.71</ele><time>2015-06-07T10:28:09Z</time></trkpt><trkpt lat="59.8129804898" lon="30.8511166088"><ele>10.23</ele><time>2015-06-07T10:28:27Z</time></trkpt><trkpt lat="59.8127667513" lon="30.8501376864"><ele>10.23</ele><time>2015-06-07T10:28:45Z</time></trkpt><trkpt lat="59.8126177210" lon="30.8492282499"><ele>10.23</ele><time>2015-06-07T10:29:02Z</time></trkpt><trkpt lat="59.8123349156" lon="30.8481101040"><ele>9.27</ele><time>2015-06-07T10:29:24Z</time></trkpt><trkpt lat="59.8120645992" lon="30.8474365342"><ele>9.27</ele><time>2015-06-07T10:29:48Z</time></trkpt><trkpt lat="59.8118434008" lon="30.8467087336"><ele>8.79</ele><time>2015-06-07T10:30:08Z</time></trkpt><trkpt lat="59.8116299137" lon="30.8461422008"><ele>8.79</ele><time>2015-06-07T10:30:26Z</time></trkpt><trkpt lat="59.8113383912" lon="30.8452868275"><ele>7.83</ele><time>2015-06-07T10:30:49Z</time></trkpt><trkpt lat="59.8110296018" lon="30.8443235792"><ele>7.35</ele><time>2015-06-07T10:31:12Z</time></trkpt><trkpt lat="59.8107405938" lon="30.8434582315"><ele>7.35</ele><time>2015-06-07T10:31:34Z</time></trkpt><trkpt lat="59.8106781486" lon="30.8428735100"><ele>7.83</ele><time>2015-06-07T10:31:56Z</time></trkpt><trkpt lat="59.8106943257" lon="30.8428414911"><ele>7.83</ele><time>2015-06-07T10:31:59Z</time></trkpt><trkpt lat="59.8107198905" lon="30.8427818120"><ele>7.83</ele><time>2015-06-07T10:32:03Z</time></trkpt><trkpt lat="59.8107370734" lon="30.8428213745"><ele>8.79</ele><time>2015-06-07T10:32:08Z</time></trkpt><trkpt lat="59.8106767237" lon="30.8428663854"><ele>8.79</ele><time>2015-06-07T10:32:13Z</time></trkpt><trkpt lat="59.8104336485" lon="30.8425626252"><ele>7.35</ele><time>2015-06-07T10:32:26Z</time></trkpt><trkpt lat="59.8101277091" lon="30.8418901451"><ele>6.39</ele><time>2015-06-07T10:32:47Z</time></trkpt><trkpt lat="59.8098928481" lon="30.8412359376"><ele>6.87</ele><time>2015-06-07T10:33:07Z</time></trkpt><trkpt lat="59.8095962126" lon="30.8405070473"><ele>6.87</ele><time>2015-06-07T10:33:30Z</time></trkpt><trkpt lat="59.8095284030" lon="30.8400213160"><ele>7.83</ele><time>2015-06-07T10:33:46Z</time></trkpt><trkpt lat="59.8095683008" lon="30.8401547559"><ele>8.31</ele><time>2015-06-07T10:33:53Z</time></trkpt><trkpt lat="59.8094986472" lon="30.8403865155"><ele>8.79</ele><time>2015-06-07T10:34:14Z</time></trkpt><trkpt lat="59.8094799556" lon="30.8405248169"><ele>8.79</ele><time>2015-06-07T10:34:37Z</time></trkpt><trkpt lat="59.8094775248" lon="30.8406358771"><ele>9.27</ele><time>2015-06-07T10:34:55Z</time></trkpt><trkpt lat="59.8094937019" lon="30.8406308480"><ele>9.27</ele><time>2015-06-07T10:34:58Z</time></trkpt><trkpt lat="59.8095372878" lon="30.8405165188"><ele>8.79</ele><time>2015-06-07T10:35:07Z</time></trkpt><trkpt lat="59.8094730824" lon="30.8399584517"><ele>8.31</ele><time>2015-06-07T10:35:27Z</time></trkpt><trkpt lat="59.8092793766" lon="30.8397673443"><ele>9.27</ele><time>2015-06-07T10:35:48Z</time></trkpt><trkpt lat="59.8091476131" lon="30.8397725411"><ele>9.27</ele><time>2015-06-07T10:36:11Z</time></trkpt><trkpt lat="59.8091208749" lon="30.8397689369"><ele>8.79</ele><time>2015-06-07T10:36:14Z</time></trkpt><trkpt lat="59.8090696614" lon="30.8397550229"><ele>8.79</ele><time>2015-06-07T10:36:19Z</time></trkpt><trkpt lat="59.8089632951" lon="30.8396455552"><ele>9.27</ele><time>2015-06-07T10:36:41Z</time></trkpt><trkpt lat="59.8089521471" lon="30.8396694437"><ele>9.27</ele><time>2015-06-07T10:37:02Z</time></trkpt><trkpt lat="59.8089078907" lon="30.8397409413"><ele>9.27</ele><time>2015-06-07T10:37:22Z</time></trkpt><trkpt lat="59.8088964913" lon="30.8397564478"><ele>9.75</ele><time>2015-06-07T10:37:25Z</time></trkpt><trkpt lat="59.8088393267" lon="30.8398789074"><ele>9.75</ele><time>2015-06-07T10:37:34Z</time></trkpt><trkpt lat="59.8086296953" lon="30.8399198111"><ele>9.75</ele><time>2015-06-07T10:37:55Z</time></trkpt><trkpt lat="59.8083893862" lon="30.8397028036"><ele>8.31</ele><time>2015-06-07T10:38:11Z</time></trkpt><trkpt lat="59.8080966901" lon="30.8390043397"><ele>9.27</ele><time>2015-06-07T10:38:31Z</time></trkpt><trkpt lat="59.8077915888" lon="30.8383231424"><ele>9.27</ele><time>2015-06-07T10:38:55Z</time></trkpt><trkpt lat="59.8075584043" lon="30.8377260994"><ele>7.35</ele><time>2015-06-07T10:39:13Z</time></trkpt><trkpt lat="59.8071643710" lon="30.8367949538"><ele>6.87</ele><time>2015-06-07T10:39:32Z</time></trkpt><trkpt lat="59.8066663183" lon="30.8358068950"><ele>7.35</ele><time>2015-06-07T10:39:53Z</time></trkpt><trkpt lat="59.8063502368" lon="30.8351598121"><ele>9.75</ele><time>2015-06-07T10:40:11Z</time></trkpt><trkpt lat="59.8059330694" lon="30.8344178461"><ele>9.75</ele><time>2015-06-07T10:40:35Z</time></trkpt><trkpt lat="59.8055498488" lon="30.8335776441"><ele>9.75</ele><time>2015-06-07T10:40:58Z</time></trkpt><trkpt lat="59.8051525466" lon="30.8326780144"><ele>9.75</ele><time>2015-06-07T10:41:23Z</time></trkpt><trkpt lat="59.8048331961" lon="30.8318295982"><ele>8.79</ele><time>2015-06-07T10:41:44Z</time></trkpt><trkpt lat="59.8044817429" lon="30.8308171481"><ele>9.27</ele><time>2015-06-07T10:42:02Z</time></trkpt><trkpt lat="59.8041794915" lon="30.8303392958"><ele>8.79</ele><time>2015-06-07T10:42:21Z</time></trkpt><trkpt lat="59.8039004579" lon="30.8297073003"><ele>8.31</ele><time>2015-06-07T10:42:40Z</time></trkpt><trkpt lat="59.8036578856" lon="30.8289370872"><ele>8.79</ele><time>2015-06-07T10:43:02Z</time></trkpt><trkpt lat="59.8036267888" lon="30.8282074425"><ele>8.31</ele><time>2015-06-07T10:43:20Z</time></trkpt><trkpt lat="59.8035616614" lon="30.8275599405"><ele>7.83</ele><time>2015-06-07T10:43:35Z</time></trkpt><trkpt lat="59.8033600766" lon="30.8267588820"><ele>7.83</ele><time>2015-06-07T10:43:57Z</time></trkpt><trkpt lat="59.8031101283" lon="30.8259519562"><ele>9.27</ele><time>2015-06-07T10:44:20Z</time></trkpt><trkpt lat="59.8028574139" lon="30.8253855910"><ele>8.79</ele><time>2015-06-07T10:44:35Z</time></trkpt><trkpt lat="59.8025078047" lon="30.8247665036"><ele>8.79</ele><time>2015-06-07T10:44:57Z</time></trkpt><trkpt lat="59.8022479657" lon="30.8240497671"><ele>9.27</ele><time>2015-06-07T10:45:18Z</time></trkpt><trkpt lat="59.8019722849" lon="30.8234233875"><ele>9.27</ele><time>2015-06-07T10:45:35Z</time></trkpt><trkpt lat="59.8016639985" lon="30.8225370012"><ele>8.79</ele><time>2015-06-07T10:45:55Z</time></trkpt><trkpt lat="59.8013762478" lon="30.8217499405"><ele>8.79</ele><time>2015-06-07T10:46:16Z</time></trkpt><trkpt lat="59.8010533769" lon="30.8208757918"><ele>8.31</ele><time>2015-06-07T10:46:36Z</time></trkpt><trkpt lat="59.8005740996" lon="30.8194677997"><ele>8.31</ele><time>2015-06-07T10:47:01Z</time></trkpt><trkpt lat="59.8002359737" lon="30.8182769828"><ele>9.27</ele><time>2015-06-07T10:47:21Z</time></trkpt><trkpt lat="59.7999405116" lon="30.8171165083"><ele>8.79</ele><time>2015-06-07T10:47:41Z</time></trkpt><trkpt lat="59.7997015435" lon="30.8163411822"><ele>8.79</ele><time>2015-06-07T10:47:57Z</time></trkpt><trkpt lat="59.7995062452" lon="30.8158567920"><ele>8.31</ele><time>2015-06-07T10:48:10Z</time></trkpt><trkpt lat="59.7992188297" lon="30.8150591701"><ele>8.79</ele><time>2015-06-07T10:48:32Z</time></trkpt><trkpt lat="59.7989257146" lon="30.8140338119"><ele>8.31</ele><time>2015-06-07T10:48:56Z</time></trkpt><trkpt lat="59.7987040970" lon="30.8124956489"><ele>7.83</ele><time>2015-06-07T10:49:17Z</time></trkpt><trkpt lat="59.7985362913" lon="30.8114054147"><ele>8.31</ele><time>2015-06-07T10:49:35Z</time></trkpt><trkpt lat="59.7982939705" lon="30.8107952122"><ele>7.35</ele><time>2015-06-07T10:49:49Z</time></trkpt><trkpt lat="59.7980393283" lon="30.8097293694"><ele>6.39</ele><time>2015-06-07T10:50:07Z</time></trkpt><trkpt lat="59.7977590375" lon="30.8090326656"><ele>8.31</ele><time>2015-06-07T10:50:29Z</time></trkpt><trkpt lat="59.7973928321" lon="30.8084391430"><ele>8.79</ele><time>2015-06-07T10:50:53Z</time></trkpt><trkpt lat="59.7970312368" lon="30.8080312796"><ele>8.31</ele><time>2015-06-07T10:51:12Z</time></trkpt><trkpt lat="59.7965712380" lon="30.8075763099"><ele>9.27</ele><time>2015-06-07T10:51:30Z</time></trkpt><trkpt lat="59.7959206346" lon="30.8071533591"><ele>9.27</ele><time>2015-06-07T10:51:55Z</time></trkpt><trkpt lat="59.7954229172" lon="30.8066468406"><ele>9.27</ele><time>2015-06-07T10:52:15Z</time></trkpt><trkpt lat="59.7949179076" lon="30.8060893603"><ele>9.27</ele><time>2015-06-07T10:52:38Z</time></trkpt><trkpt lat="59.7944901790" lon="30.8056413475"><ele>8.31</ele><time>2015-06-07T10:52:58Z</time></trkpt><trkpt lat="59.7941310983" lon="30.8055021241"><ele>7.83</ele><time>2015-06-07T10:53:18Z</time></trkpt><trkpt lat="59.7936104983" lon="30.8051888086"><ele>7.83</ele><time>2015-06-07T10:53:42Z</time></trkpt><trkpt lat="59.7932369169" lon="30.8048135508"><ele>7.83</ele><time>2015-06-07T10:54:01Z</time></trkpt><trkpt lat="59.7927743196" lon="30.8042600099"><ele>7.83</ele><time>2015-06-07T10:54:26Z</time></trkpt><trkpt lat="59.7923358623" lon="30.8036035392"><ele>7.35</ele><time>2015-06-07T10:54:48Z</time></trkpt><trkpt lat="59.7919328604" lon="30.8030992839"><ele>7.83</ele><time>2015-06-07T10:55:05Z</time></trkpt><trkpt lat="59.7915370669" lon="30.8025798574"><ele>8.31</ele><time>2015-06-07T10:55:25Z</time></trkpt><trkpt lat="59.7911717836" lon="30.8019433357"><ele>8.31</ele><time>2015-06-07T10:55:49Z</time></trkpt><trkpt lat="59.7905366030" lon="30.8010287862"><ele>8.79</ele><time>2015-06-07T10:56:14Z</time></trkpt><trkpt lat="59.7901693918" lon="30.8006098587"><ele>8.79</ele><time>2015-06-07T10:56:30Z</time></trkpt><trkpt lat="59.7897502128" lon="30.8001627680"><ele>8.79</ele><time>2015-06-07T10:56:53Z</time></trkpt><trkpt lat="59.7893877793" lon="30.7998425793"><ele>9.75</ele><time>2015-06-07T10:57:08Z</time></trkpt><trkpt lat="59.7888385132" lon="30.7993649784"><ele>8.79</ele><time>2015-06-07T10:57:33Z</time></trkpt><trkpt lat="59.7884062584" lon="30.7989432849"><ele>8.31</ele><time>2015-06-07T10:57:54Z</time></trkpt><trkpt lat="59.7879754286" lon="30.7985452283"><ele>7.83</ele><time>2015-06-07T10:58:13Z</time></trkpt><trkpt lat="59.7874715086" lon="30.7980137318"><ele>7.35</ele><time>2015-06-07T10:58:34Z</time></trkpt><trkpt lat="59.7870198917" lon="30.7975466084"><ele>7.83</ele><time>2015-06-07T10:58:52Z</time></trkpt><trkpt lat="59.7865135409" lon="30.7969017886"><ele>7.35</ele><time>2015-06-07T10:59:14Z</time></trkpt><trkpt lat="59.7859577369" lon="30.7963311486"><ele>7.35</ele><time>2015-06-07T10:59:36Z</time></trkpt><trkpt lat="59.7855274100" lon="30.7960475050"><ele>7.83</ele><time>2015-06-07T10:59:54Z</time></trkpt><trkpt lat="59.7850850970" lon="30.7955844887"><ele>8.31</ele><time>2015-06-07T11:00:14Z</time></trkpt><trkpt lat="59.7846324742" lon="30.7951037027"><ele>8.31</ele><time>2015-06-07T11:00:37Z</time></trkpt><trkpt lat="59.7843076754" lon="30.7948226575"><ele>7.83</ele><time>2015-06-07T11:00:53Z</time></trkpt><trkpt lat="59.7839544620" lon="30.7944090106"><ele>8.31</ele><time>2015-06-07T11:01:05Z</time></trkpt><trkpt lat="59.7835046053" lon="30.7940534502"><ele>7.83</ele><time>2015-06-07T11:01:24Z</time></trkpt><trkpt lat="59.7830168623" lon="30.7938464172"><ele>8.31</ele><time>2015-06-07T11:01:45Z</time></trkpt><trkpt lat="59.7824637406" lon="30.7937277295"><ele>7.35</ele><time>2015-06-07T11:02:11Z</time></trkpt><trkpt lat="59.7821947653" lon="30.7934736740"><ele>6.39</ele><time>2015-06-07T11:02:30Z</time></trkpt><trkpt lat="59.7818550467" lon="30.7931141742"><ele>6.39</ele><time>2015-06-07T11:02:47Z</time></trkpt><trkpt lat="59.7814947926" lon="30.7926731184"><ele>6.87</ele><time>2015-06-07T11:03:04Z</time></trkpt><trkpt lat="59.7809288464" lon="30.7920707949"><ele>8.31</ele><time>2015-06-07T11:03:29Z</time></trkpt><trkpt lat="59.7803907283" lon="30.7919288054"><ele>8.79</ele><time>2015-06-07T11:03:52Z</time></trkpt><trkpt lat="59.7798178252" lon="30.7917660289"><ele>8.31</ele><time>2015-06-07T11:04:13Z</time></trkpt><trkpt lat="59.7791665513" lon="30.7915288210"><ele>8.31</ele><time>2015-06-07T11:04:36Z</time></trkpt><trkpt lat="59.7786074784" lon="30.7913398091"><ele>8.79</ele><time>2015-06-07T11:04:56Z</time></trkpt><trkpt lat="59.7780010477" lon="30.7910815626"><ele>7.35</ele><time>2015-06-07T11:05:17Z</time></trkpt><trkpt lat="59.7774339281" lon="30.7907447778"><ele>7.35</ele><time>2015-06-07T11:05:36Z</time></trkpt><trkpt lat="59.7768052015" lon="30.7905540057"><ele>6.87</ele><time>2015-06-07T11:05:56Z</time></trkpt><trkpt lat="59.7761725355" lon="30.7903110143"><ele>6.87</ele><time>2015-06-07T11:06:17Z</time></trkpt><trkpt lat="59.7754465789" lon="30.7898479979"><ele>6.87</ele><time>2015-06-07T11:06:39Z</time></trkpt><trkpt lat="59.7747228015" lon="30.7892142422"><ele>6.87</ele><time>2015-06-07T11:07:01Z</time></trkpt><trkpt lat="59.7742035426" lon="30.7885301951"><ele>7.83</ele><time>2015-06-07T11:07:19Z</time></trkpt><trkpt lat="59.7737750597" lon="30.7875060942"><ele>8.31</ele><time>2015-06-07T11:07:37Z</time></trkpt><trkpt lat="59.7734843753" lon="30.7860659156"><ele>7.83</ele><time>2015-06-07T11:07:59Z</time></trkpt><trkpt lat="59.7731138114" lon="30.7846727595"><ele>8.79</ele><time>2015-06-07T11:08:22Z</time></trkpt><trkpt lat="59.7728718258" lon="30.7833896577"><ele>7.83</ele><time>2015-06-07T11:08:43Z</time></trkpt><trkpt lat="59.7726640385" lon="30.7825114857"><ele>7.35</ele><time>2015-06-07T11:09:01Z</time></trkpt><trkpt lat="59.7724576760" lon="30.7813122030"><ele>7.35</ele><time>2015-06-07T11:09:21Z</time></trkpt><trkpt lat="59.7722990066" lon="30.7803110685"><ele>7.35</ele><time>2015-06-07T11:09:37Z</time></trkpt><trkpt lat="59.7720748745" lon="30.7788242865"><ele>7.35</ele><time>2015-06-07T11:09:59Z</time></trkpt><trkpt lat="59.7719507385" lon="30.7771797571"><ele>7.35</ele><time>2015-06-07T11:10:22Z</time></trkpt><trkpt lat="59.7718195617" lon="30.7756501436"><ele>7.35</ele><time>2015-06-07T11:10:43Z</time></trkpt><trkpt lat="59.7716371715" lon="30.7740678079"><ele>7.35</ele><time>2015-06-07T11:11:04Z</time></trkpt><trkpt lat="59.7713583056" lon="30.7720563188"><ele>7.35</ele><time>2015-06-07T11:11:30Z</time></trkpt><trkpt lat="59.7711403761" lon="30.7707201596"><ele>7.83</ele><time>2015-06-07T11:11:48Z</time></trkpt><trkpt lat="59.7708985582" lon="30.7698456757"><ele>7.35</ele><time>2015-06-07T11:12:07Z</time></trkpt><trkpt lat="59.7706788685" lon="30.7688724529"><ele>7.83</ele><time>2015-06-07T11:12:26Z</time></trkpt><trkpt lat="59.7705041058" lon="30.7681742404"><ele>8.31</ele><time>2015-06-07T11:12:40Z</time></trkpt><trkpt lat="59.7704674769" lon="30.7674706634"><ele>8.31</ele><time>2015-06-07T11:12:54Z</time></trkpt><trkpt lat="59.7703445982" lon="30.7666359097"><ele>7.83</ele><time>2015-06-07T11:13:11Z</time></trkpt><trkpt lat="59.7702209651" lon="30.7660358492"><ele>7.83</ele><time>2015-06-07T11:13:29Z</time></trkpt><trkpt lat="59.7701285128" lon="30.7654076256"><ele>7.83</ele><time>2015-06-07T11:13:48Z</time></trkpt><trkpt lat="59.7700482141" lon="30.7650328707"><ele>7.35</ele><time>2015-06-07T11:14:05Z</time></trkpt><trkpt lat="59.7699650656" lon="30.7646515779"><ele>8.31</ele><time>2015-06-07T11:14:22Z</time></trkpt><trkpt lat="59.7698079050" lon="30.7640376873"><ele>8.31</ele><time>2015-06-07T11:14:46Z</time></trkpt><trkpt lat="59.7696796618" lon="30.7632656302"><ele>8.31</ele><time>2015-06-07T11:15:09Z</time></trkpt><trkpt lat="59.7696934082" lon="30.7624543458"><ele>8.31</ele><time>2015-06-07T11:15:26Z</time></trkpt><trkpt lat="59.7697286960" lon="30.7613921072"><ele>7.83</ele><time>2015-06-07T11:15:49Z</time></trkpt><trkpt lat="59.7698621359" lon="30.7604611292"><ele>7.83</ele><time>2015-06-07T11:16:10Z</time></trkpt><trkpt lat="59.7699639760" lon="30.7596775051"><ele>7.83</ele><time>2015-06-07T11:16:29Z</time></trkpt><trkpt lat="59.7701130901" lon="30.7588084694"><ele>7.83</ele><time>2015-06-07T11:16:53Z</time></trkpt><trkpt lat="59.7701268364" lon="30.7583154459"><ele>7.35</ele><time>2015-06-07T11:17:09Z</time></trkpt><trkpt lat="59.7702011000" lon="30.7575862203"><ele>8.31</ele><time>2015-06-07T11:17:31Z</time></trkpt><trkpt lat="59.7701736074" lon="30.7571291551"><ele>8.79</ele><time>2015-06-07T11:17:52Z</time></trkpt><trkpt lat="59.7702832427" lon="30.7568244729"><ele>8.31</ele><time>2015-06-07T11:18:07Z</time></trkpt><trkpt lat="59.7702913731" lon="30.7564617880"><ele>7.83</ele><time>2015-06-07T11:18:24Z</time></trkpt><trkpt lat="59.7703404911" lon="30.7559539285"><ele>7.35</ele><time>2015-06-07T11:18:44Z</time></trkpt><trkpt lat="59.7704792954" lon="30.7554272097"><ele>7.35</ele><time>2015-06-07T11:19:04Z</time></trkpt><trkpt lat="59.7706606798" lon="30.7547644526"><ele>7.35</ele><time>2015-06-07T11:19:22Z</time></trkpt><trkpt lat="59.7708710656" lon="30.7540302817"><ele>7.35</ele><time>2015-06-07T11:19:42Z</time></trkpt><trkpt lat="59.7710671183" lon="30.7532429695"><ele>8.31</ele><time>2015-06-07T11:20:02Z</time></trkpt><trkpt lat="59.7712314036" lon="30.7526424900"><ele>8.31</ele><time>2015-06-07T11:20:17Z</time></trkpt><trkpt lat="59.7715265304" lon="30.7518440299"><ele>7.83</ele><time>2015-06-07T11:20:40Z</time></trkpt><trkpt lat="59.7718906403" lon="30.7511595637"><ele>7.35</ele><time>2015-06-07T11:21:03Z</time></trkpt><trkpt lat="59.7722368129" lon="30.7506152429"><ele>7.35</ele><time>2015-06-07T11:21:24Z</time></trkpt><trkpt lat="59.7725601029" lon="30.7500435133"><ele>7.83</ele><time>2015-06-07T11:21:44Z</time></trkpt><trkpt lat="59.7728507034" lon="30.7495386712"><ele>7.83</ele><time>2015-06-07T11:22:02Z</time></trkpt><trkpt lat="59.7731816210" lon="30.7492546923"><ele>8.31</ele><time>2015-06-07T11:22:22Z</time></trkpt><trkpt lat="59.7734126262" lon="30.7488646824"><ele>8.31</ele><time>2015-06-07T11:22:39Z</time></trkpt><trkpt lat="59.7736556176" lon="30.7486247923"><ele>7.35</ele><time>2015-06-07T11:22:56Z</time></trkpt><trkpt lat="59.7738130298" lon="30.7479648851"><ele>7.83</ele><time>2015-06-07T11:23:14Z</time></trkpt><trkpt lat="59.7741136048" lon="30.7476854324"><ele>7.83</ele><time>2015-06-07T11:23:29Z</time></trkpt><trkpt lat="59.7744986694" lon="30.7471974380"><ele>7.83</ele><time>2015-06-07T11:23:49Z</time></trkpt><trkpt lat="59.7748562414" lon="30.7464356069"><ele>7.35</ele><time>2015-06-07T11:24:12Z</time></trkpt><trkpt lat="59.7751395497" lon="30.7458434254"><ele>5.91</ele><time>2015-06-07T11:24:30Z</time></trkpt><trkpt lat="59.7753650229" lon="30.7453309558"><ele>5.42</ele><time>2015-06-07T11:24:46Z</time></trkpt><trkpt lat="59.7756764945" lon="30.7447033189"><ele>4.46</ele><time>2015-06-07T11:25:05Z</time></trkpt><trkpt lat="59.7760174703" lon="30.7438442577"><ele>4.94</ele><time>2015-06-07T11:25:25Z</time></trkpt><trkpt lat="59.7761547659" lon="30.7434199657"><ele>5.91</ele><time>2015-06-07T11:25:36Z</time></trkpt><trkpt lat="59.7763748746" lon="30.7430183049"><ele>5.42</ele><time>2015-06-07T11:25:51Z</time></trkpt><trkpt lat="59.7764263395" lon="30.7429564465"><ele>5.42</ele><time>2015-06-07T11:25:57Z</time></trkpt><trkpt lat="59.7764321230" lon="30.7424511015"><ele>5.42</ele><time>2015-06-07T11:26:12Z</time></trkpt><trkpt lat="59.7764059715" lon="30.7419623528"><ele>4.46</ele><time>2015-06-07T11:26:25Z</time></trkpt><trkpt lat="59.7764753737" lon="30.7415120769"><ele>3.98</ele><time>2015-06-07T11:26:36Z</time></trkpt><trkpt lat="59.7766958177" lon="30.7413481269"><ele>4.46</ele><time>2015-06-07T11:26:53Z</time></trkpt><trkpt lat="59.7769147530" lon="30.7411037106"><ele>4.46</ele><time>2015-06-07T11:27:09Z</time></trkpt><trkpt lat="59.7771121468" lon="30.7399853971"><ele>4.46</ele><time>2015-06-07T11:27:24Z</time></trkpt><trkpt lat="59.7771729995" lon="30.7393563353"><ele>3.50</ele><time>2015-06-07T11:27:31Z</time></trkpt><trkpt lat="59.7773015779" lon="30.7384991180"><ele>3.98</ele><time>2015-06-07T11:27:42Z</time></trkpt><trkpt lat="59.7772797849" lon="30.7385862060"><ele>3.98</ele><time>2015-06-07T11:27:50Z</time></trkpt><trkpt lat="59.7772952914" lon="30.7386059873"><ele>3.98</ele><time>2015-06-07T11:27:51Z</time></trkpt><trkpt lat="59.7773569822" lon="30.7386643253"><ele>3.98</ele><time>2015-06-07T11:27:55Z</time></trkpt><trkpt lat="59.7774338443" lon="30.7384559512"><ele>4.94</ele><time>2015-06-07T11:28:04Z</time></trkpt><trkpt lat="59.7774186730" lon="30.7384661771"><ele>5.42</ele><time>2015-06-07T11:28:08Z</time></trkpt><trkpt lat="59.7775387857" lon="30.7383902371"><ele>4.94</ele><time>2015-06-07T11:28:18Z</time></trkpt><trkpt lat="59.7775220219" lon="30.7382824458"><ele>5.42</ele><time>2015-06-07T11:28:30Z</time></trkpt><trkpt lat="59.7776839603" lon="30.7381591480"><ele>4.46</ele><time>2015-06-07T11:28:40Z</time></trkpt><trkpt lat="59.7778185736" lon="30.7370574307"><ele>4.46</ele><time>2015-06-07T11:28:56Z</time></trkpt><trkpt lat="59.7779260296" lon="30.7360835373"><ele>4.94</ele><time>2015-06-07T11:29:10Z</time></trkpt><trkpt lat="59.7780434601" lon="30.7350373920"><ele>5.42</ele><time>2015-06-07T11:29:24Z</time></trkpt><trkpt lat="59.7781168856" lon="30.7338387799"><ele>5.42</ele><time>2015-06-07T11:29:38Z</time></trkpt><trkpt lat="59.7781242616" lon="30.7336428110"><ele>5.91</ele><time>2015-06-07T11:29:40Z</time></trkpt><trkpt lat="59.7781790793" lon="30.7329904474"><ele>5.42</ele><time>2015-06-07T11:29:51Z</time></trkpt><trkpt lat="59.7781841923" lon="30.7325497270"><ele>5.91</ele><time>2015-06-07T11:29:58Z</time></trkpt><trkpt lat="59.7781532630" lon="30.7320090104"><ele>5.91</ele><time>2015-06-07T11:30:04Z</time></trkpt><trkpt lat="59.7781370021" lon="30.7316284720"><ele>5.91</ele><time>2015-06-07T11:30:08Z</time></trkpt><trkpt lat="59.7781753074" lon="30.7311134040"><ele>5.91</ele><time>2015-06-07T11:30:18Z</time></trkpt><trkpt lat="59.7782370821" lon="30.7309191115"><ele>4.94</ele><time>2015-06-07T11:30:27Z</time></trkpt><trkpt lat="59.7783281095" lon="30.7308285031"><ele>5.42</ele><time>2015-06-07T11:30:33Z</time></trkpt><trkpt lat="59.7786096577" lon="30.7303843461"><ele>4.94</ele><time>2015-06-07T11:30:52Z</time></trkpt><trkpt lat="59.7787187062" lon="30.7302563544"><ele>4.94</ele><time>2015-06-07T11:31:07Z</time></trkpt><trkpt lat="59.7788042855" lon="30.7302823383"><ele>5.42</ele><time>2015-06-07T11:31:21Z</time></trkpt><trkpt lat="59.7789114900" lon="30.7303446159"><ele>6.39</ele><time>2015-06-07T11:31:39Z</time></trkpt><trkpt lat="59.7790031880" lon="30.7303752936"><ele>6.87</ele><time>2015-06-07T11:31:54Z</time></trkpt><trkpt lat="59.7790937126" lon="30.7303990144"><ele>6.39</ele><time>2015-06-07T11:32:08Z</time></trkpt><trkpt lat="59.7792387195" lon="30.7303818315"><ele>5.91</ele><time>2015-06-07T11:32:25Z</time></trkpt><trkpt lat="59.7793275677" lon="30.7303883694"><ele>5.91</ele><time>2015-06-07T11:32:42Z</time></trkpt><trkpt lat="59.7793462593" lon="30.7303685881"><ele>4.94</ele><time>2015-06-07T11:32:55Z</time></trkpt><trkpt lat="59.7793478519" lon="30.7303170394"><ele>4.94</ele><time>2015-06-07T11:33:07Z</time></trkpt><trkpt lat="59.7793625202" lon="30.7302212343"><ele>4.46</ele><time>2015-06-07T11:33:22Z</time></trkpt><trkpt lat="59.7793771047" lon="30.7301412709"><ele>3.50</ele><time>2015-06-07T11:33:37Z</time></trkpt><trkpt lat="59.7793823853" lon="30.7301481441"><ele>3.50</ele><time>2015-06-07T11:33:38Z</time></trkpt><trkpt lat="59.7793524619" lon="30.7301746309"><ele>3.50</ele><time>2015-06-07T11:33:48Z</time></trkpt><trkpt lat="59.7793021705" lon="30.7298127841"><ele>3.50</ele><time>2015-06-07T11:33:57Z</time></trkpt><trkpt lat="59.7794595826" lon="30.7293180842"><ele>3.02</ele><time>2015-06-07T11:34:06Z</time></trkpt><trkpt lat="59.7796196770" lon="30.7291469257"><ele>2.06</ele><time>2015-06-07T11:34:10Z</time></trkpt><trkpt lat="59.7801546101" lon="30.7286365516"><ele>1.10</ele><time>2015-06-07T11:34:18Z</time></trkpt><trkpt lat="59.7803468909" lon="30.7283685822"><ele>2.06</ele><time>2015-06-07T11:34:21Z</time></trkpt><trkpt lat="59.7806943208" lon="30.7277986128"><ele>1.58</ele><time>2015-06-07T11:34:28Z</time></trkpt><trkpt lat="59.7809305228" lon="30.7272386178"><ele>2.54</ele><time>2015-06-07T11:34:38Z</time></trkpt><trkpt lat="59.7811124939" lon="30.7269330975"><ele>3.98</ele><time>2015-06-07T11:34:54Z</time></trkpt><trkpt lat="59.7811391484" lon="30.7268199418"><ele>4.46</ele><time>2015-06-07T11:34:57Z</time></trkpt><trkpt lat="59.7812095564" lon="30.7269452512"><ele>4.46</ele><time>2015-06-07T11:35:04Z</time></trkpt><trkpt lat="59.7811207920" lon="30.7266482804"><ele>4.46</ele><time>2015-06-07T11:35:12Z</time></trkpt><trkpt lat="59.7811968159" lon="30.7265601028"><ele>4.46</ele><time>2015-06-07T11:35:16Z</time></trkpt><trkpt lat="59.7814758494" lon="30.7264576759"><ele>5.42</ele><time>2015-06-07T11:35:31Z</time></trkpt><trkpt lat="59.7816099599" lon="30.7263312768"><ele>4.46</ele><time>2015-06-07T11:35:45Z</time></trkpt><trkpt lat="59.7818232793" lon="30.7263166085"><ele>4.46</ele><time>2015-06-07T11:36:01Z</time></trkpt><trkpt lat="59.7821563762" lon="30.7259499840"><ele>3.98</ele><time>2015-06-07T11:36:22Z</time></trkpt><trkpt lat="59.7823563684" lon="30.7257556077"><ele>3.98</ele><time>2015-06-07T11:36:33Z</time></trkpt><trkpt lat="59.7824551072" lon="30.7256351598"><ele>3.50</ele><time>2015-06-07T11:36:39Z</time></trkpt><trkpt lat="59.7824226692" lon="30.7251145598"><ele>4.46</ele><time>2015-06-07T11:36:54Z</time></trkpt><trkpt lat="59.7824654169" lon="30.7248968817"><ele>4.46</ele><time>2015-06-07T11:37:04Z</time></trkpt><trkpt lat="59.7824458033" lon="30.7246842328"><ele>4.46</ele><time>2015-06-07T11:37:12Z</time></trkpt><trkpt lat="59.7824469768" lon="30.7243135851"><ele>4.94</ele><time>2015-06-07T11:37:27Z</time></trkpt><trkpt lat="59.7825790755" lon="30.7239960786"><ele>4.46</ele><time>2015-06-07T11:37:45Z</time></trkpt><trkpt lat="59.7825789917" lon="30.7234313060"><ele>4.46</ele><time>2015-06-07T11:37:59Z</time></trkpt><trkpt lat="59.7827633936" lon="30.7224516291"><ele>3.98</ele><time>2015-06-07T11:38:20Z</time></trkpt><trkpt lat="59.7828835901" lon="30.7215212379"><ele>3.02</ele><time>2015-06-07T11:38:40Z</time></trkpt><trkpt lat="59.7829565965" lon="30.7205809560"><ele>3.98</ele><time>2015-06-07T11:39:00Z</time></trkpt><trkpt lat="59.7830365598" lon="30.7195676677"><ele>4.46</ele><time>2015-06-07T11:39:23Z</time></trkpt><trkpt lat="59.7830737755" lon="30.7184968796"><ele>4.94</ele><time>2015-06-07T11:39:47Z</time></trkpt><trkpt lat="59.7831027769" lon="30.7175234053"><ele>4.94</ele><time>2015-06-07T11:40:10Z</time></trkpt><trkpt lat="59.7830420919" lon="30.7168836147"><ele>5.42</ele><time>2015-06-07T11:40:31Z</time></trkpt><trkpt lat="59.7830218077" lon="30.7167509291"><ele>4.46</ele><time>2015-06-07T11:40:36Z</time></trkpt><trkpt lat="59.7829866875" lon="30.7164957840"><ele>4.46</ele><time>2015-06-07T11:40:45Z</time></trkpt><trkpt lat="59.7829852626" lon="30.7159124874"><ele>4.94</ele><time>2015-06-07T11:41:07Z</time></trkpt><trkpt lat="59.7829683311" lon="30.7154058851"><ele>4.94</ele><time>2015-06-07T11:41:25Z</time></trkpt><trkpt lat="59.7828886192" lon="30.7147732191"><ele>4.94</ele><time>2015-06-07T11:41:47Z</time></trkpt><trkpt lat="59.7828920558" lon="30.7141602505"><ele>4.46</ele><time>2015-06-07T11:42:10Z</time></trkpt><trkpt lat="59.7827809118" lon="30.7137258165"><ele>4.46</ele><time>2015-06-07T11:42:25Z</time></trkpt><trkpt lat="59.7827555984" lon="30.7130833436"><ele>4.46</ele><time>2015-06-07T11:42:41Z</time></trkpt><trkpt lat="59.7828248329" lon="30.7122203428"><ele>4.46</ele><time>2015-06-07T11:43:03Z</time></trkpt><trkpt lat="59.7828754596" lon="30.7115575857"><ele>3.98</ele><time>2015-06-07T11:43:21Z</time></trkpt><trkpt lat="59.7829809878" lon="30.7112421747"><ele>3.98</ele><time>2015-06-07T11:43:38Z</time></trkpt><trkpt lat="59.7829803172" lon="30.7107383385"><ele>3.98</ele><time>2015-06-07T11:43:49Z</time></trkpt><trkpt lat="59.7829508130" lon="30.7099413034"><ele>3.02</ele><time>2015-06-07T11:44:03Z</time></trkpt><trkpt lat="59.7829469573" lon="30.7090515643"><ele>3.50</ele><time>2015-06-07T11:44:18Z</time></trkpt><trkpt lat="59.7829552554" lon="30.7081003021"><ele>4.46</ele><time>2015-06-07T11:44:35Z</time></trkpt><trkpt lat="59.7829054669" lon="30.7073229644"><ele>4.46</ele><time>2015-06-07T11:44:52Z</time></trkpt><trkpt lat="59.7828601208" lon="30.7066447008"><ele>5.42</ele><time>2015-06-07T11:45:08Z</time></trkpt><trkpt lat="59.7828433570" lon="30.7058179099"><ele>5.42</ele><time>2015-06-07T11:45:27Z</time></trkpt><trkpt lat="59.7829115018" lon="30.7050977368"><ele>4.94</ele><time>2015-06-07T11:45:44Z</time></trkpt><trkpt lat="59.7828920558" lon="30.7042840216"><ele>4.94</ele><time>2015-06-07T11:46:03Z</time></trkpt><trkpt lat="59.7828980070" lon="30.7035127189"><ele>4.94</ele><time>2015-06-07T11:46:21Z</time></trkpt><trkpt lat="59.7829319537" lon="30.7027637120"><ele>3.98</ele><time>2015-06-07T11:46:39Z</time></trkpt><trkpt lat="59.7830069717" lon="30.7018879708"><ele>3.98</ele><time>2015-06-07T11:46:58Z</time></trkpt><trkpt lat="59.7830253281" lon="30.7012731582"><ele>4.46</ele><time>2015-06-07T11:47:14Z</time></trkpt><trkpt lat="59.7829598654" lon="30.7004291005"><ele>3.98</ele><time>2015-06-07T11:47:36Z</time></trkpt><trkpt lat="59.7829869390" lon="30.6997527648"><ele>3.98</ele><time>2015-06-07T11:47:53Z</time></trkpt><trkpt lat="59.7831203789" lon="30.6994167343"><ele>3.98</ele><time>2015-06-07T11:48:06Z</time></trkpt><trkpt lat="59.7832320258" lon="30.6989558134"><ele>3.50</ele><time>2015-06-07T11:48:20Z</time></trkpt><trkpt lat="59.7833223827" lon="30.6982970797"><ele>3.02</ele><time>2015-06-07T11:48:35Z</time></trkpt><trkpt lat="59.7833563294" lon="30.6975434627"><ele>2.54</ele><time>2015-06-07T11:48:52Z</time></trkpt><trkpt lat="59.7835532203" lon="30.6968532130"><ele>3.50</ele><time>2015-06-07T11:49:12Z</time></trkpt><trkpt lat="59.7835440002" lon="30.6961425953"><ele>4.94</ele><time>2015-06-07T11:49:29Z</time></trkpt><trkpt lat="59.7836843971" lon="30.6955814268"><ele>5.91</ele><time>2015-06-07T11:49:43Z</time></trkpt><trkpt lat="59.7838651109" lon="30.6950961985"><ele>6.87</ele><time>2015-06-07T11:50:00Z</time></trkpt><trkpt lat="59.7839014884" lon="30.6944041047"><ele>5.91</ele><time>2015-06-07T11:50:15Z</time></trkpt><trkpt lat="59.7839150671" lon="30.6937076524"><ele>5.42</ele><time>2015-06-07T11:50:29Z</time></trkpt><trkpt lat="59.7839103732" lon="30.6931148842"><ele>5.42</ele><time>2015-06-07T11:50:42Z</time></trkpt><trkpt lat="59.7840898298" lon="30.6923897658"><ele>3.98</ele><time>2015-06-07T11:50:57Z</time></trkpt><trkpt lat="59.7842959408" lon="30.6914102565"><ele>4.46</ele><time>2015-06-07T11:51:18Z</time></trkpt><trkpt lat="59.7844380140" lon="30.6908015627"><ele>3.98</ele><time>2015-06-07T11:51:34Z</time></trkpt><trkpt lat="59.7845739685" lon="30.6901624426"><ele>4.46</ele><time>2015-06-07T11:51:49Z</time></trkpt><trkpt lat="59.7847703565" lon="30.6893686764"><ele>4.46</ele><time>2015-06-07T11:52:09Z</time></trkpt><trkpt lat="59.7849575244" lon="30.6884042546"><ele>4.46</ele><time>2015-06-07T11:52:32Z</time></trkpt><trkpt lat="59.7850735299" lon="30.6874871906"><ele>4.94</ele><time>2015-06-07T11:52:53Z</time></trkpt><trkpt lat="59.7851911280" lon="30.6864692084"><ele>4.94</ele><time>2015-06-07T11:53:16Z</time></trkpt><trkpt lat="59.7852305230" lon="30.6856293418"><ele>4.94</ele><time>2015-06-07T11:53:35Z</time></trkpt><trkpt lat="59.7852347139" lon="30.6847583782"><ele>5.42</ele><time>2015-06-07T11:53:55Z</time></trkpt><trkpt lat="59.7853172757" lon="30.6835292559"><ele>4.94</ele><time>2015-06-07T11:54:21Z</time></trkpt><trkpt lat="59.7853949759" lon="30.6823588908"><ele>4.46</ele><time>2015-06-07T11:54:45Z</time></trkpt><trkpt lat="59.7855369654" lon="30.6812992506"><ele>3.50</ele><time>2015-06-07T11:55:07Z</time></trkpt><trkpt lat="59.7856804635" lon="30.6805204879"><ele>3.50</ele><time>2015-06-07T11:55:25Z</time></trkpt><trkpt lat="59.7856372967" lon="30.6796458364"><ele>4.94</ele><time>2015-06-07T11:55:44Z</time></trkpt><trkpt lat="59.7856802959" lon="30.6787286885"><ele>4.94</ele><time>2015-06-07T11:56:01Z</time></trkpt><trkpt lat="59.7857564874" lon="30.6778946891"><ele>4.46</ele><time>2015-06-07T11:56:16Z</time></trkpt><trkpt lat="59.7857575770" lon="30.6771054491"><ele>4.94</ele><time>2015-06-07T11:56:30Z</time></trkpt><trkpt lat="59.7859147377" lon="30.6765684206"><ele>3.98</ele><time>2015-06-07T11:56:42Z</time></trkpt><trkpt lat="59.7861362714" lon="30.6758640893"><ele>3.98</ele><time>2015-06-07T11:56:58Z</time></trkpt><trkpt lat="59.7862899955" lon="30.6751011685"><ele>3.98</ele><time>2015-06-07T11:57:14Z</time></trkpt><trkpt lat="59.7863549553" lon="30.6740470603"><ele>4.94</ele><time>2015-06-07T11:57:34Z</time></trkpt><trkpt lat="59.7864889819" lon="30.6731957942"><ele>3.50</ele><time>2015-06-07T11:57:52Z</time></trkpt><trkpt lat="59.7865980305" lon="30.6726401579"><ele>3.50</ele><time>2015-06-07T11:58:08Z</time></trkpt><trkpt lat="59.7867216635" lon="30.6720387563"><ele>4.94</ele><time>2015-06-07T11:58:24Z</time></trkpt><trkpt lat="59.7868850268" lon="30.6715679448"><ele>3.50</ele><time>2015-06-07T11:58:41Z</time></trkpt><trkpt lat="59.7868780699" lon="30.6707019266"><ele>3.50</ele><time>2015-06-07T11:59:00Z</time></trkpt><trkpt lat="59.7870828398" lon="30.6697003730"><ele>4.46</ele><time>2015-06-07T11:59:19Z</time></trkpt><trkpt lat="59.7872674093" lon="30.6686784513"><ele>3.98</ele><time>2015-06-07T11:59:36Z</time></trkpt><trkpt lat="59.7874586005" lon="30.6675882172"><ele>3.98</ele><time>2015-06-07T11:59:52Z</time></trkpt><trkpt lat="59.7875146754" lon="30.6671520229"><ele>3.98</ele><time>2015-06-07T11:59:58Z</time></trkpt><trkpt lat="59.7876925394" lon="30.6657847669"><ele>3.98</ele><time>2015-06-07T12:00:14Z</time></trkpt><trkpt lat="59.7877901886" lon="30.6652540248"><ele>3.98</ele><time>2015-06-07T12:00:20Z</time></trkpt><trkpt lat="59.7877913620" lon="30.6648207642"><ele>3.98</ele><time>2015-06-07T12:00:25Z</time></trkpt><trkpt lat="59.7878418211" lon="30.6639820710"><ele>3.50</ele><time>2015-06-07T12:00:36Z</time></trkpt><trkpt lat="59.7879529651" lon="30.6633296236"><ele>3.50</ele><time>2015-06-07T12:00:46Z</time></trkpt><trkpt lat="59.7880818788" lon="30.6623181794"><ele>2.54</ele><time>2015-06-07T12:01:01Z</time></trkpt><trkpt lat="59.7883298155" lon="30.6611601356"><ele>3.02</ele><time>2015-06-07T12:01:19Z</time></trkpt><trkpt lat="59.7885726392" lon="30.6602429040"><ele>3.02</ele><time>2015-06-07T12:01:34Z</time></trkpt><trkpt lat="59.7888698615" lon="30.6593914703"><ele>2.06</ele><time>2015-06-07T12:01:48Z</time></trkpt><trkpt lat="59.7889546864" lon="30.6591911428"><ele>1.58</ele><time>2015-06-07T12:01:51Z</time></trkpt><trkpt lat="59.7890457138" lon="30.6588815991"><ele>1.58</ele><time>2015-06-07T12:01:55Z</time></trkpt><trkpt lat="59.7891840152" lon="30.6584308203"><ele>2.06</ele><time>2015-06-07T12:02:01Z</time></trkpt><trkpt lat="59.7893694229" lon="30.6578432489"><ele>1.58</ele><time>2015-06-07T12:02:11Z</time></trkpt><trkpt lat="59.7894427646" lon="30.6575570907"><ele>1.58</ele><time>2015-06-07T12:02:15Z</time></trkpt><trkpt lat="59.7895477898" lon="30.6571616326"><ele>1.58</ele><time>2015-06-07T12:02:20Z</time></trkpt><trkpt lat="59.7896036133" lon="30.6570237502"><ele>1.58</ele><time>2015-06-07T12:02:22Z</time></trkpt><trkpt lat="59.7896685731" lon="30.6567128655"><ele>1.58</ele><time>2015-06-07T12:02:26Z</time></trkpt><trkpt lat="59.7898207884" lon="30.6555522233"><ele>1.58</ele><time>2015-06-07T12:02:42Z</time></trkpt><trkpt lat="59.7900155000" lon="30.6548971776"><ele>1.58</ele><time>2015-06-07T12:02:53Z</time></trkpt><trkpt lat="59.7900624387" lon="30.6544431299"><ele>2.06</ele><time>2015-06-07T12:02:59Z</time></trkpt><trkpt lat="59.7900900152" lon="30.6539818738"><ele>1.58</ele><time>2015-06-07T12:03:05Z</time></trkpt><trkpt lat="59.7901741695" lon="30.6537457556"><ele>1.58</ele><time>2015-06-07T12:03:09Z</time></trkpt><trkpt lat="59.7901874129" lon="30.6535044406"><ele>1.58</ele><time>2015-06-07T12:03:12Z</time></trkpt><trkpt lat="59.7902071103" lon="30.6532512233"><ele>1.58</ele><time>2015-06-07T12:03:15Z</time></trkpt><trkpt lat="59.7901914362" lon="30.6530094892"><ele>1.58</ele><time>2015-06-07T12:03:18Z</time></trkpt><trkpt lat="59.7903384548" lon="30.6524744723"><ele>1.10</ele><time>2015-06-07T12:03:27Z</time></trkpt><trkpt lat="59.7903342638" lon="30.6523220055"><ele>1.10</ele><time>2015-06-07T12:03:29Z</time></trkpt><trkpt lat="59.7904353496" lon="30.6516642775"><ele>2.06</ele><time>2015-06-07T12:03:38Z</time></trkpt><trkpt lat="59.7905397043" lon="30.6511251535"><ele>1.10</ele><time>2015-06-07T12:03:45Z</time></trkpt><trkpt lat="59.7906086873" lon="30.6506742071"><ele>-0.34</ele><time>2015-06-07T12:03:52Z</time></trkpt><trkpt lat="59.7905897442" lon="30.6505997758"><ele>0.14</ele><time>2015-06-07T12:03:53Z</time></trkpt><trkpt lat="59.7904840484" lon="30.6502866279"><ele>0.62</ele><time>2015-06-07T12:03:58Z</time></trkpt><trkpt lat="59.7904060129" lon="30.6494398043"><ele>1.10</ele><time>2015-06-07T12:04:11Z</time></trkpt><trkpt lat="59.7903451603" lon="30.6488561723"><ele>1.58</ele><time>2015-06-07T12:04:20Z</time></trkpt><trkpt lat="59.7903116327" lon="30.6483031344"><ele>2.06</ele><time>2015-06-07T12:04:30Z</time></trkpt><trkpt lat="59.7902007401" lon="30.6476575602"><ele>2.54</ele><time>2015-06-07T12:04:41Z</time></trkpt><trkpt lat="59.7901319247" lon="30.6468503829"><ele>2.54</ele><time>2015-06-07T12:04:54Z</time></trkpt><trkpt lat="59.7900698148" lon="30.6461490691"><ele>2.54</ele><time>2015-06-07T12:05:05Z</time></trkpt><trkpt lat="59.7900217026" lon="30.6453041732"><ele>2.06</ele><time>2015-06-07T12:05:18Z</time></trkpt><trkpt lat="59.7900735866" lon="30.6444938108"><ele>2.06</ele><time>2015-06-07T12:05:31Z</time></trkpt><trkpt lat="59.7900798731" lon="30.6444323715"><ele>2.06</ele><time>2015-06-07T12:05:32Z</time></trkpt><trkpt lat="59.7901683860" lon="30.6442498975"><ele>1.58</ele><time>2015-06-07T12:05:37Z</time></trkpt><trkpt lat="59.7901877481" lon="30.6436394434"><ele>1.58</ele><time>2015-06-07T12:05:49Z</time></trkpt><trkpt lat="59.7901936993" lon="30.6430900935"><ele>1.58</ele><time>2015-06-07T12:06:00Z</time></trkpt><trkpt lat="59.7902514506" lon="30.6425900292"><ele>2.06</ele><time>2015-06-07T12:06:13Z</time></trkpt><trkpt lat="59.7902341839" lon="30.6424114108"><ele>2.06</ele><time>2015-06-07T12:06:25Z</time></trkpt><trkpt lat="59.7901784442" lon="30.6423212215"><ele>2.06</ele><time>2015-06-07T12:06:39Z</time></trkpt><trkpt lat="59.7901671287" lon="30.6421961635"><ele>2.54</ele><time>2015-06-07T12:06:55Z</time></trkpt><trkpt lat="59.7902426496" lon="30.6420509890"><ele>2.54</ele><time>2015-06-07T12:07:09Z</time></trkpt><trkpt lat="59.7902589943" lon="30.6420094986"><ele>2.54</ele><time>2015-06-07T12:07:12Z</time></trkpt><trkpt lat="59.7903679591" lon="30.6417493243"><ele>3.02</ele><time>2015-06-07T12:07:30Z</time></trkpt><trkpt lat="59.7904358525" lon="30.6415144634"><ele>3.50</ele><time>2015-06-07T12:07:44Z</time></trkpt><trkpt lat="59.7904513590" lon="30.6414088514"><ele>2.54</ele><time>2015-06-07T12:07:56Z</time></trkpt><trkpt lat="59.7904951964" lon="30.6413388625"><ele>2.06</ele><time>2015-06-07T12:08:06Z</time></trkpt><trkpt lat="59.7905238625" lon="30.6413249485"><ele>2.06</ele><time>2015-06-07T12:08:09Z</time></trkpt><trkpt lat="59.7905485891" lon="30.6412967853"><ele>2.06</ele><time>2015-06-07T12:08:11Z</time></trkpt><trkpt lat="59.7905581445" lon="30.6409535464"><ele>2.54</ele><time>2015-06-07T12:08:22Z</time></trkpt><trkpt lat="59.7904877365" lon="30.6407828070"><ele>2.06</ele><time>2015-06-07T12:08:37Z</time></trkpt><trkpt lat="59.7904923465" lon="30.6407639477"><ele>2.06</ele><time>2015-06-07T12:08:39Z</time></trkpt><trkpt lat="59.7905371059" lon="30.6406236347"><ele>1.58</ele><time>2015-06-07T12:08:52Z</time></trkpt><trkpt lat="59.7905530315" lon="30.6405512150"><ele>2.06</ele><time>2015-06-07T12:09:04Z</time></trkpt><trkpt lat="59.7905596532" lon="30.6405461021"><ele>2.06</ele><time>2015-06-07T12:09:05Z</time></trkpt><trkpt lat="59.7905981261" lon="30.6404911168"><ele>2.54</ele><time>2015-06-07T12:09:09Z</time></trkpt><trkpt lat="59.7906196676" lon="30.6401377358"><ele>2.54</ele><time>2015-06-07T12:09:23Z</time></trkpt><trkpt lat="59.7904914245" lon="30.6400462054"><ele>1.58</ele><time>2015-06-07T12:09:37Z</time></trkpt><trkpt lat="59.7905006446" lon="30.6400546711"><ele>1.10</ele><time>2015-06-07T12:09:40Z</time></trkpt><trkpt lat="59.7905730642" lon="30.6399763003"><ele>2.06</ele><time>2015-06-07T12:09:45Z</time></trkpt><trkpt lat="59.7906231880" lon="30.6396781560"><ele>2.06</ele><time>2015-06-07T12:09:51Z</time></trkpt><trkpt lat="59.7908157203" lon="30.6390627567"><ele>0.14</ele><time>2015-06-07T12:10:05Z</time></trkpt><trkpt lat="59.7908738069" lon="30.6384398974"><ele>0.62</ele><time>2015-06-07T12:10:17Z</time></trkpt><trkpt lat="59.7909632418" lon="30.6376312114"><ele>1.10</ele><time>2015-06-07T12:10:32Z</time></trkpt><trkpt lat="59.7911085002" lon="30.6369117089"><ele>2.54</ele><time>2015-06-07T12:10:46Z</time></trkpt><trkpt lat="59.7912737075" lon="30.6360545754"><ele>3.02</ele><time>2015-06-07T12:11:02Z</time></trkpt><trkpt lat="59.7914778069" lon="30.6352573726"><ele>3.50</ele><time>2015-06-07T12:11:18Z</time></trkpt><trkpt lat="59.7917842492" lon="30.6343122292"><ele>1.10</ele><time>2015-06-07T12:11:38Z</time></trkpt><trkpt lat="59.7920056991" lon="30.6335295271"><ele>1.10</ele><time>2015-06-07T12:11:54Z</time></trkpt><trkpt lat="59.7921752650" lon="30.6328416243"><ele>0.14</ele><time>2015-06-07T12:12:08Z</time></trkpt><trkpt lat="59.7922622692" lon="30.6320876721"><ele>1.10</ele><time>2015-06-07T12:12:22Z</time></trkpt><trkpt lat="59.7922935337" lon="30.6315590255"><ele>2.06</ele><time>2015-06-07T12:12:32Z</time></trkpt><trkpt lat="59.7923143208" lon="30.6310425326"><ele>3.02</ele><time>2015-06-07T12:12:43Z</time></trkpt><trkpt lat="59.7923682164" lon="30.6304922607"><ele>4.46</ele><time>2015-06-07T12:12:55Z</time></trkpt><trkpt lat="59.7923825495" lon="30.6301224511"><ele>4.46</ele><time>2015-06-07T12:13:05Z</time></trkpt><trkpt lat="59.7924776841" lon="30.6296937168"><ele>4.94</ele><time>2015-06-07T12:13:17Z</time></trkpt><trkpt lat="59.7925442364" lon="30.6292588636"><ele>3.98</ele><time>2015-06-07T12:13:28Z</time></trkpt><trkpt lat="59.7926786821" lon="30.6286498345"><ele>3.98</ele><time>2015-06-07T12:13:44Z</time></trkpt><trkpt lat="59.7928475775" lon="30.6279937830"><ele>2.54</ele><time>2015-06-07T12:14:02Z</time></trkpt><trkpt lat="59.7930733021" lon="30.6273705047"><ele>3.50</ele><time>2015-06-07T12:14:21Z</time></trkpt><trkpt lat="59.7932957578" lon="30.6267545186"><ele>3.98</ele><time>2015-06-07T12:14:40Z</time></trkpt><trkpt lat="59.7935156152" lon="30.6260546297"><ele>3.98</ele><time>2015-06-07T12:14:57Z</time></trkpt><trkpt lat="59.7938196268" lon="30.6253667269"><ele>3.02</ele><time>2015-06-07T12:15:15Z</time></trkpt><trkpt lat="59.7941584233" lon="30.6247130223"><ele>2.06</ele><time>2015-06-07T12:15:33Z</time></trkpt><trkpt lat="59.7944400553" lon="30.6240971200"><ele>2.06</ele><time>2015-06-07T12:15:49Z</time></trkpt><trkpt lat="59.7947534546" lon="30.6233574171"><ele>2.54</ele><time>2015-06-07T12:16:07Z</time></trkpt><trkpt lat="59.7950700391" lon="30.6228581071"><ele>2.54</ele><time>2015-06-07T12:16:22Z</time></trkpt><trkpt lat="59.7954292037" lon="30.6222914904"><ele>3.50</ele><time>2015-06-07T12:16:39Z</time></trkpt><trkpt lat="59.7958032042" lon="30.6217555515"><ele>2.54</ele><time>2015-06-07T12:16:56Z</time></trkpt><trkpt lat="59.7960780468" lon="30.6212761905"><ele>3.02</ele><time>2015-06-07T12:17:10Z</time></trkpt><trkpt lat="59.7964630276" lon="30.6207738630"><ele>3.02</ele><time>2015-06-07T12:17:27Z</time></trkpt><trkpt lat="59.7966719046" lon="30.6203182228"><ele>3.98</ele><time>2015-06-07T12:17:40Z</time></trkpt><trkpt lat="59.7969807778" lon="30.6198132969"><ele>3.50</ele><time>2015-06-07T12:17:55Z</time></trkpt><trkpt lat="59.7973080073" lon="30.6192672998"><ele>2.54</ele><time>2015-06-07T12:18:11Z</time></trkpt><trkpt lat="59.7975070775" lon="30.6188664772"><ele>2.54</ele><time>2015-06-07T12:18:22Z</time></trkpt><trkpt lat="59.7977501526" lon="30.6184684206"><ele>2.06</ele><time>2015-06-07T12:18:34Z</time></trkpt><trkpt lat="59.7979998495" lon="30.6178913265"><ele>3.50</ele><time>2015-06-07T12:18:49Z</time></trkpt><trkpt lat="59.7982693277" lon="30.6173066888"><ele>3.50</ele><time>2015-06-07T12:19:04Z</time></trkpt><trkpt lat="59.7985393927" lon="30.6168364640"><ele>1.58</ele><time>2015-06-07T12:19:20Z</time></trkpt><trkpt lat="59.7987083718" lon="30.6166920438"><ele>-1.79</ele><time>2015-06-07T12:19:32Z</time></trkpt><trkpt lat="59.7989077773" lon="30.6164793950"><ele>2.06</ele><time>2015-06-07T12:19:47Z</time></trkpt><trkpt lat="59.7990928497" lon="30.6163313705"><ele>3.02</ele><time>2015-06-07T12:20:01Z</time></trkpt><trkpt lat="59.7992916685" lon="30.6162001099"><ele>3.02</ele><time>2015-06-07T12:20:16Z</time></trkpt><trkpt lat="59.7994208336" lon="30.6160037220"><ele>2.06</ele><time>2015-06-07T12:20:28Z</time></trkpt><trkpt lat="59.7996625677" lon="30.6157623231"><ele>4.46</ele><time>2015-06-07T12:20:46Z</time></trkpt><trkpt lat="59.7998129390" lon="30.6155189965"><ele>4.94</ele><time>2015-06-07T12:21:01Z</time></trkpt><trkpt lat="59.7999376617" lon="30.6155883148"><ele>4.94</ele><time>2015-06-07T12:21:16Z</time></trkpt><trkpt lat="59.8001283500" lon="30.6155381072"><ele>3.50</ele><time>2015-06-07T12:21:32Z</time></trkpt><trkpt lat="59.8003130034" lon="30.6151196826"><ele>3.98</ele><time>2015-06-07T12:21:46Z</time></trkpt><trkpt lat="59.8005110677" lon="30.6147575844"><ele>3.98</ele><time>2015-06-07T12:22:00Z</time></trkpt><trkpt lat="59.8007372115" lon="30.6143431831"><ele>4.46</ele><time>2015-06-07T12:22:16Z</time></trkpt><trkpt lat="59.8009883333" lon="30.6140203960"><ele>3.50</ele><time>2015-06-07T12:22:32Z</time></trkpt><trkpt lat="59.8011988029" lon="30.6137967668"><ele>4.46</ele><time>2015-06-07T12:22:45Z</time></trkpt><trkpt lat="59.8013275489" lon="30.6136349123"><ele>4.94</ele><time>2015-06-07T12:22:54Z</time></trkpt><trkpt lat="59.8013825342" lon="30.6133939326"><ele>4.94</ele><time>2015-06-07T12:23:02Z</time></trkpt><trkpt lat="59.8014887329" lon="30.6131792720"><ele>5.42</ele><time>2015-06-07T12:23:12Z</time></trkpt><trkpt lat="59.8016230110" lon="30.6129320059"><ele>5.42</ele><time>2015-06-07T12:23:24Z</time></trkpt><trkpt lat="59.8017909843" lon="30.6128074508"><ele>5.42</ele><time>2015-06-07T12:23:37Z</time></trkpt><trkpt lat="59.8020208161" lon="30.6126201153"><ele>4.46</ele><time>2015-06-07T12:23:53Z</time></trkpt><trkpt lat="59.8022009432" lon="30.6123977434"><ele>4.46</ele><time>2015-06-07T12:24:08Z</time></trkpt><trkpt lat="59.8023308627" lon="30.6121771317"><ele>4.94</ele><time>2015-06-07T12:24:21Z</time></trkpt><trkpt lat="59.8025047872" lon="30.6119832583"><ele>3.98</ele><time>2015-06-07T12:24:34Z</time></trkpt><trkpt lat="59.8027336132" lon="30.6116386782"><ele>3.02</ele><time>2015-06-07T12:24:50Z</time></trkpt><trkpt lat="59.8029315099" lon="30.6112329103"><ele>3.50</ele><time>2015-06-07T12:25:06Z</time></trkpt><trkpt lat="59.8031247966" lon="30.6108835526"><ele>3.02</ele><time>2015-06-07T12:25:21Z</time></trkpt><trkpt lat="59.8033786844" lon="30.6105516292"><ele>2.54</ele><time>2015-06-07T12:25:38Z</time></trkpt><trkpt lat="59.8035735637" lon="30.6102748588"><ele>2.54</ele><time>2015-06-07T12:25:54Z</time></trkpt><trkpt lat="59.8037494160" lon="30.6100091524"><ele>2.54</ele><time>2015-06-07T12:26:10Z</time></trkpt><trkpt lat="59.8039559461" lon="30.6097323820"><ele>3.02</ele><time>2015-06-07T12:26:28Z</time></trkpt><trkpt lat="59.8041403480" lon="30.6095115189"><ele>3.50</ele><time>2015-06-07T12:26:43Z</time></trkpt><trkpt lat="59.8043675814" lon="30.6091402844"><ele>3.98</ele><time>2015-06-07T12:26:58Z</time></trkpt><trkpt lat="59.8045971617" lon="30.6087770965"><ele>4.46</ele><time>2015-06-07T12:27:13Z</time></trkpt><trkpt lat="59.8047616985" lon="30.6083125714"><ele>3.98</ele><time>2015-06-07T12:27:28Z</time></trkpt><trkpt lat="59.8049155064" lon="30.6078638043"><ele>2.54</ele><time>2015-06-07T12:27:43Z</time></trkpt><trkpt lat="59.8050186876" lon="30.6074257661"><ele>3.02</ele><time>2015-06-07T12:28:02Z</time></trkpt><trkpt lat="59.8050191067" lon="30.6073785760"><ele>3.50</ele><time>2015-06-07T12:28:05Z</time></trkpt><trkpt lat="59.8050188553" lon="30.6070650090"><ele>3.50</ele><time>2015-06-07T12:28:15Z</time></trkpt><trkpt lat="59.8051123973" lon="30.6067466643"><ele>4.46</ele><time>2015-06-07T12:28:29Z</time></trkpt><trkpt lat="59.8051587492" lon="30.6066215225"><ele>4.46</ele><time>2015-06-07T12:28:35Z</time></trkpt><trkpt lat="59.8051672149" lon="30.6065806188"><ele>4.94</ele><time>2015-06-07T12:28:37Z</time></trkpt><trkpt lat="59.8051697295" lon="30.6064110529"><ele>3.98</ele><time>2015-06-07T12:28:47Z</time></trkpt><trkpt lat="59.8051246349" lon="30.6060852483"><ele>3.02</ele><time>2015-06-07T12:29:04Z</time></trkpt><trkpt lat="59.8050680570" lon="30.6057481281"><ele>2.06</ele><time>2015-06-07T12:29:22Z</time></trkpt><trkpt lat="59.8050458450" lon="30.6057244074"><ele>2.54</ele><time>2015-06-07T12:29:25Z</time></trkpt><trkpt lat="59.8049025983" lon="30.6055268459"><ele>2.54</ele><time>2015-06-07T12:29:42Z</time></trkpt><trkpt lat="59.8048679810" lon="30.6054778956"><ele>2.54</ele><time>2015-06-07T12:29:47Z</time></trkpt><trkpt lat="59.8047473654" lon="30.6053178851"><ele>2.06</ele><time>2015-06-07T12:30:04Z</time></trkpt><trkpt lat="59.8046239838" lon="30.6052608881"><ele>1.58</ele><time>2015-06-07T12:30:22Z</time></trkpt><trkpt lat="59.8045659810" lon="30.6053702720"><ele>1.10</ele><time>2015-06-07T12:30:39Z</time></trkpt><trkpt lat="59.8044859339" lon="30.6054276880"><ele>0.62</ele><time>2015-06-07T12:30:53Z</time></trkpt><trkpt lat="59.8044058867" lon="30.6053593755"><ele>-0.82</ele><time>2015-06-07T12:31:09Z</time></trkpt><trkpt lat="59.8043462075" lon="30.6052612234"><ele>0.62</ele><time>2015-06-07T12:31:25Z</time></trkpt><trkpt lat="59.8043332156" lon="30.6052245107"><ele>0.62</ele><time>2015-06-07T12:31:42Z</time></trkpt><trkpt lat="59.8043419328" lon="30.6051530968"><ele>0.14</ele><time>2015-06-07T12:31:56Z</time></trkpt><trkpt lat="59.8043390829" lon="30.6051629875"><ele>-0.34</ele><time>2015-06-07T12:32:16Z</time></trkpt><trkpt lat="59.8043458723" lon="30.6051606406"><ele>-0.34</ele><time>2015-06-07T12:32:41Z</time></trkpt><trkpt lat="59.8043474648" lon="30.6051544379"><ele>-0.82</ele><time>2015-06-07T12:33:04Z</time></trkpt><trkpt lat="59.8043543380" lon="30.6051593833"><ele>0.14</ele><time>2015-06-07T12:33:25Z</time></trkpt><trkpt lat="59.8043525778" lon="30.6051529292"><ele>-0.82</ele><time>2015-06-07T12:33:48Z</time></trkpt><trkpt lat="59.8043440282" lon="30.6051475648"><ele>-0.34</ele><time>2015-06-07T12:34:09Z</time></trkpt><trkpt lat="59.8043439444" lon="30.6051572040"><ele>-0.34</ele><time>2015-06-07T12:34:37Z</time></trkpt><trkpt lat="59.8043507338" lon="30.6051715370"><ele>-0.34</ele><time>2015-06-07T12:35:07Z</time></trkpt><trkpt lat="59.8043421842" lon="30.6051448826"><ele>-0.34</ele><time>2015-06-07T12:35:34Z</time></trkpt><trkpt lat="59.8043524101" lon="30.6051625684"><ele>-0.34</ele><time>2015-06-07T12:36:01Z</time></trkpt><trkpt lat="59.8043458723" lon="30.6051592994"><ele>-0.34</ele><time>2015-06-07T12:36:29Z</time></trkpt><trkpt lat="59.8043423519" lon="30.6051807571"><ele>0.14</ele><time>2015-06-07T12:36:51Z</time></trkpt><trkpt lat="59.8043365683" lon="30.6051613949"><ele>-0.34</ele><time>2015-06-07T12:37:17Z</time></trkpt><trkpt lat="59.8043374904" lon="30.6051636580"><ele>-0.34</ele><time>2015-06-07T12:37:41Z</time></trkpt><trkpt lat="59.8043381609" lon="30.6051592156"><ele>-0.82</ele><time>2015-06-07T12:38:06Z</time></trkpt><trkpt lat="59.8043422680" lon="30.6051499955"><ele>-1.79</ele><time>2015-06-07T12:38:33Z</time></trkpt><trkpt lat="59.8043325450" lon="30.6051512528"><ele>-2.75</ele><time>2015-06-07T12:39:01Z</time></trkpt><trkpt lat="59.8043344729" lon="30.6051487383"><ele>-2.27</ele><time>2015-06-07T12:39:28Z</time></trkpt><trkpt lat="59.8043359816" lon="30.6051492412"><ele>-2.27</ele><time>2015-06-07T12:39:59Z</time></trkpt><trkpt lat="59.8043361492" lon="30.6051523425"><ele>-1.30</ele><time>2015-06-07T12:40:24Z</time></trkpt><trkpt lat="59.8043323774" lon="30.6051539350"><ele>-1.79</ele><time>2015-06-07T12:40:50Z</time></trkpt><trkpt lat="59.8043317068" lon="30.6051546894"><ele>-2.27</ele><time>2015-06-07T12:41:11Z</time></trkpt><trkpt lat="59.8043313716" lon="30.6051497441"><ele>-2.75</ele><time>2015-06-07T12:41:33Z</time></trkpt><trkpt lat="59.8043374904" lon="30.6051396858"><ele>-3.71</ele><time>2015-06-07T12:42:00Z</time></trkpt><trkpt lat="59.8043384124" lon="30.6051482353"><ele>-2.75</ele><time>2015-06-07T12:42:22Z</time></trkpt><trkpt lat="59.8043360654" lon="30.6051500794"><ele>-2.27</ele><time>2015-06-07T12:42:44Z</time></trkpt><trkpt lat="59.8043399211" lon="30.6051561143"><ele>-1.79</ele><time>2015-06-07T12:43:11Z</time></trkpt><trkpt lat="59.8043361492" lon="30.6051542703"><ele>-1.30</ele><time>2015-06-07T12:43:39Z</time></trkpt><trkpt lat="59.8043363169" lon="30.6051607244"><ele>-1.30</ele><time>2015-06-07T12:43:57Z</time></trkpt><trkpt lat="59.8043431900" lon="30.6051610596"><ele>-0.34</ele><time>2015-06-07T12:44:21Z</time></trkpt><trkpt lat="59.8043400049" lon="30.6051592156"><ele>-0.82</ele><time>2015-06-07T12:44:43Z</time></trkpt><trkpt lat="59.8043389991" lon="30.6051558629"><ele>-0.82</ele><time>2015-06-07T12:45:08Z</time></trkpt><trkpt lat="59.8043293599" lon="30.6051613111"><ele>-1.79</ele><time>2015-06-07T12:45:32Z</time></trkpt><trkpt lat="59.8043317907" lon="30.6051761471"><ele>-2.75</ele><time>2015-06-07T12:46:02Z</time></trkpt><trkpt lat="59.8043326288" lon="30.6051644962"><ele>-3.23</ele><time>2015-06-07T12:46:25Z</time></trkpt><trkpt lat="59.8043337185" lon="30.6051702797"><ele>-2.75</ele><time>2015-06-07T12:46:50Z</time></trkpt><trkpt lat="59.8043338861" lon="30.6051682681"><ele>-0.34</ele><time>2015-06-07T12:47:19Z</time></trkpt><trkpt lat="59.8043320421" lon="30.6051650830"><ele>0.14</ele><time>2015-06-07T12:47:45Z</time></trkpt><trkpt lat="59.8043366522" lon="30.6051619817"><ele>-0.34</ele><time>2015-06-07T12:48:10Z</time></trkpt><trkpt lat="59.8043393344" lon="30.6051637419"><ele>1.10</ele><time>2015-06-07T12:48:36Z</time></trkpt><trkpt lat="59.8043399211" lon="30.6051731296"><ele>1.10</ele><time>2015-06-07T12:48:59Z</time></trkpt><trkpt lat="59.8043433577" lon="30.6051531807"><ele>0.62</ele><time>2015-06-07T12:49:24Z</time></trkpt><trkpt lat="59.8043424357" lon="30.6051440444"><ele>0.62</ele><time>2015-06-07T12:49:46Z</time></trkpt><trkpt lat="59.8043448664" lon="30.6051600538"><ele>-0.34</ele><time>2015-06-07T12:50:13Z</time></trkpt><trkpt lat="59.8043452017" lon="30.6051810086"><ele>-0.34</ele><time>2015-06-07T12:50:33Z</time></trkpt><trkpt lat="59.8043483030" lon="30.6051820144"><ele>0.62</ele><time>2015-06-07T12:50:54Z</time></trkpt><trkpt lat="59.8043475486" lon="30.6051837746"><ele>0.14</ele><time>2015-06-07T12:51:16Z</time></trkpt><trkpt lat="59.8043496441" lon="30.6051733810"><ele>0.62</ele><time>2015-06-07T12:51:38Z</time></trkpt><trkpt lat="59.8043522425" lon="30.6051803380"><ele>1.10</ele><time>2015-06-07T12:51:58Z</time></trkpt><trkpt lat="59.8043464590" lon="30.6051707827"><ele>1.58</ele><time>2015-06-07T12:52:24Z</time></trkpt><trkpt lat="59.8043497279" lon="30.6051630713"><ele>2.06</ele><time>2015-06-07T12:52:52Z</time></trkpt><trkpt lat="59.8043469619" lon="30.6051653344"><ele>2.06</ele><time>2015-06-07T12:53:14Z</time></trkpt><trkpt lat="59.8043443635" lon="30.6051717047"><ele>2.06</ele><time>2015-06-07T12:53:37Z</time></trkpt><trkpt lat="59.8043551762" lon="30.6051648315"><ele>1.10</ele><time>2015-06-07T12:54:02Z</time></trkpt><trkpt lat="59.8043469619" lon="30.6051672623"><ele>0.62</ele><time>2015-06-07T12:54:24Z</time></trkpt><trkpt lat="59.8043532483" lon="30.6051598024"><ele>0.14</ele><time>2015-06-07T12:54:48Z</time></trkpt><trkpt lat="59.8043504823" lon="30.6051568687"><ele>1.10</ele><time>2015-06-07T12:55:10Z</time></trkpt><trkpt lat="59.8043436091" lon="30.6051554438"><ele>1.10</ele><time>2015-06-07T12:55:28Z</time></trkpt><trkpt lat="59.8043474648" lon="30.6051593833"><ele>0.62</ele><time>2015-06-07T12:55:54Z</time></trkpt><trkpt lat="59.8043478001" lon="30.6051533483"><ele>1.58</ele><time>2015-06-07T12:56:23Z</time></trkpt><trkpt lat="59.8043436091" lon="30.6051530130"><ele>0.62</ele><time>2015-06-07T12:56:45Z</time></trkpt><trkpt lat="59.8043506499" lon="30.6051730458"><ele>1.10</ele><time>2015-06-07T12:57:08Z</time></trkpt><trkpt lat="59.8043563496" lon="30.6051598024"><ele>1.10</ele><time>2015-06-07T12:57:29Z</time></trkpt><trkpt lat="59.8043490574" lon="30.6051687710"><ele>0.62</ele><time>2015-06-07T12:57:53Z</time></trkpt><trkpt lat="59.8043400887" lon="30.6051619817"><ele>1.58</ele><time>2015-06-07T12:58:18Z</time></trkpt><trkpt lat="59.8043514881" lon="30.6051606406"><ele>0.62</ele><time>2015-06-07T12:58:42Z</time></trkpt><trkpt lat="59.8043584451" lon="30.6051698606"><ele>0.14</ele><time>2015-06-07T12:59:06Z</time></trkpt><trkpt lat="59.8043468781" lon="30.6051556114"><ele>0.14</ele><time>2015-06-07T12:59:31Z</time></trkpt><trkpt lat="59.8043524940" lon="30.6051591318"><ele>0.62</ele><time>2015-06-07T12:59:55Z</time></trkpt><trkpt lat="59.8043602891" lon="30.6051610596"><ele>1.10</ele><time>2015-06-07T13:00:20Z</time></trkpt><trkpt lat="59.8043602053" lon="30.6051625684"><ele>-0.34</ele><time>2015-06-07T13:00:43Z</time></trkpt><trkpt lat="59.8043600377" lon="30.6051729620"><ele>1.10</ele><time>2015-06-07T13:01:06Z</time></trkpt><trkpt lat="59.8043549247" lon="30.6051632389"><ele>1.10</ele><time>2015-06-07T13:01:28Z</time></trkpt><trkpt lat="59.8043576907" lon="30.6051572040"><ele>1.10</ele><time>2015-06-07T13:01:55Z</time></trkpt><trkpt lat="59.8043488897" lon="30.6051733810"><ele>1.58</ele><time>2015-06-07T13:02:18Z</time></trkpt><trkpt lat="59.8043460399" lon="30.6051571202"><ele>1.10</ele><time>2015-06-07T13:02:43Z</time></trkpt><trkpt lat="59.8043505661" lon="30.6051703636"><ele>0.62</ele><time>2015-06-07T13:03:01Z</time></trkpt><trkpt lat="59.8043469619" lon="30.6051630713"><ele>0.14</ele><time>2015-06-07T13:03:23Z</time></trkpt><trkpt lat="59.8043543380" lon="30.6051581260"><ele>0.62</ele><time>2015-06-07T13:03:43Z</time></trkpt><trkpt lat="59.8043498956" lon="30.6051670946"><ele>-0.34</ele><time>2015-06-07T13:04:10Z</time></trkpt><trkpt lat="59.8043540027" lon="30.6051837746"><ele>-0.34</ele><time>2015-06-07T13:04:30Z</time></trkpt><trkpt lat="59.8043472134" lon="30.6051505823"><ele>1.58</ele><time>2015-06-07T13:04:55Z</time></trkpt><trkpt lat="59.8043537512" lon="30.6051732134"><ele>3.50</ele><time>2015-06-07T13:05:15Z</time></trkpt><trkpt lat="59.8043583613" lon="30.6051647477"><ele>3.98</ele><time>2015-06-07T13:05:34Z</time></trkpt><trkpt lat="59.8043434415" lon="30.6051747221"><ele>4.46</ele><time>2015-06-07T13:05:57Z</time></trkpt><trkpt lat="59.8043385800" lon="30.6051613111"><ele>3.50</ele><time>2015-06-07T13:06:19Z</time></trkpt><trkpt lat="59.8043465428" lon="30.6051688548"><ele>3.50</ele><time>2015-06-07T13:06:39Z</time></trkpt><trkpt lat="59.8043444473" lon="30.6051624008"><ele>3.50</ele><time>2015-06-07T13:07:02Z</time></trkpt><trkpt lat="59.8043441121" lon="30.6051706150"><ele>3.98</ele><time>2015-06-07T13:07:24Z</time></trkpt><trkpt lat="59.8043528292" lon="30.6051665917"><ele>3.98</ele><time>2015-06-07T13:07:45Z</time></trkpt><trkpt lat="59.8043376580" lon="30.6051544379"><ele>3.02</ele><time>2015-06-07T13:08:03Z</time></trkpt><trkpt lat="59.8043412622" lon="30.6051575392"><ele>3.50</ele><time>2015-06-07T13:08:26Z</time></trkpt><trkpt lat="59.8043499794" lon="30.6051542703"><ele>5.42</ele><time>2015-06-07T13:08:52Z</time></trkpt><trkpt lat="59.8043514881" lon="30.6051503308"><ele>4.94</ele><time>2015-06-07T13:09:10Z</time></trkpt><trkpt lat="59.8043571040" lon="30.6051432900"><ele>5.42</ele><time>2015-06-07T13:09:35Z</time></trkpt><trkpt lat="59.8043566011" lon="30.6051541865"><ele>5.42</ele><time>2015-06-07T13:09:54Z</time></trkpt><trkpt lat="59.8043449502" lon="30.6051625684"><ele>5.42</ele><time>2015-06-07T13:10:15Z</time></trkpt><trkpt lat="59.8043462913" lon="30.6051660050"><ele>5.42</ele><time>2015-06-07T13:10:33Z</time></trkpt><trkpt lat="59.8043422680" lon="30.6051615626"><ele>3.98</ele><time>2015-06-07T13:10:56Z</time></trkpt><trkpt lat="59.8043566849" lon="30.6051724590"><ele>6.39</ele><time>2015-06-07T13:11:16Z</time></trkpt><trkpt lat="59.8043496441" lon="30.6051556952"><ele>4.46</ele><time>2015-06-07T13:11:39Z</time></trkpt><trkpt lat="59.8043515719" lon="30.6051670946"><ele>4.94</ele><time>2015-06-07T13:12:04Z</time></trkpt><trkpt lat="59.8043410107" lon="30.6051502470"><ele>3.98</ele><time>2015-06-07T13:12:28Z</time></trkpt><trkpt lat="59.8043450341" lon="30.6051636580"><ele>4.46</ele><time>2015-06-07T13:12:50Z</time></trkpt><trkpt lat="59.8043478839" lon="30.6051554438"><ele>4.46</ele><time>2015-06-07T13:13:14Z</time></trkpt><trkpt lat="59.8043402564" lon="30.6051469781"><ele>4.46</ele><time>2015-06-07T13:13:37Z</time></trkpt><trkpt lat="59.8043600377" lon="30.6051521748"><ele>5.42</ele><time>2015-06-07T13:14:00Z</time></trkpt><trkpt lat="59.8043555953" lon="30.6051469781"><ele>6.39</ele><time>2015-06-07T13:14:22Z</time></trkpt><trkpt lat="59.8043643963" lon="30.6051581260"><ele>6.87</ele><time>2015-06-07T13:14:44Z</time></trkpt><trkpt lat="59.8043577746" lon="30.6051699445"><ele>6.39</ele><time>2015-06-07T13:15:06Z</time></trkpt><trkpt lat="59.8043567687" lon="30.6051696930"><ele>5.91</ele><time>2015-06-07T13:15:28Z</time></trkpt><trkpt lat="59.8043571878" lon="30.6051700283"><ele>5.91</ele><time>2015-06-07T13:15:46Z</time></trkpt><trkpt lat="59.8043503985" lon="30.6051629875"><ele>6.87</ele><time>2015-06-07T13:16:10Z</time></trkpt><trkpt lat="59.8043472972" lon="30.6051636580"><ele>5.42</ele><time>2015-06-07T13:16:31Z</time></trkpt><trkpt lat="59.8043574393" lon="30.6051608920"><ele>3.98</ele><time>2015-06-07T13:16:53Z</time></trkpt><trkpt lat="59.8043378256" lon="30.6051710341"><ele>3.98</ele><time>2015-06-07T13:17:15Z</time></trkpt><trkpt lat="59.8043685872" lon="30.6051794998"><ele>6.39</ele><time>2015-06-07T13:17:39Z</time></trkpt><trkpt lat="59.8043576907" lon="30.6051580422"><ele>5.91</ele><time>2015-06-07T13:18:06Z</time></trkpt><trkpt lat="59.8043560982" lon="30.6051587127"><ele>5.42</ele><time>2015-06-07T13:18:31Z</time></trkpt><trkpt lat="59.8043654859" lon="30.6051613111"><ele>6.39</ele><time>2015-06-07T13:18:56Z</time></trkpt><trkpt lat="59.8043559305" lon="30.6051765662"><ele>4.94</ele><time>2015-06-07T13:19:19Z</time></trkpt><trkpt lat="59.8043554276" lon="30.6051663402"><ele>6.39</ele><time>2015-06-07T13:19:42Z</time></trkpt><trkpt lat="59.8043607082" lon="30.6051812600"><ele>6.87</ele><time>2015-06-07T13:20:08Z</time></trkpt><trkpt lat="59.8043604568" lon="30.6051826011"><ele>5.42</ele><time>2015-06-07T13:20:32Z</time></trkpt><trkpt lat="59.8043682519" lon="30.6051742192"><ele>7.35</ele><time>2015-06-07T13:20:55Z</time></trkpt><trkpt lat="59.8043672461" lon="30.6051667593"><ele>7.83</ele><time>2015-06-07T13:21:21Z</time></trkpt><trkpt lat="59.8043748736" lon="30.6051645800"><ele>8.79</ele><time>2015-06-07T13:21:51Z</time></trkpt><trkpt lat="59.8043583613" lon="30.6051552761"><ele>7.83</ele><time>2015-06-07T13:22:11Z</time></trkpt><trkpt lat="59.8043637257" lon="30.6051515881"><ele>8.31</ele><time>2015-06-07T13:22:38Z</time></trkpt><trkpt lat="59.8043590318" lon="30.6051641610"><ele>7.35</ele><time>2015-06-07T13:23:04Z</time></trkpt><trkpt lat="59.8043690901" lon="30.6051432062"><ele>6.39</ele><time>2015-06-07T13:23:31Z</time></trkpt><trkpt lat="59.8043557629" lon="30.6051604729"><ele>5.91</ele><time>2015-06-07T13:23:57Z</time></trkpt><trkpt lat="59.8043645639" lon="30.6051577069"><ele>4.46</ele><time>2015-06-07T13:24:21Z</time></trkpt><trkpt lat="59.8043565173" lon="30.6051426195"><ele>3.02</ele><time>2015-06-07T13:24:45Z</time></trkpt><trkpt lat="59.8043394182" lon="30.6051565334"><ele>2.54</ele><time>2015-06-07T13:25:09Z</time></trkpt><trkpt lat="59.8043492250" lon="30.6051490735"><ele>3.98</ele><time>2015-06-07T13:25:36Z</time></trkpt><trkpt lat="59.8043574393" lon="30.6051666755"><ele>5.42</ele><time>2015-06-07T13:25:57Z</time></trkpt><trkpt lat="59.8043558467" lon="30.6051731296"><ele>4.94</ele><time>2015-06-07T13:26:22Z</time></trkpt><trkpt lat="59.8043623008" lon="30.6051649991"><ele>5.91</ele><time>2015-06-07T13:26:46Z</time></trkpt><trkpt lat="59.8043662403" lon="30.6051555276"><ele>5.91</ele><time>2015-06-07T13:27:10Z</time></trkpt><trkpt lat="59.8043756280" lon="30.6051563658"><ele>5.42</ele><time>2015-06-07T13:27:29Z</time></trkpt><trkpt lat="59.8043695092" lon="30.6051499117"><ele>4.46</ele><time>2015-06-07T13:27:52Z</time></trkpt><trkpt lat="59.8043577746" lon="30.6051601376"><ele>4.46</ele><time>2015-06-07T13:28:12Z</time></trkpt><trkpt lat="59.8043314554" lon="30.6051287055"><ele>4.46</ele><time>2015-06-07T13:28:27Z</time></trkpt><trkpt lat="59.8043219838" lon="30.6051278673"><ele>4.94</ele><time>2015-06-07T13:28:38Z</time></trkpt><trkpt lat="59.8043299466" lon="30.6051170547"><ele>4.94</ele><time>2015-06-07T13:28:59Z</time></trkpt><trkpt lat="59.8043339700" lon="30.6051132828"><ele>5.91</ele><time>2015-06-07T13:29:22Z</time></trkpt><trkpt lat="59.8043232411" lon="30.6051257718"><ele>5.42</ele><time>2015-06-07T13:29:46Z</time></trkpt><trkpt lat="59.8043306172" lon="30.6051139534"><ele>5.91</ele><time>2015-06-07T13:30:17Z</time></trkpt><trkpt lat="59.8043303657" lon="30.6051268615"><ele>6.87</ele><time>2015-06-07T13:30:44Z</time></trkpt><trkpt lat="59.8043200560" lon="30.6051181443"><ele>5.91</ele><time>2015-06-07T13:31:06Z</time></trkpt><trkpt lat="59.8043338861" lon="30.6051221676"><ele>6.87</ele><time>2015-06-07T13:31:32Z</time></trkpt><trkpt lat="59.8043201398" lon="30.6051213294"><ele>4.94</ele><time>2015-06-07T13:31:59Z</time></trkpt><trkpt lat="59.8043063097" lon="30.6051342376"><ele>3.98</ele><time>2015-06-07T13:32:37Z</time></trkpt><trkpt lat="59.8043112550" lon="30.6051114388"><ele>3.02</ele><time>2015-06-07T13:33:16Z</time></trkpt><trkpt lat="59.8043040466" lon="30.6051320583"><ele>2.54</ele><time>2015-06-07T13:33:56Z</time></trkpt><trkpt lat="59.8043042142" lon="30.6051245145"><ele>2.54</ele><time>2015-06-07T13:34:30Z</time></trkpt><trkpt lat="59.8043110874" lon="30.6051283702"><ele>3.02</ele><time>2015-06-07T13:35:12Z</time></trkpt><trkpt lat="59.8043082375" lon="30.6051437091"><ele>3.50</ele><time>2015-06-07T13:35:56Z</time></trkpt><trkpt lat="59.8043126799" lon="30.6051205751"><ele>2.06</ele><time>2015-06-07T13:36:38Z</time></trkpt><trkpt lat="59.8043053038" lon="30.6051269453"><ele>2.06</ele><time>2015-06-07T13:37:15Z</time></trkpt><trkpt lat="59.8043133505" lon="30.6051170547"><ele>3.50</ele><time>2015-06-07T13:37:57Z</time></trkpt><trkpt lat="59.8043092433" lon="30.6051141210"><ele>3.02</ele><time>2015-06-07T13:38:33Z</time></trkpt><trkpt lat="59.8043036275" lon="30.6051200721"><ele>3.02</ele><time>2015-06-07T13:39:07Z</time></trkpt><trkpt lat="59.8043157812" lon="30.6051072478"><ele>2.54</ele><time>2015-06-07T13:39:40Z</time></trkpt><trkpt lat="59.8043088242" lon="30.6051204074"><ele>1.58</ele><time>2015-06-07T13:40:16Z</time></trkpt><trkpt lat="59.8043153621" lon="30.6051194016"><ele>2.06</ele><time>2015-06-07T13:40:47Z</time></trkpt><trkpt lat="59.8043132666" lon="30.6051173061"><ele>2.06</ele><time>2015-06-07T13:41:11Z</time></trkpt><trkpt lat="59.8043155298" lon="30.6051216647"><ele>2.54</ele><time>2015-06-07T13:41:48Z</time></trkpt><trkpt lat="59.8043140210" lon="30.6051161326"><ele>2.54</ele><time>2015-06-07T13:42:24Z</time></trkpt><trkpt lat="59.8043092433" lon="30.6051214132"><ele>2.06</ele><time>2015-06-07T13:42:55Z</time></trkpt><trkpt lat="59.8043133505" lon="30.6051188987"><ele>1.58</ele><time>2015-06-07T13:43:23Z</time></trkpt><trkpt lat="59.8043164518" lon="30.6051171385"><ele>1.58</ele><time>2015-06-07T13:43:56Z</time></trkpt><trkpt lat="59.8043192178" lon="30.6051166356"><ele>2.06</ele><time>2015-06-07T13:44:33Z</time></trkpt><trkpt lat="59.8043136857" lon="30.6051208265"><ele>2.06</ele><time>2015-06-07T13:45:07Z</time></trkpt><trkpt lat="59.8043146916" lon="30.6051220838"><ele>2.06</ele><time>2015-06-07T13:45:51Z</time></trkpt><trkpt lat="59.8043102492" lon="30.6051256042"><ele>1.58</ele><time>2015-06-07T13:46:27Z</time></trkpt><trkpt lat="59.8043171223" lon="30.6051204912"><ele>2.06</ele><time>2015-06-07T13:47:05Z</time></trkpt><trkpt lat="59.8043123446" lon="30.6051280349"><ele>2.54</ele><time>2015-06-07T13:47:35Z</time></trkpt><trkpt lat="59.8043158650" lon="30.6051128637"><ele>2.54</ele><time>2015-06-07T13:48:10Z</time></trkpt><trkpt lat="59.8043137696" lon="30.6051248498"><ele>3.50</ele><time>2015-06-07T13:48:45Z</time></trkpt><trkpt lat="59.8043222353" lon="30.6051122770"><ele>3.50</ele><time>2015-06-07T13:49:22Z</time></trkpt><trkpt lat="59.8043145239" lon="30.6051303819"><ele>3.98</ele><time>2015-06-07T13:50:00Z</time></trkpt><trkpt lat="59.8043186311" lon="30.6051281188"><ele>3.98</ele><time>2015-06-07T13:50:38Z</time></trkpt><trkpt lat="59.8043174576" lon="30.6051183958"><ele>3.50</ele><time>2015-06-07T13:51:14Z</time></trkpt><trkpt lat="59.8043147754" lon="30.6051244307"><ele>3.02</ele><time>2015-06-07T13:51:50Z</time></trkpt><trkpt lat="59.8043105006" lon="30.6051151268"><ele>2.06</ele><time>2015-06-07T13:52:24Z</time></trkpt><trkpt lat="59.8043118417" lon="30.6051125284"><ele>2.54</ele><time>2015-06-07T13:53:07Z</time></trkpt><trkpt lat="59.8043185472" lon="30.6051124446"><ele>2.54</ele><time>2015-06-07T13:53:48Z</time></trkpt><trkpt lat="59.8043198045" lon="30.6051140372"><ele>3.50</ele><time>2015-06-07T13:54:28Z</time></trkpt><trkpt lat="59.8043188825" lon="30.6051012129"><ele>3.02</ele><time>2015-06-07T13:55:05Z</time></trkpt><trkpt lat="59.8043124285" lon="30.6051032245"><ele>2.06</ele><time>2015-06-07T13:55:44Z</time></trkpt><trkpt lat="59.8043175414" lon="30.6051144563"><ele>2.54</ele><time>2015-06-07T13:56:28Z</time></trkpt><trkpt lat="59.8043196369" lon="30.6051050685"><ele>2.54</ele><time>2015-06-07T13:57:08Z</time></trkpt><trkpt lat="59.8043193016" lon="30.6051144563"><ele>3.50</ele><time>2015-06-07T13:58:00Z</time></trkpt><trkpt lat="59.8043207265" lon="30.6051228382"><ele>3.98</ele><time>2015-06-07T13:58:47Z</time></trkpt><trkpt lat="59.8043218162" lon="30.6051195692"><ele>4.46</ele><time>2015-06-07T13:59:28Z</time></trkpt><trkpt lat="59.8043259233" lon="30.6051257718"><ele>4.94</ele><time>2015-06-07T14:00:07Z</time></trkpt><trkpt lat="59.8043174576" lon="30.6051259395"><ele>3.98</ele><time>2015-06-07T14:00:48Z</time></trkpt><trkpt lat="59.8043132666" lon="30.6051199045"><ele>3.02</ele><time>2015-06-07T14:01:29Z</time></trkpt><trkpt lat="59.8043232411" lon="30.6051116064"><ele>3.98</ele><time>2015-06-07T14:02:09Z</time></trkpt><trkpt lat="59.8043132666" lon="30.6051287055"><ele>3.50</ele><time>2015-06-07T14:02:52Z</time></trkpt><trkpt lat="59.8043159489" lon="30.6051199045"><ele>2.06</ele><time>2015-06-07T14:03:35Z</time></trkpt><trkpt lat="59.8043126799" lon="30.6051087566"><ele>3.02</ele><time>2015-06-07T14:04:19Z</time></trkpt><trkpt lat="59.8043110035" lon="30.6051133666"><ele>3.02</ele><time>2015-06-07T14:04:54Z</time></trkpt><trkpt lat="59.8043105006" lon="30.6051049847"><ele>2.54</ele><time>2015-06-07T14:05:40Z</time></trkpt><trkpt lat="59.8043138534" lon="30.6051143724"><ele>3.02</ele><time>2015-06-07T14:06:22Z</time></trkpt><trkpt lat="59.8043093272" lon="30.6051132828"><ele>2.06</ele><time>2015-06-07T14:06:56Z</time></trkpt><trkpt lat="59.8043165356" lon="30.6051157136"><ele>4.46</ele><time>2015-06-07T14:07:33Z</time></trkpt><trkpt lat="59.8043132666" lon="30.6051171385"><ele>4.46</ele><time>2015-06-07T14:08:16Z</time></trkpt><trkpt lat="59.8043248337" lon="30.6051045656"><ele>3.98</ele><time>2015-06-07T14:08:54Z</time></trkpt><trkpt lat="59.8043207265" lon="30.6051017158"><ele>3.02</ele><time>2015-06-07T14:09:29Z</time></trkpt><trkpt lat="59.8043028731" lon="30.6051085889"><ele>1.10</ele><time>2015-06-07T14:10:04Z</time></trkpt><trkpt lat="59.8043037951" lon="30.6051153783"><ele>2.06</ele><time>2015-06-07T14:10:40Z</time></trkpt><trkpt lat="59.8043032084" lon="30.6051212456"><ele>1.58</ele><time>2015-06-07T14:11:18Z</time></trkpt><trkpt lat="59.8043069802" lon="30.6051201560"><ele>2.06</ele><time>2015-06-07T14:11:52Z</time></trkpt><trkpt lat="59.8043147754" lon="30.6051354110"><ele>5.42</ele><time>2015-06-07T14:12:27Z</time></trkpt><trkpt lat="59.8043219000" lon="30.6051339861"><ele>7.35</ele><time>2015-06-07T14:12:57Z</time></trkpt><trkpt lat="59.8043251690" lon="30.6051423680"><ele>8.31</ele><time>2015-06-07T14:13:30Z</time></trkpt><trkpt lat="59.8043236602" lon="30.6051385961"><ele>7.83</ele><time>2015-06-07T14:14:03Z</time></trkpt><trkpt lat="59.8043242469" lon="30.6051410269"><ele>7.83</ele><time>2015-06-07T14:14:32Z</time></trkpt><trkpt lat="59.8042971734" lon="30.6051589642"><ele>5.42</ele><time>2015-06-07T14:15:01Z</time></trkpt><trkpt lat="59.8043185472" lon="30.6051297951"><ele>5.42</ele><time>2015-06-07T14:15:30Z</time></trkpt><trkpt lat="59.8043267615" lon="30.6051193178"><ele>4.94</ele><time>2015-06-07T14:15:54Z</time></trkpt><trkpt lat="59.8043221515" lon="30.6051276997"><ele>3.50</ele><time>2015-06-07T14:16:27Z</time></trkpt><trkpt lat="59.8043003585" lon="30.6051213294"><ele>1.10</ele><time>2015-06-07T14:17:01Z</time></trkpt><trkpt lat="59.8043045495" lon="30.6051163841"><ele>0.62</ele><time>2015-06-07T14:17:46Z</time></trkpt><trkpt lat="59.8043133505" lon="30.6051149592"><ele>2.54</ele><time>2015-06-07T14:18:15Z</time></trkpt><trkpt lat="59.8043016158" lon="30.6051069126"><ele>0.14</ele><time>2015-06-07T14:18:48Z</time></trkpt><trkpt lat="59.8042965028" lon="30.6051173899"><ele>1.58</ele><time>2015-06-07T14:19:18Z</time></trkpt><trkpt lat="59.8043047171" lon="30.6051283702"><ele>3.50</ele><time>2015-06-07T14:19:59Z</time></trkpt><trkpt lat="59.8043053038" lon="30.6051244307"><ele>4.46</ele><time>2015-06-07T14:20:43Z</time></trkpt><trkpt lat="59.8042959161" lon="30.6051153783"><ele>3.02</ele><time>2015-06-07T14:21:14Z</time></trkpt><trkpt lat="59.8042929824" lon="30.6051242631"><ele>1.58</ele><time>2015-06-07T14:21:41Z</time></trkpt><trkpt lat="59.8043037113" lon="30.6051164679"><ele>2.54</ele><time>2015-06-07T14:22:10Z</time></trkpt><trkpt lat="59.8043071479" lon="30.6051326450"><ele>4.46</ele><time>2015-06-07T14:22:37Z</time></trkpt><trkpt lat="59.8043083213" lon="30.6051405240"><ele>4.94</ele><time>2015-06-07T14:22:40Z</time></trkpt><trkpt lat="59.8043159489" lon="30.6052522548"><ele>4.46</ele><time>2015-06-07T14:22:51Z</time></trkpt><trkpt lat="59.8043096624" lon="30.6052323896"><ele>3.50</ele><time>2015-06-07T14:22:59Z</time></trkpt><trkpt lat="59.8042994365" lon="30.6052326411"><ele>2.54</ele><time>2015-06-07T14:23:12Z</time></trkpt><trkpt lat="59.8043143563" lon="30.6052411068"><ele>2.06</ele><time>2015-06-07T14:23:31Z</time></trkpt><trkpt lat="59.8043057229" lon="30.6052303780"><ele>2.54</ele><time>2015-06-07T14:23:34Z</time></trkpt><trkpt lat="59.8042881209" lon="30.6051276159"><ele>3.50</ele><time>2015-06-07T14:23:42Z</time></trkpt><trkpt lat="59.8042976763" lon="30.6051747221"><ele>3.50</ele><time>2015-06-07T14:23:44Z</time></trkpt><trkpt lat="59.8043105844" lon="30.6052334793"><ele>2.06</ele><time>2015-06-07T14:23:56Z</time></trkpt><trkpt lat="59.8043161165" lon="30.6052281987"><ele>3.98</ele><time>2015-06-07T14:24:19Z</time></trkpt><trkpt lat="59.8043226544" lon="30.6052307971"><ele>3.50</ele><time>2015-06-07T14:24:43Z</time></trkpt><trkpt lat="59.8043301981" lon="30.6052284501"><ele>2.06</ele><time>2015-06-07T14:25:09Z</time></trkpt><trkpt lat="59.8043395858" lon="30.6052291207"><ele>2.54</ele><time>2015-06-07T14:25:28Z</time></trkpt><trkpt lat="59.8043751251" lon="30.6053490657"><ele>3.98</ele><time>2015-06-07T14:25:46Z</time></trkpt><trkpt lat="59.8043924756" lon="30.6054164562"><ele>3.02</ele><time>2015-06-07T14:26:03Z</time></trkpt><trkpt lat="59.8043900449" lon="30.6054396741"><ele>3.98</ele><time>2015-06-07T14:26:20Z</time></trkpt><trkpt lat="59.8043854348" lon="30.6054323819"><ele>4.46</ele><time>2015-06-07T14:26:38Z</time></trkpt><trkpt lat="59.8043918051" lon="30.6054302026"><ele>3.98</ele><time>2015-06-07T14:26:58Z</time></trkpt><trkpt lat="59.8043966666" lon="30.6054381654"><ele>3.50</ele><time>2015-06-07T14:27:17Z</time></trkpt><trkpt lat="59.8043974210" lon="30.6055120099"><ele>4.94</ele><time>2015-06-07T14:27:28Z</time></trkpt><trkpt lat="59.8044589441" lon="30.6054845173"><ele>5.42</ele><time>2015-06-07T14:27:41Z</time></trkpt><trkpt lat="59.8047786299" lon="30.6053869519"><ele>6.87</ele><time>2015-06-07T14:27:54Z</time></trkpt><trkpt lat="59.8051161692" lon="30.6054385845"><ele>6.39</ele><time>2015-06-07T14:28:08Z</time></trkpt><trkpt lat="59.8052282352" lon="30.6056072284"><ele>5.91</ele><time>2015-06-07T14:28:21Z</time></trkpt><trkpt lat="59.8054114636" lon="30.6056857668"><ele>5.42</ele><time>2015-06-07T14:28:35Z</time></trkpt><trkpt lat="59.8054253776" lon="30.6056936458"><ele>5.42</ele><time>2015-06-07T14:28:36Z</time></trkpt><trkpt lat="59.8055598233" lon="30.6058291811"><ele>5.42</ele><time>2015-06-07T14:28:50Z</time></trkpt><trkpt lat="59.8057236895" lon="30.6060405727"><ele>5.42</ele><time>2015-06-07T14:29:06Z</time></trkpt><trkpt lat="59.8057834525" lon="30.6060898583"><ele>5.42</ele><time>2015-06-07T14:29:10Z</time></trkpt><trkpt lat="59.8059638310" lon="30.6062626932"><ele>4.94</ele><time>2015-06-07T14:29:24Z</time></trkpt><trkpt lat="59.8062506597" lon="30.6064111367"><ele>4.94</ele><time>2015-06-07T14:29:38Z</time></trkpt><trkpt lat="59.8065181263" lon="30.6064595841"><ele>5.42</ele><time>2015-06-07T14:29:54Z</time></trkpt><trkpt lat="59.8067253269" lon="30.6064589135"><ele>4.46</ele><time>2015-06-07T14:30:09Z</time></trkpt><trkpt lat="59.8069077171" lon="30.6065576524"><ele>4.46</ele><time>2015-06-07T14:30:27Z</time></trkpt><trkpt lat="59.8069782089" lon="30.6065988075"><ele>4.46</ele><time>2015-06-07T14:30:34Z</time></trkpt><trkpt lat="59.8071004171" lon="30.6067490950"><ele>4.94</ele><time>2015-06-07T14:30:47Z</time></trkpt><trkpt lat="59.8073066119" lon="30.6069516856"><ele>3.98</ele><time>2015-06-07T14:31:08Z</time></trkpt><trkpt lat="59.8073444143" lon="30.6069829501"><ele>3.50</ele><time>2015-06-07T14:31:12Z</time></trkpt><trkpt lat="59.8073939513" lon="30.6070372649"><ele>3.50</ele><time>2015-06-07T14:31:18Z</time></trkpt><trkpt lat="59.8074110504" lon="30.6070573814"><ele>3.50</ele><time>2015-06-07T14:31:20Z</time></trkpt><trkpt lat="59.8075536266" lon="30.6071823556"><ele>3.98</ele><time>2015-06-07T14:31:33Z</time></trkpt><trkpt lat="59.8075672053" lon="30.6071901508"><ele>3.98</ele><time>2015-06-07T14:31:34Z</time></trkpt><trkpt lat="59.8076130543" lon="30.6072455551"><ele>3.98</ele><time>2015-06-07T14:31:38Z</time></trkpt><trkpt lat="59.8078391980" lon="30.6071591377"><ele>3.50</ele><time>2015-06-07T14:31:54Z</time></trkpt><trkpt lat="59.8079184070" lon="30.6070601474"><ele>3.02</ele><time>2015-06-07T14:32:04Z</time></trkpt><trkpt lat="59.8079134617" lon="30.6070112810"><ele>3.50</ele><time>2015-06-07T14:32:16Z</time></trkpt><trkpt lat="59.8079603165" lon="30.6070501730"><ele>3.50</ele><time>2015-06-07T14:32:29Z</time></trkpt><trkpt lat="59.8080116138" lon="30.6070852932"><ele>4.46</ele><time>2015-06-07T14:32:44Z</time></trkpt><trkpt lat="59.8080722988" lon="30.6071178988"><ele>4.94</ele><time>2015-06-07T14:32:58Z</time></trkpt><trkpt lat="59.8081135377" lon="30.6071535219"><ele>4.46</ele><time>2015-06-07T14:33:09Z</time></trkpt><trkpt lat="59.8081724625" lon="30.6072103512"><ele>4.46</ele><time>2015-06-07T14:33:24Z</time></trkpt><trkpt lat="59.8082323931" lon="30.6072893087"><ele>3.98</ele><time>2015-06-07T14:33:39Z</time></trkpt><trkpt lat="59.8082950059" lon="30.6073173042"><ele>3.50</ele><time>2015-06-07T14:33:55Z</time></trkpt><trkpt lat="59.8083478119" lon="30.6073435396"><ele>3.50</ele><time>2015-06-07T14:34:08Z</time></trkpt><trkpt lat="59.8083883803" lon="30.6073586270"><ele>3.50</ele><time>2015-06-07T14:34:19Z</time></trkpt><trkpt lat="59.8084435333" lon="30.6073816773"><ele>3.98</ele><time>2015-06-07T14:34:33Z</time></trkpt><trkpt lat="59.8084915616" lon="30.6073885504"><ele>4.94</ele><time>2015-06-07T14:34:49Z</time></trkpt><trkpt lat="59.8085363209" lon="30.6073973514"><ele>4.94</ele><time>2015-06-07T14:35:02Z</time></trkpt><trkpt lat="59.8085876182" lon="30.6074406020"><ele>3.50</ele><time>2015-06-07T14:35:19Z</time></trkpt><trkpt lat="59.8086296953" lon="30.6075079925"><ele>3.02</ele><time>2015-06-07T14:35:33Z</time></trkpt><trkpt lat="59.8086768016" lon="30.6075669173"><ele>3.02</ele><time>2015-06-07T14:35:48Z</time></trkpt><trkpt lat="59.8087193817" lon="30.6075927336"><ele>3.02</ele><time>2015-06-07T14:36:02Z</time></trkpt><trkpt lat="59.8087550886" lon="30.6076098327"><ele>3.50</ele><time>2015-06-07T14:36:19Z</time></trkpt><trkpt lat="59.8088016920" lon="30.6076319609"><ele>2.54</ele><time>2015-06-07T14:36:37Z</time></trkpt><trkpt lat="59.8088460322" lon="30.6076549273"><ele>3.02</ele><time>2015-06-07T14:36:53Z</time></trkpt><trkpt lat="59.8088907078" lon="30.6076662429"><ele>2.54</ele><time>2015-06-07T14:37:11Z</time></trkpt><trkpt lat="59.8089177813" lon="30.6077624671"><ele>2.54</ele><time>2015-06-07T14:37:33Z</time></trkpt><trkpt lat="59.8089143448" lon="30.6078395806"><ele>1.58</ele><time>2015-06-07T14:37:54Z</time></trkpt><trkpt lat="59.8088814039" lon="30.6079315301"><ele>3.02</ele><time>2015-06-07T14:38:19Z</time></trkpt><trkpt lat="59.8088539951" lon="30.6079922151"><ele>2.54</ele><time>2015-06-07T14:38:38Z</time></trkpt><trkpt lat="59.8088442720" lon="30.6080372259"><ele>3.02</ele><time>2015-06-07T14:39:02Z</time></trkpt><trkpt lat="59.8088539951" lon="30.6081302650"><ele>3.50</ele><time>2015-06-07T14:39:16Z</time></trkpt><trkpt lat="59.8087602016" lon="30.6082855817"><ele>3.02</ele><time>2015-06-07T14:39:26Z</time></trkpt><trkpt lat="59.8087546695" lon="30.6078809034"><ele>3.02</ele><time>2015-06-07T14:39:35Z</time></trkpt><trkpt lat="59.8092117347" lon="30.6069986243"><ele>3.02</ele><time>2015-06-07T14:39:57Z</time></trkpt><trkpt lat="59.8095206078" lon="30.6063825544"><ele>2.54</ele><time>2015-06-07T14:40:13Z</time></trkpt><trkpt lat="59.8100256175" lon="30.6053353194"><ele>3.50</ele><time>2015-06-07T14:40:34Z</time></trkpt><trkpt lat="59.8102986161" lon="30.6047009770"><ele>3.02</ele><time>2015-06-07T14:40:45Z</time></trkpt><trkpt lat="59.8108400032" lon="30.6033049710"><ele>3.50</ele><time>2015-06-07T14:41:03Z</time></trkpt><trkpt lat="59.8113822285" lon="30.6021629367"><ele>4.46</ele><time>2015-06-07T14:41:16Z</time></trkpt><trkpt lat="59.8119690455" lon="30.6009494048"><ele>3.98</ele><time>2015-06-07T14:41:27Z</time></trkpt><trkpt lat="59.8124225065" lon="30.6001042575"><ele>3.98</ele><time>2015-06-07T14:41:35Z</time></trkpt><trkpt lat="59.8133433424" lon="30.5989364907"><ele>3.50</ele><time>2015-06-07T14:41:48Z</time></trkpt><trkpt lat="59.8135742638" lon="30.5986494943"><ele>3.02</ele><time>2015-06-07T14:41:51Z</time></trkpt><trkpt lat="59.8145422060" lon="30.5973520596"><ele>2.54</ele><time>2015-06-07T14:42:04Z</time></trkpt><trkpt lat="59.8150092456" lon="30.5965294596"><ele>3.02</ele><time>2015-06-07T14:42:11Z</time></trkpt><trkpt lat="59.8160584085" lon="30.5949054658"><ele>2.54</ele><time>2015-06-07T14:42:25Z</time></trkpt><trkpt lat="59.8169650789" lon="30.5932526384"><ele>4.46</ele><time>2015-06-07T14:42:38Z</time></trkpt><trkpt lat="59.8175684921" lon="30.5920344964"><ele>5.42</ele><time>2015-06-07T14:42:48Z</time></trkpt><trkpt lat="59.8177285865" lon="30.5916477554"><ele>5.42</ele><time>2015-06-07T14:42:56Z</time></trkpt><trkpt lat="59.8177948873" lon="30.5911250599"><ele>3.98</ele><time>2015-06-07T14:43:14Z</time></trkpt><trkpt lat="59.8180201091" lon="30.5903903022"><ele>3.98</ele><time>2015-06-07T14:43:33Z</time></trkpt><trkpt lat="59.8182630166" lon="30.5895943567"><ele>3.02</ele><time>2015-06-07T14:43:52Z</time></trkpt><trkpt lat="59.8185382783" lon="30.5889013410"><ele>2.06</ele><time>2015-06-07T14:44:10Z</time></trkpt><trkpt lat="59.8187942617" lon="30.5883041304"><ele>2.06</ele><time>2015-06-07T14:44:26Z</time></trkpt><trkpt lat="59.8191149533" lon="30.5873640161"><ele>2.54</ele><time>2015-06-07T14:44:49Z</time></trkpt><trkpt lat="59.8193007801" lon="30.5866820645"><ele>2.54</ele><time>2015-06-07T14:45:06Z</time></trkpt><trkpt lat="59.8194856849" lon="30.5860183854"><ele>2.06</ele><time>2015-06-07T14:45:23Z</time></trkpt><trkpt lat="59.8196515627" lon="30.5853004754"><ele>1.58</ele><time>2015-06-07T14:45:40Z</time></trkpt><trkpt lat="59.8198545724" lon="30.5846002512"><ele>1.58</ele><time>2015-06-07T14:45:53Z</time></trkpt><trkpt lat="59.8202754278" lon="30.5834443029"><ele>3.50</ele><time>2015-06-07T14:46:08Z</time></trkpt><trkpt lat="59.8208634183" lon="30.5818241648"><ele>5.91</ele><time>2015-06-07T14:46:23Z</time></trkpt><trkpt lat="59.8210179806" lon="30.5813959334"><ele>5.91</ele><time>2015-06-07T14:46:26Z</time></trkpt><trkpt lat="59.8216919694" lon="30.5793499947"><ele>5.91</ele><time>2015-06-07T14:46:40Z</time></trkpt><trkpt lat="59.8223401420" lon="30.5777938943"><ele>5.42</ele><time>2015-06-07T14:46:52Z</time></trkpt><trkpt lat="59.8228170723" lon="30.5762281548"><ele>5.42</ele><time>2015-06-07T14:47:04Z</time></trkpt><trkpt lat="59.8233350739" lon="30.5744687095"><ele>4.94</ele><time>2015-06-07T14:47:17Z</time></trkpt><trkpt lat="59.8238466214" lon="30.5726267863"><ele>4.94</ele><time>2015-06-07T14:47:29Z</time></trkpt><trkpt lat="59.8243903555" lon="30.5704878084"><ele>4.94</ele><time>2015-06-07T14:47:43Z</time></trkpt><trkpt lat="59.8248590715" lon="30.5687302072"><ele>4.94</ele><time>2015-06-07T14:47:55Z</time></trkpt><trkpt lat="59.8253596388" lon="30.5669869389"><ele>4.94</ele><time>2015-06-07T14:48:08Z</time></trkpt><trkpt lat="59.8259843420" lon="30.5652606860"><ele>4.46</ele><time>2015-06-07T14:48:21Z</time></trkpt><trkpt lat="59.8264793772" lon="30.5642299633"><ele>3.02</ele><time>2015-06-07T14:48:34Z</time></trkpt><trkpt lat="59.8266243003" lon="30.5637639295"><ele>3.02</ele><time>2015-06-07T14:48:39Z</time></trkpt><trkpt lat="59.8268009908" lon="30.5634668749"><ele>3.02</ele><time>2015-06-07T14:48:43Z</time></trkpt><trkpt lat="59.8270090297" lon="30.5630083848"><ele>3.02</ele><time>2015-06-07T14:48:49Z</time></trkpt><trkpt lat="59.8272484168" lon="30.5627624597"><ele>3.02</ele><time>2015-06-07T14:48:54Z</time></trkpt><trkpt lat="59.8282880243" lon="30.5627209693"><ele>3.50</ele><time>2015-06-07T14:49:09Z</time></trkpt><trkpt lat="59.8289346881" lon="30.5628391542"><ele>3.98</ele><time>2015-06-07T14:49:19Z</time></trkpt><trkpt lat="59.8295061663" lon="30.5631791241"><ele>3.50</ele><time>2015-06-07T14:49:29Z</time></trkpt><trkpt lat="59.8304757010" lon="30.5636572279"><ele>3.50</ele><time>2015-06-07T14:49:47Z</time></trkpt><trkpt lat="59.8315279651" lon="30.5643349048"><ele>3.50</ele><time>2015-06-07T14:50:08Z</time></trkpt><trkpt lat="59.8322723620" lon="30.5647067260"><ele>3.98</ele><time>2015-06-07T14:50:25Z</time></trkpt><trkpt lat="59.8329349514" lon="30.5648226477"><ele>3.98</ele><time>2015-06-07T14:50:39Z</time></trkpt><trkpt lat="59.8337220959" lon="30.5649076402"><ele>3.50</ele><time>2015-06-07T14:50:48Z</time></trkpt><trkpt lat="59.8348585982" lon="30.5642738007"><ele>4.46</ele><time>2015-06-07T14:51:01Z</time></trkpt><trkpt lat="59.8354318365" lon="30.5637337547"><ele>3.50</ele><time>2015-06-07T14:51:08Z</time></trkpt><trkpt lat="59.8362960108" lon="30.5618771631"><ele>3.50</ele><time>2015-06-07T14:51:22Z</time></trkpt><trkpt lat="59.8367438558" lon="30.5605381541"><ele>3.02</ele><time>2015-06-07T14:51:31Z</time></trkpt><trkpt lat="59.8369735200" lon="30.5595614947"><ele>2.06</ele><time>2015-06-07T14:51:37Z</time></trkpt><trkpt lat="59.8371191137" lon="30.5583434366"><ele>2.06</ele><time>2015-06-07T14:51:44Z</time></trkpt><trkpt lat="59.8371984903" lon="30.5554561224"><ele>0.14</ele><time>2015-06-07T14:52:00Z</time></trkpt><trkpt lat="59.8372119851" lon="30.5549144838"><ele>0.14</ele><time>2015-06-07T14:52:03Z</time></trkpt><trkpt lat="59.8369156010" lon="30.5518975854"><ele>-1.30</ele><time>2015-06-07T14:52:20Z</time></trkpt><trkpt lat="59.8367511481" lon="30.5508684553"><ele>-1.79</ele><time>2015-06-07T14:52:26Z</time></trkpt><trkpt lat="59.8366011120" lon="30.5502450932"><ele>-0.82</ele><time>2015-06-07T14:52:30Z</time></trkpt><trkpt lat="59.8365132697" lon="30.5496193841"><ele>-0.34</ele><time>2015-06-07T14:52:34Z</time></trkpt><trkpt lat="59.8364226613" lon="30.5491644982"><ele>0.14</ele><time>2015-06-07T14:52:37Z</time></trkpt><trkpt lat="59.8363112658" lon="30.5485715624"><ele>0.62</ele><time>2015-06-07T14:52:41Z</time></trkpt><trkpt lat="59.8362479825" lon="30.5483307503"><ele>0.62</ele><time>2015-06-07T14:52:43Z</time></trkpt><trkpt lat="59.8359117843" lon="30.5467120372"><ele>2.54</ele><time>2015-06-07T14:52:57Z</time></trkpt><trkpt lat="59.8355686292" lon="30.5447870493"><ele>5.42</ele><time>2015-06-07T14:53:14Z</time></trkpt><trkpt lat="59.8355290666" lon="30.5445530266"><ele>4.94</ele><time>2015-06-07T14:53:16Z</time></trkpt><trkpt lat="59.8354807869" lon="30.5443345942"><ele>4.46</ele><time>2015-06-07T14:53:18Z</time></trkpt><trkpt lat="59.8351384699" lon="30.5425798427"><ele>2.54</ele><time>2015-06-07T14:53:34Z</time></trkpt><trkpt lat="59.8349728435" lon="30.5406801682"><ele>2.54</ele><time>2015-06-07T14:53:50Z</time></trkpt><trkpt lat="59.8349634558" lon="30.5405748077"><ele>2.54</ele><time>2015-06-07T14:53:51Z</time></trkpt><trkpt lat="59.8347878549" lon="30.5387830082"><ele>3.50</ele><time>2015-06-07T14:54:06Z</time></trkpt><trkpt lat="59.8347575124" lon="30.5381328240"><ele>2.54</ele><time>2015-06-07T14:54:12Z</time></trkpt><trkpt lat="59.8349799681" lon="30.5364621431"><ele>3.50</ele><time>2015-06-07T14:54:29Z</time></trkpt><trkpt lat="59.8351134080" lon="30.5352890957"><ele>3.98</ele><time>2015-06-07T14:54:41Z</time></trkpt><trkpt lat="59.8354625981" lon="30.5334339291"><ele>3.50</ele><time>2015-06-07T14:54:59Z</time></trkpt><trkpt lat="59.8355597444" lon="30.5330539774"><ele>3.50</ele><time>2015-06-07T14:55:02Z</time></trkpt><trkpt lat="59.8360161390" lon="30.5314435624"><ele>4.46</ele><time>2015-06-07T14:55:15Z</time></trkpt><trkpt lat="59.8365229927" lon="30.5298152938"><ele>3.50</ele><time>2015-06-07T14:55:29Z</time></trkpt><trkpt lat="59.8370939679" lon="30.5280281045"><ele>4.46</ele><time>2015-06-07T14:55:46Z</time></trkpt><trkpt lat="59.8375763465" lon="30.5266282428"><ele>4.46</ele><time>2015-06-07T14:56:00Z</time></trkpt><trkpt lat="59.8381792568" lon="30.5249920115"><ele>4.46</ele><time>2015-06-07T14:56:15Z</time></trkpt><trkpt lat="59.8388730269" lon="30.5231208354"><ele>5.42</ele><time>2015-06-07T14:56:31Z</time></trkpt><trkpt lat="59.8394492827" lon="30.5214079097"><ele>5.42</ele><time>2015-06-07T14:56:46Z</time></trkpt><trkpt lat="59.8396322597" lon="30.5208640080"><ele>5.42</ele><time>2015-06-07T14:56:51Z</time></trkpt><trkpt lat="59.8404286243" lon="30.5193488114"><ele>4.94</ele><time>2015-06-07T14:57:08Z</time></trkpt><trkpt lat="59.8411737755" lon="30.5177684873"><ele>3.50</ele><time>2015-06-07T14:57:25Z</time></trkpt><trkpt lat="59.8417668790" lon="30.5164696276"><ele>1.58</ele><time>2015-06-07T14:57:39Z</time></trkpt><trkpt lat="59.8423790932" lon="30.5150632281"><ele>2.54</ele><time>2015-06-07T14:57:54Z</time></trkpt><trkpt lat="59.8429084942" lon="30.5138532165"><ele>3.50</ele><time>2015-06-07T14:58:08Z</time></trkpt><trkpt lat="59.8433793895" lon="30.5126390979"><ele>5.91</ele><time>2015-06-07T14:58:22Z</time></trkpt><trkpt lat="59.8435272463" lon="30.5122782569"><ele>6.39</ele><time>2015-06-07T14:58:26Z</time></trkpt><trkpt lat="59.8436066229" lon="30.5121155642"><ele>6.39</ele><time>2015-06-07T14:58:28Z</time></trkpt><trkpt lat="59.8441210203" lon="30.5106642377"><ele>5.42</ele><time>2015-06-07T14:58:43Z</time></trkpt><trkpt lat="59.8444789276" lon="30.5096945353"><ele>4.94</ele><time>2015-06-07T14:58:53Z</time></trkpt><trkpt lat="59.8448829353" lon="30.5085272714"><ele>4.94</ele><time>2015-06-07T14:59:05Z</time></trkpt><trkpt lat="59.8451008648" lon="30.5078580603"><ele>4.94</ele><time>2015-06-07T14:59:16Z</time></trkpt><trkpt lat="59.8453509808" lon="30.5071512982"><ele>4.46</ele><time>2015-06-07T14:59:27Z</time></trkpt><trkpt lat="59.8456055392" lon="30.5062419455"><ele>3.02</ele><time>2015-06-07T14:59:38Z</time></trkpt><trkpt lat="59.8459348641" lon="30.5048963986"><ele>1.58</ele><time>2015-06-07T14:59:55Z</time></trkpt><trkpt lat="59.8460113909" lon="30.5045533273"><ele>1.58</ele><time>2015-06-07T14:59:59Z</time></trkpt><trkpt lat="59.8464618344" lon="30.5029499531"><ele>2.06</ele><time>2015-06-07T15:00:14Z</time></trkpt><trkpt lat="59.8467203323" lon="30.5021153670"><ele>1.58</ele><time>2015-06-07T15:00:21Z</time></trkpt><trkpt lat="59.8471153714" lon="30.5009387992"><ele>1.10</ele><time>2015-06-07T15:00:30Z</time></trkpt><trkpt lat="59.8473597039" lon="30.5002695881"><ele>1.10</ele><time>2015-06-07T15:00:35Z</time></trkpt><trkpt lat="59.8479689844" lon="30.4981800634"><ele>1.10</ele><time>2015-06-07T15:00:50Z</time></trkpt><trkpt lat="59.8485706374" lon="30.4968952015"><ele>1.10</ele><time>2015-06-07T15:01:01Z</time></trkpt><trkpt lat="59.8493405990" lon="30.4957735352"><ele>1.58</ele><time>2015-06-07T15:01:13Z</time></trkpt><trkpt lat="59.8497488815" lon="30.4955254309"><ele>2.06</ele><time>2015-06-07T15:01:18Z</time></trkpt><trkpt lat="59.8505348526" lon="30.4955069069"><ele>3.02</ele><time>2015-06-07T15:01:27Z</time></trkpt><trkpt lat="59.8510973621" lon="30.4951602314"><ele>3.02</ele><time>2015-06-07T15:01:34Z</time></trkpt><trkpt lat="59.8523569107" lon="30.4952862114"><ele>5.42</ele><time>2015-06-07T15:01:48Z</time></trkpt><trkpt lat="59.8536311276" lon="30.4953070823"><ele>5.42</ele><time>2015-06-07T15:02:02Z</time></trkpt><trkpt lat="59.8546842299" lon="30.4952396080"><ele>2.54</ele><time>2015-06-07T15:02:14Z</time></trkpt><trkpt lat="59.8553273734" lon="30.4952102713"><ele>3.50</ele><time>2015-06-07T15:02:25Z</time></trkpt><trkpt lat="59.8555297963" lon="30.4952148814"><ele>4.46</ele><time>2015-06-07T15:02:36Z</time></trkpt><trkpt lat="59.8556717858" lon="30.4953328986"><ele>4.94</ele><time>2015-06-07T15:02:50Z</time></trkpt><trkpt lat="59.8557881266" lon="30.4954694398"><ele>3.98</ele><time>2015-06-07T15:03:08Z</time></trkpt><trkpt lat="59.8558132723" lon="30.4954530112"><ele>3.98</ele><time>2015-06-07T15:03:15Z</time></trkpt><trkpt lat="59.8558706883" lon="30.4953220859"><ele>3.50</ele><time>2015-06-07T15:03:28Z</time></trkpt><trkpt lat="59.8559143580" lon="30.4953269474"><ele>3.98</ele><time>2015-06-07T15:03:32Z</time></trkpt><trkpt lat="59.8560292739" lon="30.4953281209"><ele>6.39</ele><time>2015-06-07T15:03:41Z</time></trkpt><trkpt lat="59.8565176036" lon="30.4952145461"><ele>6.39</ele><time>2015-06-07T15:03:57Z</time></trkpt><trkpt lat="59.8568827193" lon="30.4951369297"><ele>6.39</ele><time>2015-06-07T15:04:08Z</time></trkpt><trkpt lat="59.8574109469" lon="30.4952533543"><ele>5.42</ele><time>2015-06-07T15:04:23Z</time></trkpt><trkpt lat="59.8575956840" lon="30.4953518417"><ele>4.46</ele><time>2015-06-07T15:04:32Z</time></trkpt><trkpt lat="59.8577839416" lon="30.4954213277"><ele>3.98</ele><time>2015-06-07T15:04:44Z</time></trkpt><trkpt lat="59.8580598738" lon="30.4954169691"><ele>3.98</ele><time>2015-06-07T15:04:58Z</time></trkpt><trkpt lat="59.8583555873" lon="30.4953901470"><ele>4.46</ele><time>2015-06-07T15:05:15Z</time></trkpt><trkpt lat="59.8585057911" lon="30.4953710362"><ele>4.46</ele><time>2015-06-07T15:05:28Z</time></trkpt><trkpt lat="59.8586705793" lon="30.4954352416"><ele>4.46</ele><time>2015-06-07T15:05:43Z</time></trkpt><trkpt lat="59.8588880058" lon="30.4954998661"><ele>4.46</ele><time>2015-06-07T15:05:57Z</time></trkpt><trkpt lat="59.8590864055" lon="30.4955199827"><ele>4.46</ele><time>2015-06-07T15:06:12Z</time></trkpt><trkpt lat="59.8593279719" lon="30.4953390174"><ele>4.46</ele><time>2015-06-07T15:06:30Z</time></trkpt><trkpt lat="59.8595424648" lon="30.4951715469"><ele>4.46</ele><time>2015-06-07T15:06:45Z</time></trkpt><trkpt lat="59.8597671837" lon="30.4949313216"><ele>4.46</ele><time>2015-06-07T15:07:01Z</time></trkpt><trkpt lat="59.8600182217" lon="30.4947626777"><ele>4.46</ele><time>2015-06-07T15:07:14Z</time></trkpt><trkpt lat="59.8603057209" lon="30.4944563191"><ele>4.46</ele><time>2015-06-07T15:07:28Z</time></trkpt><trkpt lat="59.8606319446" lon="30.4941561632"><ele>4.94</ele><time>2015-06-07T15:07:44Z</time></trkpt><trkpt lat="59.8609238863" lon="30.4939028621"><ele>3.98</ele><time>2015-06-07T15:07:57Z</time></trkpt><trkpt lat="59.8612221982" lon="30.4936281871"><ele>4.94</ele><time>2015-06-07T15:08:10Z</time></trkpt><trkpt lat="59.8615227733" lon="30.4932732135"><ele>3.98</ele><time>2015-06-07T15:08:25Z</time></trkpt><trkpt lat="59.8618141282" lon="30.4929489177"><ele>3.98</ele><time>2015-06-07T15:08:39Z</time></trkpt><trkpt lat="59.8621113505" lon="30.4927344248"><ele>4.46</ele><time>2015-06-07T15:08:52Z</time></trkpt><trkpt lat="59.8624220677" lon="30.4925446585"><ele>3.50</ele><time>2015-06-07T15:09:04Z</time></trkpt><trkpt lat="59.8624945711" lon="30.4923553113"><ele>4.46</ele><time>2015-06-07T15:09:08Z</time></trkpt><trkpt lat="59.8629761953" lon="30.4917981662"><ele>4.46</ele><time>2015-06-07T15:09:21Z</time></trkpt><trkpt lat="59.8634808697" lon="30.4910063278"><ele>3.02</ele><time>2015-06-07T15:09:35Z</time></trkpt><trkpt lat="59.8639214225" lon="30.4900049418"><ele>3.02</ele><time>2015-06-07T15:09:50Z</time></trkpt><trkpt lat="59.8639578000" lon="30.4899294209"><ele>3.50</ele><time>2015-06-07T15:09:51Z</time></trkpt><trkpt lat="59.8645514902" lon="30.4886639211"><ele>3.50</ele><time>2015-06-07T15:10:07Z</time></trkpt><trkpt lat="59.8651637044" lon="30.4875503853"><ele>2.06</ele><time>2015-06-07T15:10:22Z</time></trkpt><trkpt lat="59.8654666264" lon="30.4871094972"><ele>3.98</ele><time>2015-06-07T15:10:29Z</time></trkpt><trkpt lat="59.8656556383" lon="30.4868054856"><ele>5.42</ele><time>2015-06-07T15:10:34Z</time></trkpt><trkpt lat="59.8662787490" lon="30.4858875833"><ele>5.91</ele><time>2015-06-07T15:10:49Z</time></trkpt><trkpt lat="59.8664559424" lon="30.4856410716"><ele>6.39</ele><time>2015-06-07T15:10:53Z</time></trkpt><trkpt lat="59.8667348083" lon="30.4852714296"><ele>6.87</ele><time>2015-06-07T15:10:59Z</time></trkpt><trkpt lat="59.8668296076" lon="30.4851538315"><ele>5.91</ele><time>2015-06-07T15:11:01Z</time></trkpt><trkpt lat="59.8671627045" lon="30.4846586287"><ele>2.54</ele><time>2015-06-07T15:11:09Z</time></trkpt><trkpt lat="59.8672833201" lon="30.4844660126"><ele>1.10</ele><time>2015-06-07T15:11:12Z</time></trkpt><trkpt lat="59.8674833123" lon="30.4841581453"><ele>0.14</ele><time>2015-06-07T15:11:17Z</time></trkpt><trkpt lat="59.8676254693" lon="30.4839162435"><ele>0.14</ele><time>2015-06-07T15:11:21Z</time></trkpt><trkpt lat="59.8678046744" lon="30.4836042691"><ele>1.10</ele><time>2015-06-07T15:11:26Z</time></trkpt><trkpt lat="59.8679888248" lon="30.4831856769"><ele>1.10</ele><time>2015-06-07T15:11:32Z</time></trkpt><trkpt lat="59.8681152239" lon="30.4829427693"><ele>1.10</ele><time>2015-06-07T15:11:36Z</time></trkpt><trkpt lat="59.8682178184" lon="30.4827452078"><ele>1.58</ele><time>2015-06-07T15:11:39Z</time></trkpt><trkpt lat="59.8685732111" lon="30.4819482565"><ele>1.58</ele><time>2015-06-07T15:11:50Z</time></trkpt><trkpt lat="59.8687395081" lon="30.4814949632"><ele>1.10</ele><time>2015-06-07T15:11:56Z</time></trkpt><trkpt lat="59.8688643146" lon="30.4811752774"><ele>-0.82</ele><time>2015-06-07T15:12:00Z</time></trkpt><trkpt lat="59.8690493032" lon="30.4806094151"><ele>-1.30</ele><time>2015-06-07T15:12:07Z</time></trkpt><trkpt lat="59.8691196274" lon="30.4803676810"><ele>-1.79</ele><time>2015-06-07T15:12:10Z</time></trkpt><trkpt lat="59.8692710046" lon="30.4798035789"><ele>-2.27</ele><time>2015-06-07T15:12:17Z</time></trkpt><trkpt lat="59.8694445100" lon="30.4793221224"><ele>0.14</ele><time>2015-06-07T15:12:24Z</time></trkpt><trkpt lat="59.8697035946" lon="30.4784680903"><ele>2.54</ele><time>2015-06-07T15:12:35Z</time></trkpt><trkpt lat="59.8699819576" lon="30.4770351201"><ele>4.46</ele><time>2015-06-07T15:12:53Z</time></trkpt><trkpt lat="59.8700160719" lon="30.4767972417"><ele>3.98</ele><time>2015-06-07T15:12:56Z</time></trkpt><trkpt lat="59.8700477555" lon="30.4766280949"><ele>3.98</ele><time>2015-06-07T15:12:58Z</time></trkpt><trkpt lat="59.8701949418" lon="30.4753779341"><ele>1.58</ele><time>2015-06-07T15:13:13Z</time></trkpt><trkpt lat="59.8702283017" lon="30.4751118924"><ele>1.10</ele><time>2015-06-07T15:13:16Z</time></trkpt><trkpt lat="59.8702993803" lon="30.4742050543"><ele>0.14</ele><time>2015-06-07T15:13:26Z</time></trkpt><trkpt lat="59.8704353347" lon="30.4726742674"><ele>0.14</ele><time>2015-06-07T15:13:43Z</time></trkpt><trkpt lat="59.8704753164" lon="30.4722440243"><ele>0.62</ele><time>2015-06-07T15:13:48Z</time></trkpt><trkpt lat="59.8704912420" lon="30.4720773920"><ele>1.10</ele><time>2015-06-07T15:13:50Z</time></trkpt><trkpt lat="59.8705517594" lon="30.4713595659"><ele>2.06</ele><time>2015-06-07T15:13:58Z</time></trkpt><trkpt lat="59.8706442956" lon="30.4703874327"><ele>4.46</ele><time>2015-06-07T15:14:09Z</time></trkpt><trkpt lat="59.8706774879" lon="30.4699570220"><ele>4.94</ele><time>2015-06-07T15:14:14Z</time></trkpt><trkpt lat="59.8707297910" lon="30.4694969393"><ele>5.91</ele><time>2015-06-07T15:14:18Z</time></trkpt><trkpt lat="59.8709059786" lon="30.4683090560"><ele>5.42</ele><time>2015-06-07T15:14:30Z</time></trkpt><trkpt lat="59.8709846847" lon="30.4680045415"><ele>5.42</ele><time>2015-06-07T15:14:34Z</time></trkpt><trkpt lat="59.8710716888" lon="30.4674867913"><ele>4.46</ele><time>2015-06-07T15:14:39Z</time></trkpt><trkpt lat="59.8713324498" lon="30.4662487004"><ele>2.54</ele><time>2015-06-07T15:14:53Z</time></trkpt><trkpt lat="59.8715859186" lon="30.4650575481"><ele>2.54</ele><time>2015-06-07T15:15:05Z</time></trkpt><trkpt lat="59.8716543149" lon="30.4647670314"><ele>2.06</ele><time>2015-06-07T15:15:08Z</time></trkpt><trkpt lat="59.8719110526" lon="30.4637534916"><ele>0.62</ele><time>2015-06-07T15:15:20Z</time></trkpt><trkpt lat="59.8722670320" lon="30.4625693802"><ele>0.14</ele><time>2015-06-07T15:15:34Z</time></trkpt><trkpt lat="59.8726555333" lon="30.4615997616"><ele>-1.30</ele><time>2015-06-07T15:15:46Z</time></trkpt><trkpt lat="59.8730906378" lon="30.4607162252"><ele>-0.34</ele><time>2015-06-07T15:16:00Z</time></trkpt><trkpt lat="59.8734844197" lon="30.4601350240"><ele>2.06</ele><time>2015-06-07T15:16:17Z</time></trkpt><trkpt lat="59.8739098851" lon="30.4595725145"><ele>3.02</ele><time>2015-06-07T15:16:35Z</time></trkpt><trkpt lat="59.8743988015" lon="30.4589775670"><ele>3.02</ele><time>2015-06-07T15:16:54Z</time></trkpt><trkpt lat="59.8748898972" lon="30.4583893251"><ele>3.02</ele><time>2015-06-07T15:17:11Z</time></trkpt><trkpt lat="59.8754398338" lon="30.4578117281"><ele>3.50</ele><time>2015-06-07T15:17:27Z</time></trkpt><trkpt lat="59.8756586015" lon="30.4575849976"><ele>3.02</ele><time>2015-06-07T15:17:33Z</time></trkpt><trkpt lat="59.8762522079" lon="30.4568929039"><ele>2.54</ele><time>2015-06-07T15:17:48Z</time></trkpt><trkpt lat="59.8768774979" lon="30.4561651871"><ele>3.50</ele><time>2015-06-07T15:18:03Z</time></trkpt><trkpt lat="59.8769678548" lon="30.4560677893"><ele>3.02</ele><time>2015-06-07T15:18:05Z</time></trkpt><trkpt lat="59.8771882150" lon="30.4557603411"><ele>2.54</ele><time>2015-06-07T15:18:10Z</time></trkpt><trkpt lat="59.8778166063" lon="30.4550914653"><ele>2.06</ele><time>2015-06-07T15:18:24Z</time></trkpt><trkpt lat="59.8779329471" lon="30.4549633060"><ele>2.06</ele><time>2015-06-07T15:18:27Z</time></trkpt><trkpt lat="59.8782423232" lon="30.4547044728"><ele>0.62</ele><time>2015-06-07T15:18:34Z</time></trkpt><trkpt lat="59.8790344130" lon="30.4539089464"><ele>2.54</ele><time>2015-06-07T15:18:52Z</time></trkpt><trkpt lat="59.8790774122" lon="30.4538601637"><ele>2.54</ele><time>2015-06-07T15:18:53Z</time></trkpt><trkpt lat="59.8798870202" lon="30.4532464407"><ele>2.06</ele><time>2015-06-07T15:19:09Z</time></trkpt><trkpt lat="59.8799841665" lon="30.4531649686"><ele>1.58</ele><time>2015-06-07T15:19:11Z</time></trkpt><trkpt lat="59.8807783518" lon="30.4522536043"><ele>1.10</ele><time>2015-06-07T15:19:30Z</time></trkpt><trkpt lat="59.8811696190" lon="30.4518355988"><ele>1.10</ele><time>2015-06-07T15:19:44Z</time></trkpt><trkpt lat="59.8818721063" lon="30.4511740152"><ele>-0.34</ele><time>2015-06-07T15:20:00Z</time></trkpt><trkpt lat="59.8827456683" lon="30.4503073264"><ele>-0.34</ele><time>2015-06-07T15:20:17Z</time></trkpt><trkpt lat="59.8834151309" lon="30.4497556295"><ele>-0.34</ele><time>2015-06-07T15:20:31Z</time></trkpt><trkpt lat="59.8840252496" lon="30.4493749235"><ele>-0.34</ele><time>2015-06-07T15:20:45Z</time></trkpt><trkpt lat="59.8849005718" lon="30.4489574209"><ele>-0.82</ele><time>2015-06-07T15:21:02Z</time></trkpt><trkpt lat="59.8853546195" lon="30.4487907887"><ele>-0.34</ele><time>2015-06-07T15:21:14Z</time></trkpt><trkpt lat="59.8857260216" lon="30.4483941570"><ele>1.10</ele><time>2015-06-07T15:21:30Z</time></trkpt><trkpt lat="59.8858291190" lon="30.4476100300"><ele>1.58</ele><time>2015-06-07T15:21:37Z</time></trkpt><trkpt lat="59.8862543330" lon="30.4454595689"><ele>0.62</ele><time>2015-06-07T15:21:50Z</time></trkpt><trkpt lat="59.8862994276" lon="30.4453009833"><ele>0.62</ele><time>2015-06-07T15:21:51Z</time></trkpt><trkpt lat="59.8868112266" lon="30.4443649761"><ele>1.58</ele><time>2015-06-07T15:22:01Z</time></trkpt><trkpt lat="59.8869558983" lon="30.4439482279"><ele>2.54</ele><time>2015-06-07T15:22:11Z</time></trkpt><trkpt lat="59.8869393859" lon="30.4438151233"><ele>3.02</ele><time>2015-06-07T15:22:16Z</time></trkpt><trkpt lat="59.8865888547" lon="30.4438232537"><ele>3.50</ele><time>2015-06-07T15:22:30Z</time></trkpt><trkpt lat="59.8859591223" lon="30.4440747108"><ele>3.50</ele><time>2015-06-07T15:22:45Z</time></trkpt><trkpt lat="59.8852583952" lon="30.4444416706"><ele>2.54</ele><time>2015-06-07T15:23:05Z</time></trkpt><trkpt lat="59.8846766073" lon="30.4446858354"><ele>3.02</ele><time>2015-06-07T15:23:22Z</time></trkpt><trkpt lat="59.8843766190" lon="30.4447452631"><ele>3.02</ele><time>2015-06-07T15:23:39Z</time></trkpt><trkpt lat="59.8842308577" lon="30.4448393919"><ele>3.98</ele><time>2015-06-07T15:23:51Z</time></trkpt><trkpt lat="59.8843838274" lon="30.4448516294"><ele>3.02</ele><time>2015-06-07T15:24:01Z</time></trkpt><trkpt lat="59.8847669642" lon="30.4445132520"><ele>2.54</ele><time>2015-06-07T15:24:19Z</time></trkpt><trkpt lat="59.8850447405" lon="30.4443488829"><ele>3.50</ele><time>2015-06-07T15:24:37Z</time></trkpt><trkpt lat="59.8852241132" lon="30.4444337916"><ele>4.46</ele><time>2015-06-07T15:24:53Z</time></trkpt><trkpt lat="59.8852872290" lon="30.4443399981"><ele>3.50</ele><time>2015-06-07T15:25:14Z</time></trkpt><trkpt lat="59.8851900827" lon="30.4443641379"><ele>3.02</ele><time>2015-06-07T15:25:36Z</time></trkpt><trkpt lat="59.8851066828" lon="30.4444350488"><ele>3.50</ele><time>2015-06-07T15:25:57Z</time></trkpt><trkpt lat="59.8850303236" lon="30.4445045348"><ele>3.50</ele><time>2015-06-07T15:26:13Z</time></trkpt><trkpt lat="59.8850984685" lon="30.4446036089"><ele>3.50</ele><time>2015-06-07T15:26:28Z</time></trkpt><trkpt lat="59.8851729836" lon="30.4445896950"><ele>3.98</ele><time>2015-06-07T15:26:35Z</time></trkpt><trkpt lat="59.8852616642" lon="30.4443506431"><ele>2.06</ele><time>2015-06-07T15:26:52Z</time></trkpt><trkpt lat="59.8852564674" lon="30.4442147724"><ele>2.06</ele><time>2015-06-07T15:27:09Z</time></trkpt><trkpt lat="59.8850942776" lon="30.4441716895"><ele>3.02</ele><time>2015-06-07T15:27:27Z</time></trkpt><trkpt lat="59.8850814532" lon="30.4441401735"><ele>3.02</ele><time>2015-06-07T15:27:29Z</time></trkpt><trkpt lat="59.8850275576" lon="30.4439641535"><ele>2.06</ele><time>2015-06-07T15:27:50Z</time></trkpt><trkpt lat="59.8850076925" lon="30.4439357389"><ele>3.02</ele><time>2015-06-07T15:28:09Z</time></trkpt><trkpt lat="59.8849987239" lon="30.4439279437"><ele>1.10</ele><time>2015-06-07T15:28:36Z</time></trkpt><trkpt lat="59.8850040883" lon="30.4439296201"><ele>1.10</ele><time>2015-06-07T15:28:56Z</time></trkpt><trkpt lat="59.8850119673" lon="30.4439289495"><ele>3.50</ele><time>2015-06-07T15:29:20Z</time></trkpt><trkpt lat="59.8850159068" lon="30.4439416062"><ele>4.94</ele><time>2015-06-07T15:29:44Z</time></trkpt><trkpt lat="59.8850129731" lon="30.4439360742"><ele>3.50</ele><time>2015-06-07T15:30:02Z</time></trkpt><trkpt lat="59.8850121349" lon="30.4439448752"><ele>3.98</ele><time>2015-06-07T15:30:21Z</time></trkpt><trkpt lat="59.8850211035" lon="30.4439451266"><ele>3.50</ele><time>2015-06-07T15:30:40Z</time></trkpt><trkpt lat="59.8850141466" lon="30.4439474735"><ele>3.98</ele><time>2015-06-07T15:31:08Z</time></trkpt><trkpt lat="59.8850057647" lon="30.4439406004"><ele>3.50</ele><time>2015-06-07T15:31:42Z</time></trkpt><trkpt lat="59.8850143142" lon="30.4439473897"><ele>3.98</ele><time>2015-06-07T15:32:08Z</time></trkpt><trkpt lat="59.8850094527" lon="30.4439429473"><ele>2.06</ele><time>2015-06-07T15:32:47Z</time></trkpt><trkpt lat="59.8850236181" lon="30.4439494014"><ele>1.10</ele><time>2015-06-07T15:33:19Z</time></trkpt><trkpt lat="59.8850248754" lon="30.4439486470"><ele>3.50</ele><time>2015-06-07T15:33:52Z</time></trkpt><trkpt lat="59.8850294854" lon="30.4438333958"><ele>3.98</ele><time>2015-06-07T15:34:10Z</time></trkpt><trkpt lat="59.8850415554" lon="30.4438162968"><ele>3.98</ele><time>2015-06-07T15:34:12Z</time></trkpt><trkpt lat="59.8850861471" lon="30.4438337311"><ele>4.46</ele><time>2015-06-07T15:34:27Z</time></trkpt><trkpt lat="59.8850590736" lon="30.4438076634"><ele>3.02</ele><time>2015-06-07T15:34:48Z</time></trkpt><trkpt lat="59.8850203492" lon="30.4437796678"><ele>9.27</ele><time>2015-06-07T15:35:28Z</time></trkpt><trkpt lat="59.8850755021" lon="30.4438347369"><ele>7.83</ele><time>2015-06-07T15:35:56Z</time></trkpt><trkpt lat="59.8850375321" lon="30.4438121058"><ele>6.87</ele><time>2015-06-07T15:36:32Z</time></trkpt><trkpt lat="59.8850397114" lon="30.4437799193"><ele>5.42</ele><time>2015-06-07T15:37:07Z</time></trkpt><trkpt lat="59.8850874882" lon="30.4437962640"><ele>8.31</ele><time>2015-06-07T15:37:37Z</time></trkpt><trkpt lat="59.8850536253" lon="30.4438167997"><ele>9.27</ele><time>2015-06-07T15:38:05Z</time></trkpt><trkpt lat="59.8850720655" lon="30.4438715335"><ele>6.87</ele><time>2015-06-07T15:38:36Z</time></trkpt><trkpt lat="59.8850649409" lon="30.4438369162"><ele>7.83</ele><time>2015-06-07T15:39:09Z</time></trkpt><trkpt lat="59.8850826267" lon="30.4438447952"><ele>5.91</ele><time>2015-06-07T15:39:54Z</time></trkpt><trkpt lat="59.8850796930" lon="30.4438058194"><ele>3.98</ele><time>2015-06-07T15:40:23Z</time></trkpt><trkpt lat="59.8850773461" lon="30.4438060708"><ele>6.87</ele><time>2015-06-07T15:40:59Z</time></trkpt><trkpt lat="59.8850538768" lon="30.4438293725"><ele>10.71</ele><time>2015-06-07T15:41:29Z</time></trkpt><trkpt lat="59.8850627616" lon="30.4438077472"><ele>9.27</ele><time>2015-06-07T15:41:56Z</time></trkpt><trkpt lat="59.8850294854" lon="30.4437706154"><ele>14.08</ele><time>2015-06-07T15:42:26Z</time></trkpt><trkpt lat="59.8850862309" lon="30.4438462202"><ele>9.75</ele><time>2015-06-07T15:42:58Z</time></trkpt><trkpt lat="59.8850704730" lon="30.4438138660"><ele>8.31</ele><time>2015-06-07T15:43:35Z</time></trkpt><trkpt lat="59.8850132246" lon="30.4437025543"><ele>10.23</ele><time>2015-06-07T15:44:11Z</time></trkpt><trkpt lat="59.8850496020" lon="30.4438240919"><ele>13.12</ele><time>2015-06-07T15:44:43Z</time></trkpt><trkpt lat="59.8851005640" lon="30.4438718688"><ele>9.75</ele><time>2015-06-07T15:45:11Z</time></trkpt><trkpt lat="59.8850371130" lon="30.4437534325"><ele>15.04</ele><time>2015-06-07T15:45:43Z</time></trkpt><trkpt lat="59.8850560561" lon="30.4437795002"><ele>16.48</ele><time>2015-06-07T15:46:09Z</time></trkpt><trkpt lat="59.8850148171" lon="30.4437670950"><ele>17.92</ele><time>2015-06-07T15:46:49Z</time></trkpt><trkpt lat="59.8850806989" lon="30.4438222479"><ele>11.19</ele><time>2015-06-07T15:47:18Z</time></trkpt><trkpt lat="59.8850558884" lon="30.4438048135"><ele>12.15</ele><time>2015-06-07T15:47:49Z</time></trkpt><trkpt lat="59.8850875720" lon="30.4438402690"><ele>7.83</ele><time>2015-06-07T15:48:24Z</time></trkpt><trkpt lat="59.8850718141" lon="30.4438119382"><ele>8.79</ele><time>2015-06-07T15:48:55Z</time></trkpt><trkpt lat="59.8851026595" lon="30.4437935818"><ele>9.27</ele><time>2015-06-07T15:49:30Z</time></trkpt><trkpt lat="59.8850703891" lon="30.4438008741"><ele>12.15</ele><time>2015-06-07T15:49:59Z</time></trkpt><trkpt lat="59.8850701377" lon="30.4438383412"><ele>9.27</ele><time>2015-06-07T15:50:26Z</time></trkpt><trkpt lat="59.8850417230" lon="30.4438092560"><ele>10.71</ele><time>2015-06-07T15:50:55Z</time></trkpt><trkpt lat="59.8850784358" lon="30.4438083339"><ele>9.75</ele><time>2015-06-07T15:51:16Z</time></trkpt><trkpt lat="59.8850753345" lon="30.4438202363"><ele>8.79</ele><time>2015-06-07T15:51:53Z</time></trkpt><trkpt lat="59.8850879911" lon="30.4438315518"><ele>7.83</ele><time>2015-06-07T15:52:18Z</time></trkpt><trkpt lat="59.8850876559" lon="30.4438365810"><ele>7.83</ele><time>2015-06-07T15:52:58Z</time></trkpt><trkpt lat="59.8850950319" lon="30.4438535124"><ele>8.31</ele><time>2015-06-07T15:53:22Z</time></trkpt><trkpt lat="59.8851038329" lon="30.4438549373"><ele>4.94</ele><time>2015-06-07T15:53:59Z</time></trkpt><trkpt lat="59.8850946967" lon="30.4438594636"><ele>4.94</ele><time>2015-06-07T15:54:36Z</time></trkpt><trkpt lat="59.8851023242" lon="30.4438513331"><ele>7.83</ele><time>2015-06-07T15:55:16Z</time></trkpt><trkpt lat="59.8850886617" lon="30.4438318871"><ele>6.87</ele><time>2015-06-07T15:55:49Z</time></trkpt><trkpt lat="59.8850814532" lon="30.4438247625"><ele>5.91</ele><time>2015-06-07T15:56:20Z</time></trkpt><trkpt lat="59.8850758374" lon="30.4438311327"><ele>8.31</ele><time>2015-06-07T15:56:49Z</time></trkpt><trkpt lat="59.8850901704" lon="30.4438623972"><ele>8.31</ele><time>2015-06-07T15:57:19Z</time></trkpt><trkpt lat="59.8850709759" lon="30.4438153747"><ele>9.75</ele><time>2015-06-07T15:57:47Z</time></trkpt><trkpt lat="59.8851098679" lon="30.4438601341"><ele>7.83</ele><time>2015-06-07T15:58:11Z</time></trkpt><trkpt lat="59.8851015698" lon="30.4438436218"><ele>6.87</ele><time>2015-06-07T15:58:39Z</time></trkpt><trkpt lat="59.8851261288" lon="30.4438632354"><ele>7.83</ele><time>2015-06-07T15:59:13Z</time></trkpt><trkpt lat="59.8850746639" lon="30.4438254330"><ele>7.83</ele><time>2015-06-07T15:59:43Z</time></trkpt><trkpt lat="59.8851073533" lon="30.4438670073"><ele>6.87</ele><time>2015-06-07T16:00:23Z</time></trkpt><trkpt lat="59.8850827105" lon="30.4438243434"><ele>5.91</ele><time>2015-06-07T16:00:51Z</time></trkpt><trkpt lat="59.8850859795" lon="30.4438492376"><ele>4.46</ele><time>2015-06-07T16:01:26Z</time></trkpt><trkpt lat="59.8851024080" lon="30.4438389279"><ele>3.98</ele><time>2015-06-07T16:01:59Z</time></trkpt><trkpt lat="59.8850848898" lon="30.4438427836"><ele>4.94</ele><time>2015-06-07T16:02:21Z</time></trkpt><trkpt lat="59.8851075210" lon="30.4438577872"><ele>6.87</ele><time>2015-06-07T16:03:01Z</time></trkpt><trkpt lat="59.8851078562" lon="30.4438602179"><ele>6.39</ele><time>2015-06-07T16:03:31Z</time></trkpt><trkpt lat="59.8850953672" lon="30.4438512493"><ele>6.87</ele><time>2015-06-07T16:04:01Z</time></trkpt><trkpt lat="59.8850911763" lon="30.4438611399"><ele>7.83</ele><time>2015-06-07T16:04:27Z</time></trkpt><trkpt lat="59.8850838002" lon="30.4438358266"><ele>9.75</ele><time>2015-06-07T16:05:04Z</time></trkpt><trkpt lat="59.8850967083" lon="30.4438937455"><ele>6.39</ele><time>2015-06-07T16:05:37Z</time></trkpt><trkpt lat="59.8851005640" lon="30.4438652471"><ele>5.42</ele><time>2015-06-07T16:06:08Z</time></trkpt><trkpt lat="59.8851068504" lon="30.4438644927"><ele>7.83</ele><time>2015-06-07T16:06:44Z</time></trkpt><trkpt lat="59.8850860633" lon="30.4438506626"><ele>6.87</ele><time>2015-06-07T16:07:06Z</time></trkpt><trkpt lat="59.8850672040" lon="30.4438292887"><ele>4.94</ele><time>2015-06-07T16:07:33Z</time></trkpt><trkpt lat="59.8850928526" lon="30.4438390955"><ele>7.35</ele><time>2015-06-07T16:07:58Z</time></trkpt><trkpt lat="59.8851124663" lon="30.4438853636"><ele>7.35</ele><time>2015-06-07T16:08:23Z</time></trkpt><trkpt lat="59.8851182498" lon="30.4438922368"><ele>7.83</ele><time>2015-06-07T16:08:40Z</time></trkpt></trkseg></trk></gpx>